<?xml version="1.0" encoding="ISO-8859-1" standalone="yes"?>
<gpx
  xmlns="http://www.topografix.com/GPX/1/1"
  version="1.1" creator="LoadMyTracks/073 http://www.cluetrust.com/LoadMyTracks.html"
  xmlns:xsi="http://www.w3.org/2001/XMLSchema-instance"
  xmlns:gpxdata="http://www.cluetrust.com/XML/GPXDATA/1/0"
  xmlns:geocache="http://www.groundspeak.com/cache/1/0"
  xsi:schemaLocation="http://www.topografix.com/GPX/1/1 http://www.topografix.com/GPX/1/1/gpx.xsd
http://www.cluetrust.com/XML/GPXDATA/1/0 http://www.cluetrust.com/Schemas/gpxdata10.xsd">
<trk>
<name>2010/1/27 9:38:3 GMT</name>
<trkseg>
	<trkpt lat="51.758695" lon="-1.839331667"><ele>117.000000</ele><time>2010-01-27T09:38:03Z</time></trkpt>
	<trkpt lat="51.75871833" lon="-1.839285"><ele>122.000000</ele><time>2010-01-27T09:38:09Z</time></trkpt>
	<trkpt lat="51.75871833" lon="-1.839285"><ele>122.000000</ele><time>2010-01-27T09:38:14Z</time></trkpt>
	<trkpt lat="51.758715" lon="-1.839283333"><ele>122.000000</ele><time>2010-01-27T09:38:19Z</time></trkpt>
	<trkpt lat="51.75869333" lon="-1.839288333"><ele>119.000000</ele><time>2010-01-27T09:38:24Z</time></trkpt>
	<trkpt lat="51.75868833" lon="-1.839281667"><ele>119.000000</ele><time>2010-01-27T09:38:29Z</time></trkpt>
	<trkpt lat="51.75868333" lon="-1.839271667"><ele>119.000000</ele><time>2010-01-27T09:38:34Z</time></trkpt>
	<trkpt lat="51.75867833" lon="-1.839261667"><ele>120.000000</ele><time>2010-01-27T09:38:39Z</time></trkpt>
	<trkpt lat="51.758675" lon="-1.839258333"><ele>120.000000</ele><time>2010-01-27T09:38:44Z</time></trkpt>
	<trkpt lat="51.75867333" lon="-1.839253333"><ele>120.000000</ele><time>2010-01-27T09:38:49Z</time></trkpt>
	<trkpt lat="51.75867167" lon="-1.83925"><ele>120.000000</ele><time>2010-01-27T09:38:54Z</time></trkpt>
	<trkpt lat="51.75867" lon="-1.839246667"><ele>120.000000</ele><time>2010-01-27T09:38:59Z</time></trkpt>
	<trkpt lat="51.75866833" lon="-1.839245"><ele>121.000000</ele><time>2010-01-27T09:39:04Z</time></trkpt>
	<trkpt lat="51.758675" lon="-1.839251667"><ele>121.000000</ele><time>2010-01-27T09:39:09Z</time></trkpt>
	<trkpt lat="51.758675" lon="-1.839253333"><ele>121.000000</ele><time>2010-01-27T09:39:14Z</time></trkpt>
	<trkpt lat="51.75866667" lon="-1.839243333"><ele>121.000000</ele><time>2010-01-27T09:39:19Z</time></trkpt>
	<trkpt lat="51.75866333" lon="-1.839228333"><ele>120.000000</ele><time>2010-01-27T09:39:24Z</time></trkpt>
	<trkpt lat="51.75865833" lon="-1.839218333"><ele>120.000000</ele><time>2010-01-27T09:39:29Z</time></trkpt>
	<trkpt lat="51.75866" lon="-1.839211667"><ele>119.000000</ele><time>2010-01-27T09:39:34Z</time></trkpt>
	<trkpt lat="51.75866333" lon="-1.839213333"><ele>120.000000</ele><time>2010-01-27T09:39:39Z</time></trkpt>
	<trkpt lat="51.75866667" lon="-1.839218333"><ele>120.000000</ele><time>2010-01-27T09:39:44Z</time></trkpt>
	<trkpt lat="51.75867167" lon="-1.839225"><ele>121.000000</ele><time>2010-01-27T09:39:49Z</time></trkpt>
	<trkpt lat="51.75866667" lon="-1.839231667"><ele>120.000000</ele><time>2010-01-27T09:39:54Z</time></trkpt>
	<trkpt lat="51.758665" lon="-1.839236667"><ele>120.000000</ele><time>2010-01-27T09:39:59Z</time></trkpt>
	<trkpt lat="51.758665" lon="-1.839236667"><ele>120.000000</ele><time>2010-01-27T09:40:04Z</time></trkpt>
	<trkpt lat="51.75866667" lon="-1.83924"><ele>119.000000</ele><time>2010-01-27T09:40:09Z</time></trkpt>
	<trkpt lat="51.75866667" lon="-1.83925"><ele>119.000000</ele><time>2010-01-27T09:40:14Z</time></trkpt>
	<trkpt lat="51.75866833" lon="-1.839251667"><ele>119.000000</ele><time>2010-01-27T09:40:19Z</time></trkpt>
	<trkpt lat="51.75866833" lon="-1.839255"><ele>118.000000</ele><time>2010-01-27T09:40:24Z</time></trkpt>
	<trkpt lat="51.75866833" lon="-1.83926"><ele>118.000000</ele><time>2010-01-27T09:40:29Z</time></trkpt>
	<trkpt lat="51.75866833" lon="-1.839265"><ele>119.000000</ele><time>2010-01-27T09:40:34Z</time></trkpt>
	<trkpt lat="51.75867167" lon="-1.839261667"><ele>119.000000</ele><time>2010-01-27T09:40:39Z</time></trkpt>
	<trkpt lat="51.75867833" lon="-1.839258333"><ele>120.000000</ele><time>2010-01-27T09:40:44Z</time></trkpt>
	<trkpt lat="51.758685" lon="-1.839256667"><ele>121.000000</ele><time>2010-01-27T09:40:49Z</time></trkpt>
	<trkpt lat="51.75869167" lon="-1.839256667"><ele>123.000000</ele><time>2010-01-27T09:40:54Z</time></trkpt>
	<trkpt lat="51.75869833" lon="-1.839255"><ele>123.000000</ele><time>2010-01-27T09:40:59Z</time></trkpt>
	<trkpt lat="51.75868667" lon="-1.83926"><ele>122.000000</ele><time>2010-01-27T09:41:04Z</time></trkpt>
	<trkpt lat="51.75868333" lon="-1.83926"><ele>121.000000</ele><time>2010-01-27T09:41:09Z</time></trkpt>
	<trkpt lat="51.75868167" lon="-1.83926"><ele>120.000000</ele><time>2010-01-27T09:41:14Z</time></trkpt>
	<trkpt lat="51.75868" lon="-1.839261667"><ele>120.000000</ele><time>2010-01-27T09:41:19Z</time></trkpt>
	<trkpt lat="51.75868" lon="-1.839265"><ele>119.000000</ele><time>2010-01-27T09:41:24Z</time></trkpt>
	<trkpt lat="51.75867833" lon="-1.83927"><ele>119.000000</ele><time>2010-01-27T09:41:29Z</time></trkpt>
	<trkpt lat="51.75868" lon="-1.839275"><ele>119.000000</ele><time>2010-01-27T09:41:34Z</time></trkpt>
	<trkpt lat="51.75868167" lon="-1.839275"><ele>119.000000</ele><time>2010-01-27T09:41:39Z</time></trkpt>
	<trkpt lat="51.75868" lon="-1.839283333"><ele>119.000000</ele><time>2010-01-27T09:41:44Z</time></trkpt>
	<trkpt lat="51.75869333" lon="-1.839288333"><ele>119.000000</ele><time>2010-01-27T09:41:49Z</time></trkpt>
	<trkpt lat="51.75870833" lon="-1.839295"><ele>120.000000</ele><time>2010-01-27T09:41:54Z</time></trkpt>
	<trkpt lat="51.75872833" lon="-1.839286667"><ele>122.000000</ele><time>2010-01-27T09:41:59Z</time></trkpt>
	<trkpt lat="51.75874167" lon="-1.839285"><ele>124.000000</ele><time>2010-01-27T09:42:04Z</time></trkpt>
	<trkpt lat="51.75875" lon="-1.839286667"><ele>126.000000</ele><time>2010-01-27T09:42:09Z</time></trkpt>
	<trkpt lat="51.75874167" lon="-1.839283333"><ele>124.000000</ele><time>2010-01-27T09:42:14Z</time></trkpt>
	<trkpt lat="51.758735" lon="-1.839281667"><ele>124.000000</ele><time>2010-01-27T09:42:19Z</time></trkpt>
	<trkpt lat="51.75873" lon="-1.839278333"><ele>124.000000</ele><time>2010-01-27T09:42:24Z</time></trkpt>
	<trkpt lat="51.75872833" lon="-1.839275"><ele>124.000000</ele><time>2010-01-27T09:42:29Z</time></trkpt>
	<trkpt lat="51.75872667" lon="-1.83928"><ele>124.000000</ele><time>2010-01-27T09:42:34Z</time></trkpt>
	<trkpt lat="51.75873" lon="-1.839278333"><ele>125.000000</ele><time>2010-01-27T09:42:39Z</time></trkpt>
	<trkpt lat="51.75873" lon="-1.83928"><ele>126.000000</ele><time>2010-01-27T09:42:44Z</time></trkpt>
	<trkpt lat="51.75873" lon="-1.83928"><ele>126.000000</ele><time>2010-01-27T09:42:49Z</time></trkpt>
	<trkpt lat="51.758735" lon="-1.839278333"><ele>126.000000</ele><time>2010-01-27T09:42:54Z</time></trkpt>
	<trkpt lat="51.75874167" lon="-1.839275"><ele>125.000000</ele><time>2010-01-27T09:42:59Z</time></trkpt>
	<trkpt lat="51.75874167" lon="-1.839275"><ele>126.000000</ele><time>2010-01-27T09:43:04Z</time></trkpt>
	<trkpt lat="51.758745" lon="-1.839271667"><ele>126.000000</ele><time>2010-01-27T09:43:09Z</time></trkpt>
	<trkpt lat="51.75874833" lon="-1.839273333"><ele>127.000000</ele><time>2010-01-27T09:43:14Z</time></trkpt>
	<trkpt lat="51.758755" lon="-1.839271667"><ele>127.000000</ele><time>2010-01-27T09:43:19Z</time></trkpt>
	<trkpt lat="51.75875333" lon="-1.839271667"><ele>127.000000</ele><time>2010-01-27T09:43:24Z</time></trkpt>
	<trkpt lat="51.75876667" lon="-1.839275"><ele>128.000000</ele><time>2010-01-27T09:43:29Z</time></trkpt>
	<trkpt lat="51.75876833" lon="-1.839278333"><ele>128.000000</ele><time>2010-01-27T09:43:34Z</time></trkpt>
	<trkpt lat="51.75877167" lon="-1.839275"><ele>130.000000</ele><time>2010-01-27T09:43:39Z</time></trkpt>
	<trkpt lat="51.75877833" lon="-1.83929"><ele>132.000000</ele><time>2010-01-27T09:43:44Z</time></trkpt>
	<trkpt lat="51.75877833" lon="-1.8393"><ele>132.000000</ele><time>2010-01-27T09:43:49Z</time></trkpt>
	<trkpt lat="51.75878667" lon="-1.839293333"><ele>134.000000</ele><time>2010-01-27T09:43:54Z</time></trkpt>
	<trkpt lat="51.75880167" lon="-1.839285"><ele>136.000000</ele><time>2010-01-27T09:43:59Z</time></trkpt>
	<trkpt lat="51.75881833" lon="-1.839278333"><ele>139.000000</ele><time>2010-01-27T09:44:04Z</time></trkpt>
	<trkpt lat="51.75883167" lon="-1.839273333"><ele>141.000000</ele><time>2010-01-27T09:44:09Z</time></trkpt>
	<trkpt lat="51.75884333" lon="-1.839265"><ele>142.000000</ele><time>2010-01-27T09:44:14Z</time></trkpt>
	<trkpt lat="51.75884833" lon="-1.839258333"><ele>144.000000</ele><time>2010-01-27T09:44:19Z</time></trkpt>
	<trkpt lat="51.75885333" lon="-1.839261667"><ele>145.000000</ele><time>2010-01-27T09:44:24Z</time></trkpt>
	<trkpt lat="51.75885667" lon="-1.839266667"><ele>146.000000</ele><time>2010-01-27T09:44:29Z</time></trkpt>
	<trkpt lat="51.75886" lon="-1.83927"><ele>147.000000</ele><time>2010-01-27T09:44:34Z</time></trkpt>
	<trkpt lat="51.75886667" lon="-1.839278333"><ele>147.000000</ele><time>2010-01-27T09:44:39Z</time></trkpt>
	<trkpt lat="51.75886833" lon="-1.83929"><ele>145.000000</ele><time>2010-01-27T09:44:44Z</time></trkpt>
	<trkpt lat="51.75887333" lon="-1.83929"><ele>145.000000</ele><time>2010-01-27T09:44:49Z</time></trkpt>
	<trkpt lat="51.758865" lon="-1.839295"><ele>143.000000</ele><time>2010-01-27T09:44:54Z</time></trkpt>
	<trkpt lat="51.75884667" lon="-1.839295"><ele>141.000000</ele><time>2010-01-27T09:44:59Z</time></trkpt>
	<trkpt lat="51.75882167" lon="-1.839293333"><ele>138.000000</ele><time>2010-01-27T09:45:04Z</time></trkpt>
	<trkpt lat="51.758805" lon="-1.839293333"><ele>136.000000</ele><time>2010-01-27T09:45:09Z</time></trkpt>
	<trkpt lat="51.75877833" lon="-1.839283333"><ele>134.000000</ele><time>2010-01-27T09:45:14Z</time></trkpt>
	<trkpt lat="51.75875667" lon="-1.83928"><ele>132.000000</ele><time>2010-01-27T09:45:19Z</time></trkpt>
	<trkpt lat="51.75874167" lon="-1.839265"><ele>130.000000</ele><time>2010-01-27T09:45:24Z</time></trkpt>
	<trkpt lat="51.75872833" lon="-1.839255"><ele>129.000000</ele><time>2010-01-27T09:45:29Z</time></trkpt>
	<trkpt lat="51.75871833" lon="-1.839246667"><ele>127.000000</ele><time>2010-01-27T09:45:34Z</time></trkpt>
	<trkpt lat="51.75871" lon="-1.839241667"><ele>127.000000</ele><time>2010-01-27T09:45:39Z</time></trkpt>
	<trkpt lat="51.75870667" lon="-1.839238333"><ele>126.000000</ele><time>2010-01-27T09:45:44Z</time></trkpt>
	<trkpt lat="51.75870667" lon="-1.839233333"><ele>125.000000</ele><time>2010-01-27T09:45:49Z</time></trkpt>
	<trkpt lat="51.75870833" lon="-1.839233333"><ele>125.000000</ele><time>2010-01-27T09:45:54Z</time></trkpt>
	<trkpt lat="51.75871" lon="-1.839231667"><ele>125.000000</ele><time>2010-01-27T09:45:59Z</time></trkpt>
	<trkpt lat="51.75871333" lon="-1.839231667"><ele>125.000000</ele><time>2010-01-27T09:46:04Z</time></trkpt>
	<trkpt lat="51.758715" lon="-1.839231667"><ele>125.000000</ele><time>2010-01-27T09:46:09Z</time></trkpt>
	<trkpt lat="51.75871833" lon="-1.839231667"><ele>125.000000</ele><time>2010-01-27T09:46:14Z</time></trkpt>
	<trkpt lat="51.75872" lon="-1.839231667"><ele>125.000000</ele><time>2010-01-27T09:46:19Z</time></trkpt>
	<trkpt lat="51.75872167" lon="-1.839231667"><ele>125.000000</ele><time>2010-01-27T09:46:24Z</time></trkpt>
	<trkpt lat="51.75872333" lon="-1.83923"><ele>124.000000</ele><time>2010-01-27T09:46:29Z</time></trkpt>
	<trkpt lat="51.75872167" lon="-1.83923"><ele>124.000000</ele><time>2010-01-27T09:46:34Z</time></trkpt>
	<trkpt lat="51.75872" lon="-1.839226667"><ele>123.000000</ele><time>2010-01-27T09:46:39Z</time></trkpt>
	<trkpt lat="51.75871833" lon="-1.839223333"><ele>123.000000</ele><time>2010-01-27T09:46:44Z</time></trkpt>
	<trkpt lat="51.75871833" lon="-1.839221667"><ele>122.000000</ele><time>2010-01-27T09:46:49Z</time></trkpt>
	<trkpt lat="51.75871833" lon="-1.839218333"><ele>122.000000</ele><time>2010-01-27T09:46:54Z</time></trkpt>
	<trkpt lat="51.75871833" lon="-1.839218333"><ele>122.000000</ele><time>2010-01-27T09:46:59Z</time></trkpt>
	<trkpt lat="51.75871833" lon="-1.839216667"><ele>122.000000</ele><time>2010-01-27T09:47:04Z</time></trkpt>
	<trkpt lat="51.75871833" lon="-1.839215"><ele>122.000000</ele><time>2010-01-27T09:47:09Z</time></trkpt>
	<trkpt lat="51.75871833" lon="-1.839213333"><ele>121.000000</ele><time>2010-01-27T09:47:14Z</time></trkpt>
	<trkpt lat="51.758715" lon="-1.839208333"><ele>121.000000</ele><time>2010-01-27T09:47:19Z</time></trkpt>
	<trkpt lat="51.75871667" lon="-1.839205"><ele>121.000000</ele><time>2010-01-27T09:47:24Z</time></trkpt>
	<trkpt lat="51.75871167" lon="-1.839206667"><ele>121.000000</ele><time>2010-01-27T09:47:29Z</time></trkpt>
	<trkpt lat="51.758695" lon="-1.839215"><ele>122.000000</ele><time>2010-01-27T09:47:34Z</time></trkpt>
	<trkpt lat="51.75868667" lon="-1.839218333"><ele>122.000000</ele><time>2010-01-27T09:47:39Z</time></trkpt>
	<trkpt lat="51.75868167" lon="-1.839221667"><ele>122.000000</ele><time>2010-01-27T09:47:44Z</time></trkpt>
	<trkpt lat="51.75869167" lon="-1.839223333"><ele>123.000000</ele><time>2010-01-27T09:47:49Z</time></trkpt>
	<trkpt lat="51.75868667" lon="-1.839213333"><ele>121.000000</ele><time>2010-01-27T09:47:54Z</time></trkpt>
	<trkpt lat="51.75868667" lon="-1.839205"><ele>120.000000</ele><time>2010-01-27T09:47:59Z</time></trkpt>
	<trkpt lat="51.75867833" lon="-1.839196667"><ele>119.000000</ele><time>2010-01-27T09:48:04Z</time></trkpt>
	<trkpt lat="51.75866667" lon="-1.839195"><ele>120.000000</ele><time>2010-01-27T09:48:09Z</time></trkpt>
	<trkpt lat="51.75865333" lon="-1.839205"><ele>121.000000</ele><time>2010-01-27T09:48:14Z</time></trkpt>
	<trkpt lat="51.75864333" lon="-1.839205"><ele>121.000000</ele><time>2010-01-27T09:48:19Z</time></trkpt>
	<trkpt lat="51.758635" lon="-1.839201667"><ele>121.000000</ele><time>2010-01-27T09:48:24Z</time></trkpt>
	<trkpt lat="51.758625" lon="-1.839198333"><ele>121.000000</ele><time>2010-01-27T09:48:29Z</time></trkpt>
	<trkpt lat="51.75861667" lon="-1.839193333"><ele>120.000000</ele><time>2010-01-27T09:48:34Z</time></trkpt>
	<trkpt lat="51.75861" lon="-1.839188333"><ele>119.000000</ele><time>2010-01-27T09:48:39Z</time></trkpt>
	<trkpt lat="51.75860333" lon="-1.839181667"><ele>118.000000</ele><time>2010-01-27T09:48:44Z</time></trkpt>
	<trkpt lat="51.758605" lon="-1.839175"><ele>117.000000</ele><time>2010-01-27T09:48:49Z</time></trkpt>
	<trkpt lat="51.75861" lon="-1.839173333"><ele>115.000000</ele><time>2010-01-27T09:48:54Z</time></trkpt>
	<trkpt lat="51.75861167" lon="-1.839168333"><ele>114.000000</ele><time>2010-01-27T09:48:59Z</time></trkpt>
	<trkpt lat="51.75861167" lon="-1.83916"><ele>113.000000</ele><time>2010-01-27T09:49:04Z</time></trkpt>
	<trkpt lat="51.75860833" lon="-1.839146667"><ele>111.000000</ele><time>2010-01-27T09:49:09Z</time></trkpt>
	<trkpt lat="51.75860667" lon="-1.839136667"><ele>109.000000</ele><time>2010-01-27T09:49:14Z</time></trkpt>
	<trkpt lat="51.75862" lon="-1.839141667"><ele>110.000000</ele><time>2010-01-27T09:49:19Z</time></trkpt>
	<trkpt lat="51.75862833" lon="-1.839145"><ele>110.000000</ele><time>2010-01-27T09:49:24Z</time></trkpt>
	<trkpt lat="51.75863833" lon="-1.839145"><ele>110.000000</ele><time>2010-01-27T09:49:29Z</time></trkpt>
	<trkpt lat="51.75864333" lon="-1.839143333"><ele>110.000000</ele><time>2010-01-27T09:49:34Z</time></trkpt>
	<trkpt lat="51.75864" lon="-1.839138333"><ele>109.000000</ele><time>2010-01-27T09:49:39Z</time></trkpt>
	<trkpt lat="51.758635" lon="-1.839133333"><ele>109.000000</ele><time>2010-01-27T09:49:44Z</time></trkpt>
	<trkpt lat="51.75862833" lon="-1.839128333"><ele>108.000000</ele><time>2010-01-27T09:49:49Z</time></trkpt>
	<trkpt lat="51.758625" lon="-1.839125"><ele>108.000000</ele><time>2010-01-27T09:49:54Z</time></trkpt>
	<trkpt lat="51.75860833" lon="-1.839131667"><ele>109.000000</ele><time>2010-01-27T09:49:59Z</time></trkpt>
	<trkpt lat="51.75859833" lon="-1.839133333"><ele>109.000000</ele><time>2010-01-27T09:50:04Z</time></trkpt>
	<trkpt lat="51.75859667" lon="-1.83913"><ele>109.000000</ele><time>2010-01-27T09:50:09Z</time></trkpt>
	<trkpt lat="51.75859667" lon="-1.839126667"><ele>108.000000</ele><time>2010-01-27T09:50:14Z</time></trkpt>
	<trkpt lat="51.75859833" lon="-1.839125"><ele>108.000000</ele><time>2010-01-27T09:50:19Z</time></trkpt>
	<trkpt lat="51.75860167" lon="-1.839125"><ele>108.000000</ele><time>2010-01-27T09:50:24Z</time></trkpt>
	<trkpt lat="51.75860333" lon="-1.839125"><ele>108.000000</ele><time>2010-01-27T09:50:29Z</time></trkpt>
	<trkpt lat="51.75859833" lon="-1.839128333"><ele>109.000000</ele><time>2010-01-27T09:50:34Z</time></trkpt>
	<trkpt lat="51.75859667" lon="-1.839133333"><ele>110.000000</ele><time>2010-01-27T09:50:39Z</time></trkpt>
	<trkpt lat="51.75859333" lon="-1.839136667"><ele>110.000000</ele><time>2010-01-27T09:50:44Z</time></trkpt>
	<trkpt lat="51.75859" lon="-1.83914"><ele>110.000000</ele><time>2010-01-27T09:50:49Z</time></trkpt>
	<trkpt lat="51.75859167" lon="-1.839143333"><ele>111.000000</ele><time>2010-01-27T09:50:54Z</time></trkpt>
	<trkpt lat="51.75859333" lon="-1.839146667"><ele>112.000000</ele><time>2010-01-27T09:50:59Z</time></trkpt>
	<trkpt lat="51.758595" lon="-1.83915"><ele>112.000000</ele><time>2010-01-27T09:51:04Z</time></trkpt>
	<trkpt lat="51.758595" lon="-1.839151667"><ele>112.000000</ele><time>2010-01-27T09:51:09Z</time></trkpt>
	<trkpt lat="51.75859667" lon="-1.839151667"><ele>112.000000</ele><time>2010-01-27T09:51:14Z</time></trkpt>
	<trkpt lat="51.75860167" lon="-1.839151667"><ele>112.000000</ele><time>2010-01-27T09:51:19Z</time></trkpt>
	<trkpt lat="51.758605" lon="-1.839151667"><ele>111.000000</ele><time>2010-01-27T09:51:24Z</time></trkpt>
	<trkpt lat="51.75860833" lon="-1.83915"><ele>111.000000</ele><time>2010-01-27T09:51:29Z</time></trkpt>
	<trkpt lat="51.75861333" lon="-1.839146667"><ele>111.000000</ele><time>2010-01-27T09:51:34Z</time></trkpt>
	<trkpt lat="51.75861833" lon="-1.839146667"><ele>111.000000</ele><time>2010-01-27T09:51:39Z</time></trkpt>
	<trkpt lat="51.75862167" lon="-1.839146667"><ele>111.000000</ele><time>2010-01-27T09:51:44Z</time></trkpt>
	<trkpt lat="51.758625" lon="-1.839145"><ele>112.000000</ele><time>2010-01-27T09:51:49Z</time></trkpt>
	<trkpt lat="51.75862833" lon="-1.839141667"><ele>112.000000</ele><time>2010-01-27T09:51:54Z</time></trkpt>
	<trkpt lat="51.75863333" lon="-1.83914"><ele>112.000000</ele><time>2010-01-27T09:51:59Z</time></trkpt>
	<trkpt lat="51.75863667" lon="-1.83914"><ele>112.000000</ele><time>2010-01-27T09:52:04Z</time></trkpt>
	<trkpt lat="51.75864" lon="-1.839138333"><ele>112.000000</ele><time>2010-01-27T09:52:09Z</time></trkpt>
	<trkpt lat="51.75864333" lon="-1.839138333"><ele>113.000000</ele><time>2010-01-27T09:52:14Z</time></trkpt>
	<trkpt lat="51.75864667" lon="-1.839136667"><ele>113.000000</ele><time>2010-01-27T09:52:19Z</time></trkpt>
	<trkpt lat="51.75864833" lon="-1.839133333"><ele>113.000000</ele><time>2010-01-27T09:52:24Z</time></trkpt>
	<trkpt lat="51.75865333" lon="-1.839133333"><ele>113.000000</ele><time>2010-01-27T09:52:29Z</time></trkpt>
	<trkpt lat="51.75865833" lon="-1.839138333"><ele>114.000000</ele><time>2010-01-27T09:52:34Z</time></trkpt>
	<trkpt lat="51.758665" lon="-1.839141667"><ele>115.000000</ele><time>2010-01-27T09:52:39Z</time></trkpt>
	<trkpt lat="51.75867" lon="-1.839143333"><ele>116.000000</ele><time>2010-01-27T09:52:44Z</time></trkpt>
	<trkpt lat="51.758675" lon="-1.839146667"><ele>117.000000</ele><time>2010-01-27T09:52:49Z</time></trkpt>
	<trkpt lat="51.75867833" lon="-1.839146667"><ele>117.000000</ele><time>2010-01-27T09:52:54Z</time></trkpt>
	<trkpt lat="51.75868" lon="-1.839151667"><ele>118.000000</ele><time>2010-01-27T09:52:59Z</time></trkpt>
	<trkpt lat="51.75867333" lon="-1.839158333"><ele>119.000000</ele><time>2010-01-27T09:53:04Z</time></trkpt>
	<trkpt lat="51.75867" lon="-1.839161667"><ele>120.000000</ele><time>2010-01-27T09:53:09Z</time></trkpt>
	<trkpt lat="51.75866833" lon="-1.839161667"><ele>120.000000</ele><time>2010-01-27T09:53:14Z</time></trkpt>
	<trkpt lat="51.75866667" lon="-1.839165"><ele>120.000000</ele><time>2010-01-27T09:53:19Z</time></trkpt>
	<trkpt lat="51.758665" lon="-1.839165"><ele>121.000000</ele><time>2010-01-27T09:53:24Z</time></trkpt>
	<trkpt lat="51.75866333" lon="-1.839166667"><ele>121.000000</ele><time>2010-01-27T09:53:29Z</time></trkpt>
	<trkpt lat="51.75866167" lon="-1.839166667"><ele>121.000000</ele><time>2010-01-27T09:53:34Z</time></trkpt>
	<trkpt lat="51.75866" lon="-1.839166667"><ele>121.000000</ele><time>2010-01-27T09:53:39Z</time></trkpt>
	<trkpt lat="51.75866" lon="-1.839168333"><ele>121.000000</ele><time>2010-01-27T09:53:44Z</time></trkpt>
	<trkpt lat="51.75866167" lon="-1.83917"><ele>121.000000</ele><time>2010-01-27T09:53:49Z</time></trkpt>
	<trkpt lat="51.75866333" lon="-1.839171667"><ele>121.000000</ele><time>2010-01-27T09:53:54Z</time></trkpt>
	<trkpt lat="51.75866667" lon="-1.839175"><ele>122.000000</ele><time>2010-01-27T09:53:59Z</time></trkpt>
	<trkpt lat="51.75867" lon="-1.839178333"><ele>122.000000</ele><time>2010-01-27T09:54:04Z</time></trkpt>
	<trkpt lat="51.75867333" lon="-1.839181667"><ele>123.000000</ele><time>2010-01-27T09:54:09Z</time></trkpt>
	<trkpt lat="51.75867667" lon="-1.839183333"><ele>123.000000</ele><time>2010-01-27T09:54:14Z</time></trkpt>
	<trkpt lat="51.75867833" lon="-1.839185"><ele>124.000000</ele><time>2010-01-27T09:54:19Z</time></trkpt>
	<trkpt lat="51.75868167" lon="-1.839185"><ele>124.000000</ele><time>2010-01-27T09:54:24Z</time></trkpt>
	<trkpt lat="51.75868333" lon="-1.839186667"><ele>124.000000</ele><time>2010-01-27T09:54:29Z</time></trkpt>
	<trkpt lat="51.758685" lon="-1.839188333"><ele>124.000000</ele><time>2010-01-27T09:54:34Z</time></trkpt>
	<trkpt lat="51.75868667" lon="-1.83919"><ele>125.000000</ele><time>2010-01-27T09:54:39Z</time></trkpt>
	<trkpt lat="51.75868667" lon="-1.83919"><ele>125.000000</ele><time>2010-01-27T09:54:44Z</time></trkpt>
	<trkpt lat="51.75868833" lon="-1.83919"><ele>125.000000</ele><time>2010-01-27T09:54:49Z</time></trkpt>
	<trkpt lat="51.75868833" lon="-1.83919"><ele>125.000000</ele><time>2010-01-27T09:54:54Z</time></trkpt>
	<trkpt lat="51.75868667" lon="-1.83919"><ele>125.000000</ele><time>2010-01-27T09:54:59Z</time></trkpt>
	<trkpt lat="51.75868667" lon="-1.83919"><ele>124.000000</ele><time>2010-01-27T09:55:04Z</time></trkpt>
	<trkpt lat="51.75868667" lon="-1.839188333"><ele>124.000000</ele><time>2010-01-27T09:55:09Z</time></trkpt>
	<trkpt lat="51.75868667" lon="-1.839188333"><ele>124.000000</ele><time>2010-01-27T09:55:14Z</time></trkpt>
	<trkpt lat="51.75868667" lon="-1.839188333"><ele>124.000000</ele><time>2010-01-27T09:55:19Z</time></trkpt>
	<trkpt lat="51.75868667" lon="-1.839188333"><ele>124.000000</ele><time>2010-01-27T09:55:24Z</time></trkpt>
	<trkpt lat="51.758685" lon="-1.839188333"><ele>124.000000</ele><time>2010-01-27T09:55:29Z</time></trkpt>
	<trkpt lat="51.758685" lon="-1.839188333"><ele>123.000000</ele><time>2010-01-27T09:55:34Z</time></trkpt>
	<trkpt lat="51.75868333" lon="-1.839186667"><ele>123.000000</ele><time>2010-01-27T09:55:39Z</time></trkpt>
	<trkpt lat="51.75868" lon="-1.839186667"><ele>123.000000</ele><time>2010-01-27T09:55:44Z</time></trkpt>
	<trkpt lat="51.75868" lon="-1.839185"><ele>123.000000</ele><time>2010-01-27T09:55:49Z</time></trkpt>
	<trkpt lat="51.75867833" lon="-1.839185"><ele>122.000000</ele><time>2010-01-27T09:55:54Z</time></trkpt>
	<trkpt lat="51.75867833" lon="-1.839186667"><ele>122.000000</ele><time>2010-01-27T09:55:59Z</time></trkpt>
	<trkpt lat="51.75867667" lon="-1.839186667"><ele>122.000000</ele><time>2010-01-27T09:56:04Z</time></trkpt>
	<trkpt lat="51.75867667" lon="-1.839188333"><ele>122.000000</ele><time>2010-01-27T09:56:09Z</time></trkpt>
	<trkpt lat="51.75867667" lon="-1.839188333"><ele>122.000000</ele><time>2010-01-27T09:56:14Z</time></trkpt>
	<trkpt lat="51.75867667" lon="-1.83919"><ele>122.000000</ele><time>2010-01-27T09:56:19Z</time></trkpt>
	<trkpt lat="51.75867667" lon="-1.83919"><ele>122.000000</ele><time>2010-01-27T09:56:24Z</time></trkpt>
	<trkpt lat="51.758675" lon="-1.83919"><ele>122.000000</ele><time>2010-01-27T09:56:29Z</time></trkpt>
	<trkpt lat="51.758675" lon="-1.83919"><ele>122.000000</ele><time>2010-01-27T09:56:34Z</time></trkpt>
	<trkpt lat="51.75867333" lon="-1.83919"><ele>121.000000</ele><time>2010-01-27T09:56:39Z</time></trkpt>
	<trkpt lat="51.758675" lon="-1.839193333"><ele>121.000000</ele><time>2010-01-27T09:56:44Z</time></trkpt>
	<trkpt lat="51.75867333" lon="-1.839193333"><ele>121.000000</ele><time>2010-01-27T09:56:49Z</time></trkpt>
	<trkpt lat="51.75867333" lon="-1.839193333"><ele>121.000000</ele><time>2010-01-27T09:56:54Z</time></trkpt>
	<trkpt lat="51.75867333" lon="-1.839193333"><ele>121.000000</ele><time>2010-01-27T09:56:59Z</time></trkpt>
	<trkpt lat="51.75867167" lon="-1.839195"><ele>120.000000</ele><time>2010-01-27T09:57:04Z</time></trkpt>
	<trkpt lat="51.75867167" lon="-1.839195"><ele>120.000000</ele><time>2010-01-27T09:57:09Z</time></trkpt>
	<trkpt lat="51.75867167" lon="-1.839195"><ele>120.000000</ele><time>2010-01-27T09:57:14Z</time></trkpt>
	<trkpt lat="51.75867333" lon="-1.839196667"><ele>120.000000</ele><time>2010-01-27T09:57:19Z</time></trkpt>
	<trkpt lat="51.75867333" lon="-1.839196667"><ele>120.000000</ele><time>2010-01-27T09:57:24Z</time></trkpt>
	<trkpt lat="51.75867333" lon="-1.839196667"><ele>120.000000</ele><time>2010-01-27T09:57:29Z</time></trkpt>
	<trkpt lat="51.75867333" lon="-1.839196667"><ele>120.000000</ele><time>2010-01-27T09:57:34Z</time></trkpt>
	<trkpt lat="51.75867333" lon="-1.839196667"><ele>119.000000</ele><time>2010-01-27T09:57:39Z</time></trkpt>
	<trkpt lat="51.75867167" lon="-1.839196667"><ele>119.000000</ele><time>2010-01-27T09:57:44Z</time></trkpt>
	<trkpt lat="51.75867167" lon="-1.839196667"><ele>119.000000</ele><time>2010-01-27T09:57:49Z</time></trkpt>
	<trkpt lat="51.75867" lon="-1.839193333"><ele>118.000000</ele><time>2010-01-27T09:57:54Z</time></trkpt>
	<trkpt lat="51.75866833" lon="-1.839195"><ele>118.000000</ele><time>2010-01-27T09:57:59Z</time></trkpt>
	<trkpt lat="51.75866667" lon="-1.839193333"><ele>117.000000</ele><time>2010-01-27T09:58:04Z</time></trkpt>
	<trkpt lat="51.75866667" lon="-1.839193333"><ele>117.000000</ele><time>2010-01-27T09:58:09Z</time></trkpt>
	<trkpt lat="51.75866333" lon="-1.83919"><ele>116.000000</ele><time>2010-01-27T09:58:14Z</time></trkpt>
	<trkpt lat="51.75866167" lon="-1.839193333"><ele>116.000000</ele><time>2010-01-27T09:58:19Z</time></trkpt>
	<trkpt lat="51.75865833" lon="-1.839196667"><ele>116.000000</ele><time>2010-01-27T09:58:24Z</time></trkpt>
	<trkpt lat="51.758655" lon="-1.839198333"><ele>116.000000</ele><time>2010-01-27T09:58:29Z</time></trkpt>
	<trkpt lat="51.75865167" lon="-1.839201667"><ele>116.000000</ele><time>2010-01-27T09:58:34Z</time></trkpt>
	<trkpt lat="51.75864833" lon="-1.839201667"><ele>116.000000</ele><time>2010-01-27T09:58:39Z</time></trkpt>
	<trkpt lat="51.75864667" lon="-1.8392"><ele>116.000000</ele><time>2010-01-27T09:58:44Z</time></trkpt>
	<trkpt lat="51.75864333" lon="-1.839201667"><ele>116.000000</ele><time>2010-01-27T09:58:49Z</time></trkpt>
	<trkpt lat="51.75864333" lon="-1.8392"><ele>116.000000</ele><time>2010-01-27T09:58:54Z</time></trkpt>
	<trkpt lat="51.75864167" lon="-1.8392"><ele>116.000000</ele><time>2010-01-27T09:58:59Z</time></trkpt>
	<trkpt lat="51.75864333" lon="-1.8392"><ele>116.000000</ele><time>2010-01-27T09:59:04Z</time></trkpt>
	<trkpt lat="51.75864167" lon="-1.839196667"><ele>117.000000</ele><time>2010-01-27T09:59:09Z</time></trkpt>
	<trkpt lat="51.75864333" lon="-1.839198333"><ele>117.000000</ele><time>2010-01-27T09:59:14Z</time></trkpt>
	<trkpt lat="51.75864167" lon="-1.839195"><ele>117.000000</ele><time>2010-01-27T09:59:19Z</time></trkpt>
	<trkpt lat="51.75864167" lon="-1.839196667"><ele>117.000000</ele><time>2010-01-27T09:59:24Z</time></trkpt>
	<trkpt lat="51.75864" lon="-1.8392"><ele>117.000000</ele><time>2010-01-27T09:59:29Z</time></trkpt>
	<trkpt lat="51.75864" lon="-1.839201667"><ele>118.000000</ele><time>2010-01-27T09:59:34Z</time></trkpt>
	<trkpt lat="51.75864" lon="-1.839203333"><ele>118.000000</ele><time>2010-01-27T09:59:39Z</time></trkpt>
	<trkpt lat="51.75864167" lon="-1.839205"><ele>118.000000</ele><time>2010-01-27T09:59:44Z</time></trkpt>
	<trkpt lat="51.75864333" lon="-1.839208333"><ele>118.000000</ele><time>2010-01-27T09:59:49Z</time></trkpt>
	<trkpt lat="51.75864333" lon="-1.839213333"><ele>118.000000</ele><time>2010-01-27T09:59:54Z</time></trkpt>
	<trkpt lat="51.75864667" lon="-1.839215"><ele>118.000000</ele><time>2010-01-27T09:59:59Z</time></trkpt>
	<trkpt lat="51.75863667" lon="-1.83921"><ele>118.000000</ele><time>2010-01-27T10:00:05Z</time></trkpt>
	<trkpt lat="51.75862833" lon="-1.839205"><ele>117.000000</ele><time>2010-01-27T10:00:10Z</time></trkpt>
	<trkpt lat="51.75862333" lon="-1.839203333"><ele>117.000000</ele><time>2010-01-27T10:00:15Z</time></trkpt>
	<trkpt lat="51.75861667" lon="-1.8392"><ele>116.000000</ele><time>2010-01-27T10:00:20Z</time></trkpt>
	<trkpt lat="51.75861333" lon="-1.8392"><ele>116.000000</ele><time>2010-01-27T10:00:25Z</time></trkpt>
	<trkpt lat="51.75861" lon="-1.839196667"><ele>116.000000</ele><time>2010-01-27T10:00:30Z</time></trkpt>
	<trkpt lat="51.75860667" lon="-1.839195"><ele>115.000000</ele><time>2010-01-27T10:00:35Z</time></trkpt>
	<trkpt lat="51.75860333" lon="-1.839193333"><ele>115.000000</ele><time>2010-01-27T10:00:40Z</time></trkpt>
	<trkpt lat="51.75859833" lon="-1.839193333"><ele>115.000000</ele><time>2010-01-27T10:00:45Z</time></trkpt>
	<trkpt lat="51.75859833" lon="-1.839193333"><ele>115.000000</ele><time>2010-01-27T10:00:50Z</time></trkpt>
	<trkpt lat="51.75859833" lon="-1.839193333"><ele>115.000000</ele><time>2010-01-27T10:00:55Z</time></trkpt>
	<trkpt lat="51.75859833" lon="-1.839195"><ele>115.000000</ele><time>2010-01-27T10:01:00Z</time></trkpt>
	<trkpt lat="51.75859667" lon="-1.839195"><ele>115.000000</ele><time>2010-01-27T10:01:05Z</time></trkpt>
	<trkpt lat="51.758595" lon="-1.839196667"><ele>115.000000</ele><time>2010-01-27T10:01:10Z</time></trkpt>
	<trkpt lat="51.758595" lon="-1.839198333"><ele>115.000000</ele><time>2010-01-27T10:01:15Z</time></trkpt>
	<trkpt lat="51.75859167" lon="-1.8392"><ele>114.000000</ele><time>2010-01-27T10:01:20Z</time></trkpt>
	<trkpt lat="51.75859" lon="-1.839201667"><ele>114.000000</ele><time>2010-01-27T10:01:25Z</time></trkpt>
	<trkpt lat="51.75858833" lon="-1.839205"><ele>114.000000</ele><time>2010-01-27T10:01:30Z</time></trkpt>
	<trkpt lat="51.75858667" lon="-1.839206667"><ele>115.000000</ele><time>2010-01-27T10:01:35Z</time></trkpt>
	<trkpt lat="51.75858333" lon="-1.839206667"><ele>115.000000</ele><time>2010-01-27T10:01:40Z</time></trkpt>
	<trkpt lat="51.75858167" lon="-1.839206667"><ele>115.000000</ele><time>2010-01-27T10:01:45Z</time></trkpt>
	<trkpt lat="51.75858" lon="-1.839205"><ele>115.000000</ele><time>2010-01-27T10:01:50Z</time></trkpt>
	<trkpt lat="51.75858" lon="-1.839203333"><ele>115.000000</ele><time>2010-01-27T10:01:55Z</time></trkpt>
	<trkpt lat="51.75858" lon="-1.839201667"><ele>115.000000</ele><time>2010-01-27T10:02:00Z</time></trkpt>
	<trkpt lat="51.75857833" lon="-1.839203333"><ele>115.000000</ele><time>2010-01-27T10:02:05Z</time></trkpt>
	<trkpt lat="51.758575" lon="-1.839206667"><ele>116.000000</ele><time>2010-01-27T10:02:10Z</time></trkpt>
	<trkpt lat="51.758575" lon="-1.839206667"><ele>116.000000</ele><time>2010-01-27T10:02:15Z</time></trkpt>
	<trkpt lat="51.758575" lon="-1.839206667"><ele>116.000000</ele><time>2010-01-27T10:02:20Z</time></trkpt>
	<trkpt lat="51.758575" lon="-1.839206667"><ele>117.000000</ele><time>2010-01-27T10:02:25Z</time></trkpt>
	<trkpt lat="51.758575" lon="-1.839206667"><ele>117.000000</ele><time>2010-01-27T10:02:30Z</time></trkpt>
	<trkpt lat="51.75857667" lon="-1.839206667"><ele>117.000000</ele><time>2010-01-27T10:02:35Z</time></trkpt>
	<trkpt lat="51.75857667" lon="-1.839208333"><ele>118.000000</ele><time>2010-01-27T10:02:40Z</time></trkpt>
	<trkpt lat="51.75857333" lon="-1.839211667"><ele>118.000000</ele><time>2010-01-27T10:02:45Z</time></trkpt>
	<trkpt lat="51.75857167" lon="-1.839213333"><ele>118.000000</ele><time>2010-01-27T10:02:52Z</time></trkpt>
	<trkpt lat="51.75858167" lon="-1.839205"><ele>118.000000</ele><time>2010-01-27T10:02:57Z</time></trkpt>
	<trkpt lat="51.758595" lon="-1.839205"><ele>119.000000</ele><time>2010-01-27T10:03:02Z</time></trkpt>
	<trkpt lat="51.758595" lon="-1.839201667"><ele>119.000000</ele><time>2010-01-27T10:03:07Z</time></trkpt>
	<trkpt lat="51.75859833" lon="-1.8392"><ele>119.000000</ele><time>2010-01-27T10:03:12Z</time></trkpt>
	<trkpt lat="51.75859667" lon="-1.839195"><ele>119.000000</ele><time>2010-01-27T10:03:17Z</time></trkpt>
	<trkpt lat="51.758595" lon="-1.83919"><ele>119.000000</ele><time>2010-01-27T10:03:22Z</time></trkpt>
	<trkpt lat="51.75859667" lon="-1.83919"><ele>119.000000</ele><time>2010-01-27T10:03:27Z</time></trkpt>
	<trkpt lat="51.75860167" lon="-1.839193333"><ele>120.000000</ele><time>2010-01-27T10:03:32Z</time></trkpt>
	<trkpt lat="51.75860167" lon="-1.83919"><ele>119.000000</ele><time>2010-01-27T10:03:37Z</time></trkpt>
	<trkpt lat="51.758595" lon="-1.839175"><ele>115.000000</ele><time>2010-01-27T10:03:42Z</time></trkpt>
	<trkpt lat="51.75858" lon="-1.839168333"><ele>113.000000</ele><time>2010-01-27T10:03:47Z</time></trkpt>
	<trkpt lat="51.75857333" lon="-1.83917"><ele>112.000000</ele><time>2010-01-27T10:03:52Z</time></trkpt>
	<trkpt lat="51.75857333" lon="-1.83916"><ele>110.000000</ele><time>2010-01-27T10:03:57Z</time></trkpt>
	<trkpt lat="51.75857167" lon="-1.839158333"><ele>110.000000</ele><time>2010-01-27T10:04:02Z</time></trkpt>
	<trkpt lat="51.758575" lon="-1.83916"><ele>111.000000</ele><time>2010-01-27T10:04:07Z</time></trkpt>
	<trkpt lat="51.75858333" lon="-1.839165"><ele>112.000000</ele><time>2010-01-27T10:04:12Z</time></trkpt>
	<trkpt lat="51.75859333" lon="-1.839168333"><ele>113.000000</ele><time>2010-01-27T10:04:17Z</time></trkpt>
	<trkpt lat="51.75859833" lon="-1.839171667"><ele>114.000000</ele><time>2010-01-27T10:04:22Z</time></trkpt>
	<trkpt lat="51.75859833" lon="-1.83917"><ele>113.000000</ele><time>2010-01-27T10:04:27Z</time></trkpt>
	<trkpt lat="51.75859667" lon="-1.83917"><ele>114.000000</ele><time>2010-01-27T10:04:32Z</time></trkpt>
	<trkpt lat="51.75859667" lon="-1.839173333"><ele>115.000000</ele><time>2010-01-27T10:04:37Z</time></trkpt>
	<trkpt lat="51.75858333" lon="-1.839161667"><ele>112.000000</ele><time>2010-01-27T10:04:42Z</time></trkpt>
	<trkpt lat="51.75858167" lon="-1.839156667"><ele>111.000000</ele><time>2010-01-27T10:04:47Z</time></trkpt>
	<trkpt lat="51.75858667" lon="-1.839165"><ele>112.000000</ele><time>2010-01-27T10:04:52Z</time></trkpt>
	<trkpt lat="51.75859333" lon="-1.839171667"><ele>112.000000</ele><time>2010-01-27T10:04:57Z</time></trkpt>
	<trkpt lat="51.75858833" lon="-1.839186667"><ele>112.000000</ele><time>2010-01-27T10:05:02Z</time></trkpt>
	<trkpt lat="51.75860667" lon="-1.83919"><ele>114.000000</ele><time>2010-01-27T10:05:07Z</time></trkpt>
	<trkpt lat="51.75862" lon="-1.839208333"><ele>115.000000</ele><time>2010-01-27T10:05:12Z</time></trkpt>
	<trkpt lat="51.75863333" lon="-1.839215"><ele>117.000000</ele><time>2010-01-27T10:05:17Z</time></trkpt>
	<trkpt lat="51.75864667" lon="-1.839221667"><ele>119.000000</ele><time>2010-01-27T10:05:22Z</time></trkpt>
	<trkpt lat="51.75867333" lon="-1.839233333"><ele>120.000000</ele><time>2010-01-27T10:05:27Z</time></trkpt>
	<trkpt lat="51.75869833" lon="-1.839261667"><ele>121.000000</ele><time>2010-01-27T10:05:32Z</time></trkpt>
	<trkpt lat="51.75871667" lon="-1.83929"><ele>122.000000</ele><time>2010-01-27T10:05:37Z</time></trkpt>
	<trkpt lat="51.75873833" lon="-1.839318333"><ele>123.000000</ele><time>2010-01-27T10:05:42Z</time></trkpt>
	<trkpt lat="51.75876333" lon="-1.839346667"><ele>124.000000</ele><time>2010-01-27T10:05:47Z</time></trkpt>
	<trkpt lat="51.758795" lon="-1.839371667"><ele>124.000000</ele><time>2010-01-27T10:05:52Z</time></trkpt>
	<trkpt lat="51.75883" lon="-1.839388333"><ele>125.000000</ele><time>2010-01-27T10:05:57Z</time></trkpt>
	<trkpt lat="51.75885333" lon="-1.83935"><ele>127.000000</ele><time>2010-01-27T10:06:02Z</time></trkpt>
	<trkpt lat="51.75888167" lon="-1.839296667"><ele>127.000000</ele><time>2010-01-27T10:06:07Z</time></trkpt>
	<trkpt lat="51.75891833" lon="-1.839246667"><ele>129.000000</ele><time>2010-01-27T10:06:12Z</time></trkpt>
	<trkpt lat="51.758955" lon="-1.839201667"><ele>129.000000</ele><time>2010-01-27T10:06:17Z</time></trkpt>
	<trkpt lat="51.75898" lon="-1.839156667"><ele>130.000000</ele><time>2010-01-27T10:06:22Z</time></trkpt>
	<trkpt lat="51.75901333" lon="-1.8391"><ele>130.000000</ele><time>2010-01-27T10:06:27Z</time></trkpt>
	<trkpt lat="51.75904333" lon="-1.839026667"><ele>129.000000</ele><time>2010-01-27T10:06:32Z</time></trkpt>
	<trkpt lat="51.75906333" lon="-1.838951667"><ele>129.000000</ele><time>2010-01-27T10:06:37Z</time></trkpt>
	<trkpt lat="51.75907667" lon="-1.838866667"><ele>128.000000</ele><time>2010-01-27T10:06:42Z</time></trkpt>
	<trkpt lat="51.75909333" lon="-1.83879"><ele>128.000000</ele><time>2010-01-27T10:06:47Z</time></trkpt>
	<trkpt lat="51.759125" lon="-1.838715"><ele>127.000000</ele><time>2010-01-27T10:06:52Z</time></trkpt>
	<trkpt lat="51.75914333" lon="-1.838645"><ele>127.000000</ele><time>2010-01-27T10:06:57Z</time></trkpt>
	<trkpt lat="51.75919667" lon="-1.83857"><ele>125.000000</ele><time>2010-01-27T10:07:02Z</time></trkpt>
	<trkpt lat="51.75922833" lon="-1.838505"><ele>125.000000</ele><time>2010-01-27T10:07:07Z</time></trkpt>
	<trkpt lat="51.75926333" lon="-1.83843"><ele>124.000000</ele><time>2010-01-27T10:07:12Z</time></trkpt>
	<trkpt lat="51.75932" lon="-1.838376667"><ele>125.000000</ele><time>2010-01-27T10:07:17Z</time></trkpt>
	<trkpt lat="51.75938167" lon="-1.838361667"><ele>126.000000</ele><time>2010-01-27T10:07:22Z</time></trkpt>
	<trkpt lat="51.759425" lon="-1.838348333"><ele>126.000000</ele><time>2010-01-27T10:07:27Z</time></trkpt>
	<trkpt lat="51.759435" lon="-1.83832"><ele>126.000000</ele><time>2010-01-27T10:07:32Z</time></trkpt>
	<trkpt lat="51.75942833" lon="-1.838268333"><ele>125.000000</ele><time>2010-01-27T10:07:37Z</time></trkpt>
	<trkpt lat="51.75941833" lon="-1.838283333"><ele>122.000000</ele><time>2010-01-27T10:07:42Z</time></trkpt>
	<trkpt lat="51.75943333" lon="-1.838261667"><ele>122.000000</ele><time>2010-01-27T10:07:47Z</time></trkpt>
	<trkpt lat="51.75945" lon="-1.838215"><ele>123.000000</ele><time>2010-01-27T10:07:52Z</time></trkpt>
	<trkpt lat="51.75946" lon="-1.838183333"><ele>127.000000</ele><time>2010-01-27T10:07:57Z</time></trkpt>
	<trkpt lat="51.759495" lon="-1.838113333"><ele>129.000000</ele><time>2010-01-27T10:08:02Z</time></trkpt>
	<trkpt lat="51.75952333" lon="-1.838033333"><ele>130.000000</ele><time>2010-01-27T10:08:07Z</time></trkpt>
	<trkpt lat="51.75953833" lon="-1.837981667"><ele>131.000000</ele><time>2010-01-27T10:08:12Z</time></trkpt>
	<trkpt lat="51.75957833" lon="-1.83793"><ele>130.000000</ele><time>2010-01-27T10:08:17Z</time></trkpt>
	<trkpt lat="51.75959833" lon="-1.837868333"><ele>129.000000</ele><time>2010-01-27T10:08:22Z</time></trkpt>
	<trkpt lat="51.75962833" lon="-1.837805"><ele>130.000000</ele><time>2010-01-27T10:08:27Z</time></trkpt>
	<trkpt lat="51.759655" lon="-1.837723333"><ele>129.000000</ele><time>2010-01-27T10:08:32Z</time></trkpt>
	<trkpt lat="51.75969167" lon="-1.83764"><ele>130.000000</ele><time>2010-01-27T10:08:37Z</time></trkpt>
	<trkpt lat="51.75970667" lon="-1.837578333"><ele>131.000000</ele><time>2010-01-27T10:08:42Z</time></trkpt>
	<trkpt lat="51.75974" lon="-1.83752"><ele>131.000000</ele><time>2010-01-27T10:08:47Z</time></trkpt>
	<trkpt lat="51.75977833" lon="-1.837466667"><ele>132.000000</ele><time>2010-01-27T10:08:52Z</time></trkpt>
	<trkpt lat="51.75979667" lon="-1.837416667"><ele>133.000000</ele><time>2010-01-27T10:08:57Z</time></trkpt>
	<trkpt lat="51.759825" lon="-1.83736"><ele>134.000000</ele><time>2010-01-27T10:09:02Z</time></trkpt>
	<trkpt lat="51.75983667" lon="-1.837296667"><ele>133.000000</ele><time>2010-01-27T10:09:07Z</time></trkpt>
	<trkpt lat="51.75990667" lon="-1.837195"><ele>129.000000</ele><time>2010-01-27T10:09:12Z</time></trkpt>
	<trkpt lat="51.759955" lon="-1.837095"><ele>125.000000</ele><time>2010-01-27T10:09:17Z</time></trkpt>
	<trkpt lat="51.75999" lon="-1.836998333"><ele>124.000000</ele><time>2010-01-27T10:09:22Z</time></trkpt>
	<trkpt lat="51.76001833" lon="-1.836928333"><ele>122.000000</ele><time>2010-01-27T10:09:27Z</time></trkpt>
	<trkpt lat="51.76003667" lon="-1.836835"><ele>119.000000</ele><time>2010-01-27T10:09:32Z</time></trkpt>
	<trkpt lat="51.760055" lon="-1.836743333"><ele>116.000000</ele><time>2010-01-27T10:09:37Z</time></trkpt>
	<trkpt lat="51.76006667" lon="-1.836658333"><ele>114.000000</ele><time>2010-01-27T10:09:42Z</time></trkpt>
	<trkpt lat="51.76009667" lon="-1.836588333"><ele>113.000000</ele><time>2010-01-27T10:09:47Z</time></trkpt>
	<trkpt lat="51.76014833" lon="-1.836526667"><ele>113.000000</ele><time>2010-01-27T10:09:52Z</time></trkpt>
	<trkpt lat="51.76018667" lon="-1.836455"><ele>112.000000</ele><time>2010-01-27T10:09:57Z</time></trkpt>
	<trkpt lat="51.76025" lon="-1.836403333"><ele>115.000000</ele><time>2010-01-27T10:10:02Z</time></trkpt>
	<trkpt lat="51.76025833" lon="-1.836308333"><ele>114.000000</ele><time>2010-01-27T10:10:07Z</time></trkpt>
	<trkpt lat="51.76021167" lon="-1.836235"><ele>114.000000</ele><time>2010-01-27T10:10:12Z</time></trkpt>
	<trkpt lat="51.76015667" lon="-1.836156667"><ele>113.000000</ele><time>2010-01-27T10:10:17Z</time></trkpt>
	<trkpt lat="51.76011" lon="-1.836081667"><ele>112.000000</ele><time>2010-01-27T10:10:22Z</time></trkpt>
	<trkpt lat="51.76007167" lon="-1.836008333"><ele>111.000000</ele><time>2010-01-27T10:10:27Z</time></trkpt>
	<trkpt lat="51.76004" lon="-1.835945"><ele>111.000000</ele><time>2010-01-27T10:10:32Z</time></trkpt>
	<trkpt lat="51.76000667" lon="-1.835883333"><ele>111.000000</ele><time>2010-01-27T10:10:37Z</time></trkpt>
	<trkpt lat="51.759955" lon="-1.835818333"><ele>108.000000</ele><time>2010-01-27T10:10:42Z</time></trkpt>
	<trkpt lat="51.75990167" lon="-1.835763333"><ele>106.000000</ele><time>2010-01-27T10:10:47Z</time></trkpt>
	<trkpt lat="51.759865" lon="-1.835708333"><ele>105.000000</ele><time>2010-01-27T10:10:52Z</time></trkpt>
	<trkpt lat="51.75983667" lon="-1.835673333"><ele>108.000000</ele><time>2010-01-27T10:10:57Z</time></trkpt>
	<trkpt lat="51.75977833" lon="-1.835621667"><ele>106.000000</ele><time>2010-01-27T10:11:02Z</time></trkpt>
	<trkpt lat="51.75971667" lon="-1.83558"><ele>105.000000</ele><time>2010-01-27T10:11:07Z</time></trkpt>
	<trkpt lat="51.75966167" lon="-1.83555"><ele>103.000000</ele><time>2010-01-27T10:11:12Z</time></trkpt>
	<trkpt lat="51.75962" lon="-1.835533333"><ele>103.000000</ele><time>2010-01-27T10:11:17Z</time></trkpt>
	<trkpt lat="51.75957833" lon="-1.835511667"><ele>103.000000</ele><time>2010-01-27T10:11:22Z</time></trkpt>
	<trkpt lat="51.75954167" lon="-1.835486667"><ele>103.000000</ele><time>2010-01-27T10:11:27Z</time></trkpt>
	<trkpt lat="51.75949333" lon="-1.835456667"><ele>104.000000</ele><time>2010-01-27T10:11:32Z</time></trkpt>
	<trkpt lat="51.759445" lon="-1.835435"><ele>105.000000</ele><time>2010-01-27T10:11:37Z</time></trkpt>
	<trkpt lat="51.75940833" lon="-1.835416667"><ele>106.000000</ele><time>2010-01-27T10:11:42Z</time></trkpt>
	<trkpt lat="51.75939833" lon="-1.835406667"><ele>107.000000</ele><time>2010-01-27T10:11:47Z</time></trkpt>
	<trkpt lat="51.759345" lon="-1.835376667"><ele>108.000000</ele><time>2010-01-27T10:11:52Z</time></trkpt>
	<trkpt lat="51.75930333" lon="-1.835343333"><ele>109.000000</ele><time>2010-01-27T10:11:57Z</time></trkpt>
	<trkpt lat="51.75926333" lon="-1.835308333"><ele>111.000000</ele><time>2010-01-27T10:12:02Z</time></trkpt>
	<trkpt lat="51.759205" lon="-1.835286667"><ele>110.000000</ele><time>2010-01-27T10:12:07Z</time></trkpt>
	<trkpt lat="51.75915167" lon="-1.835271667"><ele>109.000000</ele><time>2010-01-27T10:12:12Z</time></trkpt>
	<trkpt lat="51.75912167" lon="-1.835263333"><ele>110.000000</ele><time>2010-01-27T10:12:17Z</time></trkpt>
	<trkpt lat="51.759075" lon="-1.835248333"><ele>110.000000</ele><time>2010-01-27T10:12:22Z</time></trkpt>
	<trkpt lat="51.759025" lon="-1.835228333"><ele>110.000000</ele><time>2010-01-27T10:12:27Z</time></trkpt>
	<trkpt lat="51.75896" lon="-1.835206667"><ele>110.000000</ele><time>2010-01-27T10:12:32Z</time></trkpt>
	<trkpt lat="51.75891167" lon="-1.835208333"><ele>110.000000</ele><time>2010-01-27T10:12:37Z</time></trkpt>
	<trkpt lat="51.758875" lon="-1.835165"><ele>111.000000</ele><time>2010-01-27T10:12:42Z</time></trkpt>
	<trkpt lat="51.75884167" lon="-1.83513"><ele>113.000000</ele><time>2010-01-27T10:12:47Z</time></trkpt>
	<trkpt lat="51.75878167" lon="-1.835095"><ele>116.000000</ele><time>2010-01-27T10:12:52Z</time></trkpt>
	<trkpt lat="51.75876" lon="-1.835066667"><ele>119.000000</ele><time>2010-01-27T10:12:57Z</time></trkpt>
	<trkpt lat="51.75871" lon="-1.835023333"><ele>116.000000</ele><time>2010-01-27T10:13:02Z</time></trkpt>
	<trkpt lat="51.75868833" lon="-1.83496"><ele>115.000000</ele><time>2010-01-27T10:13:07Z</time></trkpt>
	<trkpt lat="51.75867167" lon="-1.83488"><ele>114.000000</ele><time>2010-01-27T10:13:12Z</time></trkpt>
	<trkpt lat="51.75868" lon="-1.834801667"><ele>114.000000</ele><time>2010-01-27T10:13:17Z</time></trkpt>
	<trkpt lat="51.75868333" lon="-1.834726667"><ele>115.000000</ele><time>2010-01-27T10:13:22Z</time></trkpt>
	<trkpt lat="51.75868833" lon="-1.834643333"><ele>116.000000</ele><time>2010-01-27T10:13:27Z</time></trkpt>
	<trkpt lat="51.7587" lon="-1.834558333"><ele>116.000000</ele><time>2010-01-27T10:13:32Z</time></trkpt>
	<trkpt lat="51.75869667" lon="-1.83447"><ele>117.000000</ele><time>2010-01-27T10:13:37Z</time></trkpt>
	<trkpt lat="51.75868667" lon="-1.834376667"><ele>117.000000</ele><time>2010-01-27T10:13:42Z</time></trkpt>
	<trkpt lat="51.75867833" lon="-1.834291667"><ele>117.000000</ele><time>2010-01-27T10:13:47Z</time></trkpt>
	<trkpt lat="51.75867333" lon="-1.83421"><ele>118.000000</ele><time>2010-01-27T10:13:52Z</time></trkpt>
	<trkpt lat="51.75867333" lon="-1.834151667"><ele>120.000000</ele><time>2010-01-27T10:13:57Z</time></trkpt>
	<trkpt lat="51.75869" lon="-1.834096667"><ele>120.000000</ele><time>2010-01-27T10:14:02Z</time></trkpt>
	<trkpt lat="51.75871667" lon="-1.834053333"><ele>121.000000</ele><time>2010-01-27T10:14:07Z</time></trkpt>
	<trkpt lat="51.758745" lon="-1.834006667"><ele>121.000000</ele><time>2010-01-27T10:14:12Z</time></trkpt>
	<trkpt lat="51.75875333" lon="-1.833921667"><ele>118.000000</ele><time>2010-01-27T10:14:17Z</time></trkpt>
	<trkpt lat="51.75877" lon="-1.833841667"><ele>117.000000</ele><time>2010-01-27T10:14:22Z</time></trkpt>
	<trkpt lat="51.75876667" lon="-1.83379"><ele>116.000000</ele><time>2010-01-27T10:14:27Z</time></trkpt>
	<trkpt lat="51.758765" lon="-1.833758333"><ele>115.000000</ele><time>2010-01-27T10:14:32Z</time></trkpt>
	<trkpt lat="51.75875833" lon="-1.833738333"><ele>114.000000</ele><time>2010-01-27T10:14:37Z</time></trkpt>
	<trkpt lat="51.75875" lon="-1.833723333"><ele>113.000000</ele><time>2010-01-27T10:14:42Z</time></trkpt>
	<trkpt lat="51.75874167" lon="-1.833706667"><ele>112.000000</ele><time>2010-01-27T10:14:47Z</time></trkpt>
	<trkpt lat="51.75874833" lon="-1.833636667"><ele>113.000000</ele><time>2010-01-27T10:14:52Z</time></trkpt>
	<trkpt lat="51.75869667" lon="-1.833581667"><ele>113.000000</ele><time>2010-01-27T10:14:57Z</time></trkpt>
	<trkpt lat="51.75864833" lon="-1.833538333"><ele>113.000000</ele><time>2010-01-27T10:15:02Z</time></trkpt>
	<trkpt lat="51.75860333" lon="-1.833486667"><ele>114.000000</ele><time>2010-01-27T10:15:07Z</time></trkpt>
	<trkpt lat="51.75855333" lon="-1.833433333"><ele>113.000000</ele><time>2010-01-27T10:15:12Z</time></trkpt>
	<trkpt lat="51.75850833" lon="-1.833381667"><ele>114.000000</ele><time>2010-01-27T10:15:17Z</time></trkpt>
	<trkpt lat="51.75846" lon="-1.833333333"><ele>113.000000</ele><time>2010-01-27T10:15:22Z</time></trkpt>
	<trkpt lat="51.758415" lon="-1.833286667"><ele>114.000000</ele><time>2010-01-27T10:15:27Z</time></trkpt>
	<trkpt lat="51.758365" lon="-1.833228333"><ele>113.000000</ele><time>2010-01-27T10:15:32Z</time></trkpt>
	<trkpt lat="51.75831667" lon="-1.833175"><ele>113.000000</ele><time>2010-01-27T10:15:37Z</time></trkpt>
	<trkpt lat="51.75826833" lon="-1.833128333"><ele>113.000000</ele><time>2010-01-27T10:15:42Z</time></trkpt>
	<trkpt lat="51.75822167" lon="-1.83308"><ele>113.000000</ele><time>2010-01-27T10:15:47Z</time></trkpt>
	<trkpt lat="51.758185" lon="-1.833036667"><ele>116.000000</ele><time>2010-01-27T10:15:52Z</time></trkpt>
	<trkpt lat="51.75814833" lon="-1.832981667"><ele>117.000000</ele><time>2010-01-27T10:15:57Z</time></trkpt>
	<trkpt lat="51.75810667" lon="-1.83293"><ele>116.000000</ele><time>2010-01-27T10:16:02Z</time></trkpt>
	<trkpt lat="51.75807" lon="-1.832865"><ele>116.000000</ele><time>2010-01-27T10:16:07Z</time></trkpt>
	<trkpt lat="51.75803667" lon="-1.832803333"><ele>115.000000</ele><time>2010-01-27T10:16:12Z</time></trkpt>
	<trkpt lat="51.75800167" lon="-1.832748333"><ele>115.000000</ele><time>2010-01-27T10:16:17Z</time></trkpt>
	<trkpt lat="51.75796833" lon="-1.832698333"><ele>117.000000</ele><time>2010-01-27T10:16:22Z</time></trkpt>
	<trkpt lat="51.75793833" lon="-1.832648333"><ele>119.000000</ele><time>2010-01-27T10:16:27Z</time></trkpt>
	<trkpt lat="51.75792167" lon="-1.832583333"><ele>121.000000</ele><time>2010-01-27T10:16:32Z</time></trkpt>
	<trkpt lat="51.75787833" lon="-1.832518333"><ele>121.000000</ele><time>2010-01-27T10:16:37Z</time></trkpt>
	<trkpt lat="51.75783167" lon="-1.832463333"><ele>121.000000</ele><time>2010-01-27T10:16:42Z</time></trkpt>
	<trkpt lat="51.75778667" lon="-1.8324"><ele>119.000000</ele><time>2010-01-27T10:16:47Z</time></trkpt>
	<trkpt lat="51.757735" lon="-1.832326667"><ele>118.000000</ele><time>2010-01-27T10:16:52Z</time></trkpt>
	<trkpt lat="51.75768167" lon="-1.832255"><ele>115.000000</ele><time>2010-01-27T10:16:57Z</time></trkpt>
	<trkpt lat="51.757645" lon="-1.832191667"><ele>115.000000</ele><time>2010-01-27T10:17:02Z</time></trkpt>
	<trkpt lat="51.757605" lon="-1.832126667"><ele>114.000000</ele><time>2010-01-27T10:17:07Z</time></trkpt>
	<trkpt lat="51.75756167" lon="-1.832066667"><ele>113.000000</ele><time>2010-01-27T10:17:12Z</time></trkpt>
	<trkpt lat="51.757525" lon="-1.831998333"><ele>112.000000</ele><time>2010-01-27T10:17:17Z</time></trkpt>
	<trkpt lat="51.75748167" lon="-1.831936667"><ele>111.000000</ele><time>2010-01-27T10:17:22Z</time></trkpt>
	<trkpt lat="51.75743667" lon="-1.831883333"><ele>109.000000</ele><time>2010-01-27T10:17:27Z</time></trkpt>
	<trkpt lat="51.75740167" lon="-1.831826667"><ele>109.000000</ele><time>2010-01-27T10:17:32Z</time></trkpt>
	<trkpt lat="51.75736833" lon="-1.831755"><ele>108.000000</ele><time>2010-01-27T10:17:37Z</time></trkpt>
	<trkpt lat="51.75734667" lon="-1.831683333"><ele>110.000000</ele><time>2010-01-27T10:17:42Z</time></trkpt>
	<trkpt lat="51.75730833" lon="-1.83161"><ele>109.000000</ele><time>2010-01-27T10:17:47Z</time></trkpt>
	<trkpt lat="51.757285" lon="-1.831533333"><ele>110.000000</ele><time>2010-01-27T10:17:52Z</time></trkpt>
	<trkpt lat="51.757275" lon="-1.831455"><ele>110.000000</ele><time>2010-01-27T10:17:57Z</time></trkpt>
	<trkpt lat="51.75724833" lon="-1.83139"><ele>110.000000</ele><time>2010-01-27T10:18:02Z</time></trkpt>
	<trkpt lat="51.75726" lon="-1.831313333"><ele>112.000000</ele><time>2010-01-27T10:18:07Z</time></trkpt>
	<trkpt lat="51.75729" lon="-1.831248333"><ele>113.000000</ele><time>2010-01-27T10:18:12Z</time></trkpt>
	<trkpt lat="51.75732667" lon="-1.831195"><ele>115.000000</ele><time>2010-01-27T10:18:17Z</time></trkpt>
	<trkpt lat="51.75735" lon="-1.831155"><ele>117.000000</ele><time>2010-01-27T10:18:22Z</time></trkpt>
	<trkpt lat="51.75739167" lon="-1.831106667"><ele>119.000000</ele><time>2010-01-27T10:18:27Z</time></trkpt>
	<trkpt lat="51.75742833" lon="-1.831045"><ele>120.000000</ele><time>2010-01-27T10:18:32Z</time></trkpt>
	<trkpt lat="51.75746167" lon="-1.830978333"><ele>121.000000</ele><time>2010-01-27T10:18:37Z</time></trkpt>
	<trkpt lat="51.757495" lon="-1.83092"><ele>122.000000</ele><time>2010-01-27T10:18:42Z</time></trkpt>
	<trkpt lat="51.75753833" lon="-1.83086"><ele>120.000000</ele><time>2010-01-27T10:18:47Z</time></trkpt>
	<trkpt lat="51.757575" lon="-1.830806667"><ele>117.000000</ele><time>2010-01-27T10:18:52Z</time></trkpt>
	<trkpt lat="51.75762" lon="-1.830785"><ele>116.000000</ele><time>2010-01-27T10:18:57Z</time></trkpt>
	<trkpt lat="51.757665" lon="-1.83077"><ele>116.000000</ele><time>2010-01-27T10:19:02Z</time></trkpt>
	<trkpt lat="51.75771167" lon="-1.830751667"><ele>115.000000</ele><time>2010-01-27T10:19:07Z</time></trkpt>
	<trkpt lat="51.75774667" lon="-1.830741667"><ele>115.000000</ele><time>2010-01-27T10:19:12Z</time></trkpt>
	<trkpt lat="51.75778667" lon="-1.830731667"><ele>116.000000</ele><time>2010-01-27T10:19:17Z</time></trkpt>
	<trkpt lat="51.75782333" lon="-1.830736667"><ele>117.000000</ele><time>2010-01-27T10:19:22Z</time></trkpt>
	<trkpt lat="51.75785667" lon="-1.830743333"><ele>117.000000</ele><time>2010-01-27T10:19:27Z</time></trkpt>
	<trkpt lat="51.7579" lon="-1.830746667"><ele>117.000000</ele><time>2010-01-27T10:19:32Z</time></trkpt>
	<trkpt lat="51.75794833" lon="-1.830743333"><ele>118.000000</ele><time>2010-01-27T10:19:37Z</time></trkpt>
	<trkpt lat="51.75797667" lon="-1.83077"><ele>122.000000</ele><time>2010-01-27T10:19:42Z</time></trkpt>
	<trkpt lat="51.75802" lon="-1.830776667"><ele>123.000000</ele><time>2010-01-27T10:19:47Z</time></trkpt>
	<trkpt lat="51.75808167" lon="-1.83077"><ele>122.000000</ele><time>2010-01-27T10:19:52Z</time></trkpt>
	<trkpt lat="51.75813167" lon="-1.83077"><ele>122.000000</ele><time>2010-01-27T10:19:57Z</time></trkpt>
	<trkpt lat="51.75817833" lon="-1.830765"><ele>122.000000</ele><time>2010-01-27T10:20:02Z</time></trkpt>
	<trkpt lat="51.75823667" lon="-1.830756667"><ele>121.000000</ele><time>2010-01-27T10:20:07Z</time></trkpt>
	<trkpt lat="51.75826833" lon="-1.830748333"><ele>124.000000</ele><time>2010-01-27T10:20:12Z</time></trkpt>
	<trkpt lat="51.75831333" lon="-1.830718333"><ele>123.000000</ele><time>2010-01-27T10:20:17Z</time></trkpt>
	<trkpt lat="51.75836833" lon="-1.830683333"><ele>122.000000</ele><time>2010-01-27T10:20:22Z</time></trkpt>
	<trkpt lat="51.75842667" lon="-1.83065"><ele>120.000000</ele><time>2010-01-27T10:20:27Z</time></trkpt>
	<trkpt lat="51.75847667" lon="-1.830631667"><ele>121.000000</ele><time>2010-01-27T10:20:32Z</time></trkpt>
	<trkpt lat="51.75853" lon="-1.83062"><ele>121.000000</ele><time>2010-01-27T10:20:37Z</time></trkpt>
	<trkpt lat="51.75858333" lon="-1.830623333"><ele>120.000000</ele><time>2010-01-27T10:20:42Z</time></trkpt>
	<trkpt lat="51.75863333" lon="-1.830621667"><ele>120.000000</ele><time>2010-01-27T10:20:47Z</time></trkpt>
	<trkpt lat="51.75865333" lon="-1.83062"><ele>119.000000</ele><time>2010-01-27T10:20:52Z</time></trkpt>
	<trkpt lat="51.75869167" lon="-1.830611667"><ele>119.000000</ele><time>2010-01-27T10:20:57Z</time></trkpt>
	<trkpt lat="51.758735" lon="-1.830603333"><ele>121.000000</ele><time>2010-01-27T10:21:02Z</time></trkpt>
	<trkpt lat="51.75877667" lon="-1.830598333"><ele>123.000000</ele><time>2010-01-27T10:21:07Z</time></trkpt>
	<trkpt lat="51.75881" lon="-1.830593333"><ele>125.000000</ele><time>2010-01-27T10:21:12Z</time></trkpt>
	<trkpt lat="51.75884833" lon="-1.830578333"><ele>127.000000</ele><time>2010-01-27T10:21:17Z</time></trkpt>
	<trkpt lat="51.75889667" lon="-1.830535"><ele>127.000000</ele><time>2010-01-27T10:21:22Z</time></trkpt>
	<trkpt lat="51.758915" lon="-1.830506667"><ele>129.000000</ele><time>2010-01-27T10:21:27Z</time></trkpt>
	<trkpt lat="51.75897" lon="-1.83046"><ele>127.000000</ele><time>2010-01-27T10:21:32Z</time></trkpt>
	<trkpt lat="51.75903333" lon="-1.830425"><ele>125.000000</ele><time>2010-01-27T10:21:37Z</time></trkpt>
	<trkpt lat="51.75908333" lon="-1.830416667"><ele>125.000000</ele><time>2010-01-27T10:21:42Z</time></trkpt>
	<trkpt lat="51.75911833" lon="-1.830431667"><ele>126.000000</ele><time>2010-01-27T10:21:47Z</time></trkpt>
	<trkpt lat="51.75914" lon="-1.83045"><ele>127.000000</ele><time>2010-01-27T10:21:52Z</time></trkpt>
	<trkpt lat="51.75916333" lon="-1.83046"><ele>127.000000</ele><time>2010-01-27T10:21:57Z</time></trkpt>
	<trkpt lat="51.75918833" lon="-1.830468333"><ele>128.000000</ele><time>2010-01-27T10:22:02Z</time></trkpt>
	<trkpt lat="51.75922" lon="-1.830471667"><ele>128.000000</ele><time>2010-01-27T10:22:07Z</time></trkpt>
	<trkpt lat="51.759255" lon="-1.830466667"><ele>129.000000</ele><time>2010-01-27T10:22:12Z</time></trkpt>
	<trkpt lat="51.75928667" lon="-1.830471667"><ele>130.000000</ele><time>2010-01-27T10:22:17Z</time></trkpt>
	<trkpt lat="51.75932" lon="-1.830476667"><ele>131.000000</ele><time>2010-01-27T10:22:22Z</time></trkpt>
	<trkpt lat="51.75934833" lon="-1.830483333"><ele>132.000000</ele><time>2010-01-27T10:22:27Z</time></trkpt>
	<trkpt lat="51.75938333" lon="-1.830496667"><ele>133.000000</ele><time>2010-01-27T10:22:32Z</time></trkpt>
	<trkpt lat="51.75942333" lon="-1.830466667"><ele>133.000000</ele><time>2010-01-27T10:22:37Z</time></trkpt>
	<trkpt lat="51.75946" lon="-1.830483333"><ele>133.000000</ele><time>2010-01-27T10:22:42Z</time></trkpt>
	<trkpt lat="51.75949833" lon="-1.830491667"><ele>134.000000</ele><time>2010-01-27T10:22:47Z</time></trkpt>
	<trkpt lat="51.75954167" lon="-1.830485"><ele>132.000000</ele><time>2010-01-27T10:22:52Z</time></trkpt>
	<trkpt lat="51.759565" lon="-1.830506667"><ele>132.000000</ele><time>2010-01-27T10:22:57Z</time></trkpt>
	<trkpt lat="51.759595" lon="-1.830531667"><ele>133.000000</ele><time>2010-01-27T10:23:02Z</time></trkpt>
	<trkpt lat="51.759625" lon="-1.830553333"><ele>134.000000</ele><time>2010-01-27T10:23:07Z</time></trkpt>
	<trkpt lat="51.759655" lon="-1.830566667"><ele>134.000000</ele><time>2010-01-27T10:23:12Z</time></trkpt>
	<trkpt lat="51.759685" lon="-1.830576667"><ele>133.000000</ele><time>2010-01-27T10:23:17Z</time></trkpt>
	<trkpt lat="51.75972" lon="-1.8306"><ele>133.000000</ele><time>2010-01-27T10:23:22Z</time></trkpt>
	<trkpt lat="51.759755" lon="-1.830626667"><ele>132.000000</ele><time>2010-01-27T10:23:27Z</time></trkpt>
	<trkpt lat="51.75979833" lon="-1.830643333"><ele>132.000000</ele><time>2010-01-27T10:23:32Z</time></trkpt>
	<trkpt lat="51.75984167" lon="-1.83066"><ele>132.000000</ele><time>2010-01-27T10:23:37Z</time></trkpt>
	<trkpt lat="51.75988333" lon="-1.830681667"><ele>134.000000</ele><time>2010-01-27T10:23:42Z</time></trkpt>
	<trkpt lat="51.75991667" lon="-1.830691667"><ele>134.000000</ele><time>2010-01-27T10:23:47Z</time></trkpt>
	<trkpt lat="51.75994333" lon="-1.830698333"><ele>135.000000</ele><time>2010-01-27T10:23:52Z</time></trkpt>
	<trkpt lat="51.75997167" lon="-1.830705"><ele>134.000000</ele><time>2010-01-27T10:23:57Z</time></trkpt>
	<trkpt lat="51.75999833" lon="-1.830725"><ele>134.000000</ele><time>2010-01-27T10:24:02Z</time></trkpt>
	<trkpt lat="51.76002833" lon="-1.830735"><ele>136.000000</ele><time>2010-01-27T10:24:07Z</time></trkpt>
	<trkpt lat="51.76005833" lon="-1.830743333"><ele>136.000000</ele><time>2010-01-27T10:24:12Z</time></trkpt>
	<trkpt lat="51.760095" lon="-1.830748333"><ele>137.000000</ele><time>2010-01-27T10:24:17Z</time></trkpt>
	<trkpt lat="51.76012167" lon="-1.830773333"><ele>138.000000</ele><time>2010-01-27T10:24:22Z</time></trkpt>
	<trkpt lat="51.760155" lon="-1.8308"><ele>138.000000</ele><time>2010-01-27T10:24:27Z</time></trkpt>
	<trkpt lat="51.76018667" lon="-1.830845"><ele>138.000000</ele><time>2010-01-27T10:24:32Z</time></trkpt>
	<trkpt lat="51.76021333" lon="-1.830881667"><ele>140.000000</ele><time>2010-01-27T10:24:37Z</time></trkpt>
	<trkpt lat="51.76023" lon="-1.83092"><ele>142.000000</ele><time>2010-01-27T10:24:42Z</time></trkpt>
	<trkpt lat="51.76026667" lon="-1.830941667"><ele>144.000000</ele><time>2010-01-27T10:24:47Z</time></trkpt>
	<trkpt lat="51.76028167" lon="-1.830966667"><ele>147.000000</ele><time>2010-01-27T10:24:52Z</time></trkpt>
	<trkpt lat="51.76029167" lon="-1.830996667"><ele>150.000000</ele><time>2010-01-27T10:24:57Z</time></trkpt>
	<trkpt lat="51.76030667" lon="-1.831035"><ele>152.000000</ele><time>2010-01-27T10:25:02Z</time></trkpt>
	<trkpt lat="51.76031833" lon="-1.831066667"><ele>154.000000</ele><time>2010-01-27T10:25:07Z</time></trkpt>
	<trkpt lat="51.76033167" lon="-1.831095"><ele>156.000000</ele><time>2010-01-27T10:25:12Z</time></trkpt>
	<trkpt lat="51.76035167" lon="-1.831141667"><ele>158.000000</ele><time>2010-01-27T10:25:17Z</time></trkpt>
	<trkpt lat="51.76037667" lon="-1.831196667"><ele>159.000000</ele><time>2010-01-27T10:25:22Z</time></trkpt>
	<trkpt lat="51.76040167" lon="-1.831285"><ele>155.000000</ele><time>2010-01-27T10:25:27Z</time></trkpt>
	<trkpt lat="51.76042333" lon="-1.83133"><ele>153.000000</ele><time>2010-01-27T10:25:32Z</time></trkpt>
	<trkpt lat="51.76044667" lon="-1.831388333"><ele>149.000000</ele><time>2010-01-27T10:25:37Z</time></trkpt>
	<trkpt lat="51.76047667" lon="-1.831426667"><ele>147.000000</ele><time>2010-01-27T10:25:42Z</time></trkpt>
	<trkpt lat="51.76048667" lon="-1.83148"><ele>147.000000</ele><time>2010-01-27T10:25:47Z</time></trkpt>
	<trkpt lat="51.76050833" lon="-1.831516667"><ele>148.000000</ele><time>2010-01-27T10:25:52Z</time></trkpt>
	<trkpt lat="51.760525" lon="-1.831538333"><ele>149.000000</ele><time>2010-01-27T10:25:57Z</time></trkpt>
	<trkpt lat="51.76055167" lon="-1.83156"><ele>151.000000</ele><time>2010-01-27T10:26:02Z</time></trkpt>
	<trkpt lat="51.76058667" lon="-1.83156"><ele>151.000000</ele><time>2010-01-27T10:26:07Z</time></trkpt>
	<trkpt lat="51.76063667" lon="-1.831533333"><ele>151.000000</ele><time>2010-01-27T10:26:12Z</time></trkpt>
	<trkpt lat="51.760685" lon="-1.831513333"><ele>151.000000</ele><time>2010-01-27T10:26:17Z</time></trkpt>
	<trkpt lat="51.76072333" lon="-1.831495"><ele>152.000000</ele><time>2010-01-27T10:26:22Z</time></trkpt>
	<trkpt lat="51.76077333" lon="-1.831485"><ele>152.000000</ele><time>2010-01-27T10:26:27Z</time></trkpt>
	<trkpt lat="51.76082667" lon="-1.831473333"><ele>150.000000</ele><time>2010-01-27T10:26:32Z</time></trkpt>
	<trkpt lat="51.76087833" lon="-1.831445"><ele>149.000000</ele><time>2010-01-27T10:26:37Z</time></trkpt>
	<trkpt lat="51.76092667" lon="-1.831411667"><ele>148.000000</ele><time>2010-01-27T10:26:42Z</time></trkpt>
	<trkpt lat="51.76096833" lon="-1.831388333"><ele>148.000000</ele><time>2010-01-27T10:26:47Z</time></trkpt>
	<trkpt lat="51.76101" lon="-1.831365"><ele>148.000000</ele><time>2010-01-27T10:26:52Z</time></trkpt>
	<trkpt lat="51.761055" lon="-1.831356667"><ele>148.000000</ele><time>2010-01-27T10:26:57Z</time></trkpt>
	<trkpt lat="51.76110333" lon="-1.831341667"><ele>147.000000</ele><time>2010-01-27T10:27:02Z</time></trkpt>
	<trkpt lat="51.76115333" lon="-1.831318333"><ele>146.000000</ele><time>2010-01-27T10:27:07Z</time></trkpt>
	<trkpt lat="51.76120167" lon="-1.831296667"><ele>145.000000</ele><time>2010-01-27T10:27:12Z</time></trkpt>
	<trkpt lat="51.76124" lon="-1.831278333"><ele>145.000000</ele><time>2010-01-27T10:27:17Z</time></trkpt>
	<trkpt lat="51.76128" lon="-1.831261667"><ele>145.000000</ele><time>2010-01-27T10:27:22Z</time></trkpt>
	<trkpt lat="51.76131833" lon="-1.83124"><ele>145.000000</ele><time>2010-01-27T10:27:27Z</time></trkpt>
	<trkpt lat="51.76136333" lon="-1.831226667"><ele>145.000000</ele><time>2010-01-27T10:27:32Z</time></trkpt>
	<trkpt lat="51.76140833" lon="-1.831211667"><ele>145.000000</ele><time>2010-01-27T10:27:37Z</time></trkpt>
	<trkpt lat="51.76145167" lon="-1.831196667"><ele>145.000000</ele><time>2010-01-27T10:27:42Z</time></trkpt>
	<trkpt lat="51.76149333" lon="-1.831183333"><ele>145.000000</ele><time>2010-01-27T10:27:47Z</time></trkpt>
	<trkpt lat="51.761535" lon="-1.83117"><ele>146.000000</ele><time>2010-01-27T10:27:52Z</time></trkpt>
	<trkpt lat="51.76157833" lon="-1.831155"><ele>146.000000</ele><time>2010-01-27T10:27:57Z</time></trkpt>
	<trkpt lat="51.76161833" lon="-1.831138333"><ele>146.000000</ele><time>2010-01-27T10:28:02Z</time></trkpt>
	<trkpt lat="51.76166167" lon="-1.831126667"><ele>146.000000</ele><time>2010-01-27T10:28:07Z</time></trkpt>
	<trkpt lat="51.76170333" lon="-1.83111"><ele>146.000000</ele><time>2010-01-27T10:28:12Z</time></trkpt>
	<trkpt lat="51.761745" lon="-1.831095"><ele>146.000000</ele><time>2010-01-27T10:28:17Z</time></trkpt>
	<trkpt lat="51.76178667" lon="-1.83108"><ele>146.000000</ele><time>2010-01-27T10:28:22Z</time></trkpt>
	<trkpt lat="51.76183" lon="-1.831063333"><ele>146.000000</ele><time>2010-01-27T10:28:27Z</time></trkpt>
	<trkpt lat="51.76187333" lon="-1.831046667"><ele>147.000000</ele><time>2010-01-27T10:28:32Z</time></trkpt>
	<trkpt lat="51.76191667" lon="-1.831028333"><ele>147.000000</ele><time>2010-01-27T10:28:37Z</time></trkpt>
	<trkpt lat="51.76195833" lon="-1.831011667"><ele>147.000000</ele><time>2010-01-27T10:28:42Z</time></trkpt>
	<trkpt lat="51.76199333" lon="-1.831"><ele>148.000000</ele><time>2010-01-27T10:28:47Z</time></trkpt>
	<trkpt lat="51.76203333" lon="-1.830985"><ele>148.000000</ele><time>2010-01-27T10:28:52Z</time></trkpt>
	<trkpt lat="51.762075" lon="-1.830965"><ele>148.000000</ele><time>2010-01-27T10:28:57Z</time></trkpt>
	<trkpt lat="51.76211667" lon="-1.830948333"><ele>148.000000</ele><time>2010-01-27T10:29:02Z</time></trkpt>
	<trkpt lat="51.76215833" lon="-1.830928333"><ele>148.000000</ele><time>2010-01-27T10:29:07Z</time></trkpt>
	<trkpt lat="51.7622" lon="-1.830908333"><ele>148.000000</ele><time>2010-01-27T10:29:12Z</time></trkpt>
	<trkpt lat="51.76223833" lon="-1.830888333"><ele>148.000000</ele><time>2010-01-27T10:29:17Z</time></trkpt>
	<trkpt lat="51.76227667" lon="-1.83087"><ele>149.000000</ele><time>2010-01-27T10:29:22Z</time></trkpt>
	<trkpt lat="51.762315" lon="-1.830848333"><ele>149.000000</ele><time>2010-01-27T10:29:27Z</time></trkpt>
	<trkpt lat="51.762355" lon="-1.830825"><ele>149.000000</ele><time>2010-01-27T10:29:32Z</time></trkpt>
	<trkpt lat="51.762395" lon="-1.830803333"><ele>149.000000</ele><time>2010-01-27T10:29:37Z</time></trkpt>
	<trkpt lat="51.762435" lon="-1.830776667"><ele>150.000000</ele><time>2010-01-27T10:29:42Z</time></trkpt>
	<trkpt lat="51.76247667" lon="-1.830753333"><ele>150.000000</ele><time>2010-01-27T10:29:47Z</time></trkpt>
	<trkpt lat="51.76251667" lon="-1.830728333"><ele>150.000000</ele><time>2010-01-27T10:29:52Z</time></trkpt>
	<trkpt lat="51.76255833" lon="-1.830706667"><ele>150.000000</ele><time>2010-01-27T10:29:57Z</time></trkpt>
	<trkpt lat="51.76260333" lon="-1.83068"><ele>150.000000</ele><time>2010-01-27T10:30:02Z</time></trkpt>
	<trkpt lat="51.762645" lon="-1.83065"><ele>150.000000</ele><time>2010-01-27T10:30:07Z</time></trkpt>
	<trkpt lat="51.76269" lon="-1.830623333"><ele>150.000000</ele><time>2010-01-27T10:30:12Z</time></trkpt>
	<trkpt lat="51.76273333" lon="-1.830595"><ele>150.000000</ele><time>2010-01-27T10:30:17Z</time></trkpt>
	<trkpt lat="51.762775" lon="-1.83057"><ele>151.000000</ele><time>2010-01-27T10:30:22Z</time></trkpt>
	<trkpt lat="51.76281833" lon="-1.83054"><ele>151.000000</ele><time>2010-01-27T10:30:27Z</time></trkpt>
	<trkpt lat="51.76286167" lon="-1.83051"><ele>151.000000</ele><time>2010-01-27T10:30:32Z</time></trkpt>
	<trkpt lat="51.76290333" lon="-1.830481667"><ele>151.000000</ele><time>2010-01-27T10:30:37Z</time></trkpt>
	<trkpt lat="51.762945" lon="-1.83045"><ele>151.000000</ele><time>2010-01-27T10:30:42Z</time></trkpt>
	<trkpt lat="51.76298833" lon="-1.830423333"><ele>151.000000</ele><time>2010-01-27T10:30:47Z</time></trkpt>
	<trkpt lat="51.76303167" lon="-1.830395"><ele>151.000000</ele><time>2010-01-27T10:30:52Z</time></trkpt>
	<trkpt lat="51.76307833" lon="-1.830368333"><ele>152.000000</ele><time>2010-01-27T10:30:57Z</time></trkpt>
	<trkpt lat="51.76312167" lon="-1.830336667"><ele>152.000000</ele><time>2010-01-27T10:31:02Z</time></trkpt>
	<trkpt lat="51.76316667" lon="-1.830308333"><ele>152.000000</ele><time>2010-01-27T10:31:07Z</time></trkpt>
	<trkpt lat="51.76321" lon="-1.830278333"><ele>152.000000</ele><time>2010-01-27T10:31:12Z</time></trkpt>
	<trkpt lat="51.763255" lon="-1.830248333"><ele>152.000000</ele><time>2010-01-27T10:31:17Z</time></trkpt>
	<trkpt lat="51.7633" lon="-1.830215"><ele>152.000000</ele><time>2010-01-27T10:31:22Z</time></trkpt>
	<trkpt lat="51.76334667" lon="-1.830183333"><ele>152.000000</ele><time>2010-01-27T10:31:27Z</time></trkpt>
	<trkpt lat="51.76339167" lon="-1.830153333"><ele>152.000000</ele><time>2010-01-27T10:31:32Z</time></trkpt>
	<trkpt lat="51.763435" lon="-1.830125"><ele>152.000000</ele><time>2010-01-27T10:31:37Z</time></trkpt>
	<trkpt lat="51.76348167" lon="-1.8301"><ele>152.000000</ele><time>2010-01-27T10:31:42Z</time></trkpt>
	<trkpt lat="51.763525" lon="-1.830071667"><ele>152.000000</ele><time>2010-01-27T10:31:47Z</time></trkpt>
	<trkpt lat="51.76357" lon="-1.830043333"><ele>152.000000</ele><time>2010-01-27T10:31:52Z</time></trkpt>
	<trkpt lat="51.763615" lon="-1.830015"><ele>152.000000</ele><time>2010-01-27T10:31:57Z</time></trkpt>
	<trkpt lat="51.76366" lon="-1.829985"><ele>152.000000</ele><time>2010-01-27T10:32:02Z</time></trkpt>
	<trkpt lat="51.763705" lon="-1.829956667"><ele>152.000000</ele><time>2010-01-27T10:32:07Z</time></trkpt>
	<trkpt lat="51.76375333" lon="-1.829931667"><ele>152.000000</ele><time>2010-01-27T10:32:12Z</time></trkpt>
	<trkpt lat="51.76379833" lon="-1.829908333"><ele>152.000000</ele><time>2010-01-27T10:32:17Z</time></trkpt>
	<trkpt lat="51.76383667" lon="-1.829883333"><ele>152.000000</ele><time>2010-01-27T10:32:22Z</time></trkpt>
	<trkpt lat="51.76388" lon="-1.829858333"><ele>153.000000</ele><time>2010-01-27T10:32:27Z</time></trkpt>
	<trkpt lat="51.76392" lon="-1.829841667"><ele>153.000000</ele><time>2010-01-27T10:32:32Z</time></trkpt>
	<trkpt lat="51.76396333" lon="-1.82981"><ele>153.000000</ele><time>2010-01-27T10:32:37Z</time></trkpt>
	<trkpt lat="51.76400667" lon="-1.829785"><ele>153.000000</ele><time>2010-01-27T10:32:42Z</time></trkpt>
	<trkpt lat="51.76405167" lon="-1.829753333"><ele>153.000000</ele><time>2010-01-27T10:32:47Z</time></trkpt>
	<trkpt lat="51.76409667" lon="-1.829728333"><ele>153.000000</ele><time>2010-01-27T10:32:52Z</time></trkpt>
	<trkpt lat="51.76414167" lon="-1.82971"><ele>153.000000</ele><time>2010-01-27T10:32:57Z</time></trkpt>
	<trkpt lat="51.76418667" lon="-1.82968"><ele>153.000000</ele><time>2010-01-27T10:33:02Z</time></trkpt>
	<trkpt lat="51.76423" lon="-1.829648333"><ele>153.000000</ele><time>2010-01-27T10:33:07Z</time></trkpt>
	<trkpt lat="51.764275" lon="-1.829615"><ele>152.000000</ele><time>2010-01-27T10:33:12Z</time></trkpt>
	<trkpt lat="51.76432" lon="-1.829586667"><ele>152.000000</ele><time>2010-01-27T10:33:17Z</time></trkpt>
	<trkpt lat="51.76436333" lon="-1.829558333"><ele>152.000000</ele><time>2010-01-27T10:33:22Z</time></trkpt>
	<trkpt lat="51.76440667" lon="-1.829526667"><ele>152.000000</ele><time>2010-01-27T10:33:27Z</time></trkpt>
	<trkpt lat="51.76444667" lon="-1.829493333"><ele>152.000000</ele><time>2010-01-27T10:33:32Z</time></trkpt>
	<trkpt lat="51.76449167" lon="-1.829465"><ele>152.000000</ele><time>2010-01-27T10:33:37Z</time></trkpt>
	<trkpt lat="51.76453333" lon="-1.829436667"><ele>152.000000</ele><time>2010-01-27T10:33:42Z</time></trkpt>
	<trkpt lat="51.764575" lon="-1.829411667"><ele>152.000000</ele><time>2010-01-27T10:33:47Z</time></trkpt>
	<trkpt lat="51.76461833" lon="-1.82938"><ele>152.000000</ele><time>2010-01-27T10:33:52Z</time></trkpt>
	<trkpt lat="51.76466" lon="-1.829346667"><ele>152.000000</ele><time>2010-01-27T10:33:57Z</time></trkpt>
	<trkpt lat="51.76470167" lon="-1.829315"><ele>152.000000</ele><time>2010-01-27T10:34:02Z</time></trkpt>
	<trkpt lat="51.76474333" lon="-1.829283333"><ele>152.000000</ele><time>2010-01-27T10:34:07Z</time></trkpt>
	<trkpt lat="51.76478333" lon="-1.829256667"><ele>152.000000</ele><time>2010-01-27T10:34:12Z</time></trkpt>
	<trkpt lat="51.764825" lon="-1.829225"><ele>152.000000</ele><time>2010-01-27T10:34:17Z</time></trkpt>
	<trkpt lat="51.76486667" lon="-1.829198333"><ele>153.000000</ele><time>2010-01-27T10:34:22Z</time></trkpt>
	<trkpt lat="51.76490833" lon="-1.829173333"><ele>153.000000</ele><time>2010-01-27T10:34:27Z</time></trkpt>
	<trkpt lat="51.76494" lon="-1.82914"><ele>153.000000</ele><time>2010-01-27T10:34:32Z</time></trkpt>
	<trkpt lat="51.76497667" lon="-1.829108333"><ele>154.000000</ele><time>2010-01-27T10:34:37Z</time></trkpt>
	<trkpt lat="51.76501333" lon="-1.829073333"><ele>154.000000</ele><time>2010-01-27T10:34:42Z</time></trkpt>
	<trkpt lat="51.765055" lon="-1.829038333"><ele>154.000000</ele><time>2010-01-27T10:34:47Z</time></trkpt>
	<trkpt lat="51.76509667" lon="-1.829008333"><ele>153.000000</ele><time>2010-01-27T10:34:52Z</time></trkpt>
	<trkpt lat="51.76514" lon="-1.82897"><ele>153.000000</ele><time>2010-01-27T10:34:57Z</time></trkpt>
	<trkpt lat="51.765185" lon="-1.82893"><ele>153.000000</ele><time>2010-01-27T10:35:02Z</time></trkpt>
	<trkpt lat="51.76522333" lon="-1.828893333"><ele>153.000000</ele><time>2010-01-27T10:35:07Z</time></trkpt>
	<trkpt lat="51.76526333" lon="-1.828858333"><ele>153.000000</ele><time>2010-01-27T10:35:12Z</time></trkpt>
	<trkpt lat="51.765305" lon="-1.828821667"><ele>154.000000</ele><time>2010-01-27T10:35:17Z</time></trkpt>
	<trkpt lat="51.76535" lon="-1.828781667"><ele>154.000000</ele><time>2010-01-27T10:35:22Z</time></trkpt>
	<trkpt lat="51.76539333" lon="-1.828741667"><ele>154.000000</ele><time>2010-01-27T10:35:27Z</time></trkpt>
	<trkpt lat="51.76543667" lon="-1.828701667"><ele>154.000000</ele><time>2010-01-27T10:35:32Z</time></trkpt>
	<trkpt lat="51.76547667" lon="-1.828668333"><ele>154.000000</ele><time>2010-01-27T10:35:37Z</time></trkpt>
	<trkpt lat="51.76550333" lon="-1.828643333"><ele>154.000000</ele><time>2010-01-27T10:35:42Z</time></trkpt>
	<trkpt lat="51.76550667" lon="-1.828638333"><ele>154.000000</ele><time>2010-01-27T10:35:47Z</time></trkpt>
	<trkpt lat="51.765515" lon="-1.828623333"><ele>154.000000</ele><time>2010-01-27T10:35:52Z</time></trkpt>
	<trkpt lat="51.765545" lon="-1.828585"><ele>154.000000</ele><time>2010-01-27T10:35:57Z</time></trkpt>
	<trkpt lat="51.76558333" lon="-1.828545"><ele>154.000000</ele><time>2010-01-27T10:36:02Z</time></trkpt>
	<trkpt lat="51.76561833" lon="-1.828508333"><ele>154.000000</ele><time>2010-01-27T10:36:07Z</time></trkpt>
	<trkpt lat="51.76565333" lon="-1.828463333"><ele>154.000000</ele><time>2010-01-27T10:36:12Z</time></trkpt>
	<trkpt lat="51.765695" lon="-1.828415"><ele>153.000000</ele><time>2010-01-27T10:36:17Z</time></trkpt>
	<trkpt lat="51.765745" lon="-1.828368333"><ele>153.000000</ele><time>2010-01-27T10:36:22Z</time></trkpt>
	<trkpt lat="51.76579833" lon="-1.82832"><ele>153.000000</ele><time>2010-01-27T10:36:27Z</time></trkpt>
	<trkpt lat="51.76585" lon="-1.82827"><ele>153.000000</ele><time>2010-01-27T10:36:32Z</time></trkpt>
	<trkpt lat="51.76590333" lon="-1.828223333"><ele>153.000000</ele><time>2010-01-27T10:36:37Z</time></trkpt>
	<trkpt lat="51.765955" lon="-1.828178333"><ele>153.000000</ele><time>2010-01-27T10:36:42Z</time></trkpt>
	<trkpt lat="51.766005" lon="-1.828135"><ele>153.000000</ele><time>2010-01-27T10:36:47Z</time></trkpt>
	<trkpt lat="51.76605833" lon="-1.828091667"><ele>153.000000</ele><time>2010-01-27T10:36:52Z</time></trkpt>
	<trkpt lat="51.76610833" lon="-1.82805"><ele>152.000000</ele><time>2010-01-27T10:36:57Z</time></trkpt>
	<trkpt lat="51.76616" lon="-1.828005"><ele>152.000000</ele><time>2010-01-27T10:37:02Z</time></trkpt>
	<trkpt lat="51.76621167" lon="-1.827958333"><ele>152.000000</ele><time>2010-01-27T10:37:07Z</time></trkpt>
	<trkpt lat="51.76626667" lon="-1.827916667"><ele>151.000000</ele><time>2010-01-27T10:37:12Z</time></trkpt>
	<trkpt lat="51.76632" lon="-1.827873333"><ele>151.000000</ele><time>2010-01-27T10:37:17Z</time></trkpt>
	<trkpt lat="51.76637333" lon="-1.827825"><ele>150.000000</ele><time>2010-01-27T10:37:22Z</time></trkpt>
	<trkpt lat="51.76642833" lon="-1.82778"><ele>150.000000</ele><time>2010-01-27T10:37:27Z</time></trkpt>
	<trkpt lat="51.76648167" lon="-1.827735"><ele>150.000000</ele><time>2010-01-27T10:37:32Z</time></trkpt>
	<trkpt lat="51.76653333" lon="-1.827685"><ele>149.000000</ele><time>2010-01-27T10:37:37Z</time></trkpt>
	<trkpt lat="51.76658167" lon="-1.827645"><ele>149.000000</ele><time>2010-01-27T10:37:42Z</time></trkpt>
	<trkpt lat="51.766635" lon="-1.827601667"><ele>149.000000</ele><time>2010-01-27T10:37:47Z</time></trkpt>
	<trkpt lat="51.76668667" lon="-1.827555"><ele>148.000000</ele><time>2010-01-27T10:37:52Z</time></trkpt>
	<trkpt lat="51.76673667" lon="-1.827513333"><ele>148.000000</ele><time>2010-01-27T10:37:57Z</time></trkpt>
	<trkpt lat="51.76679" lon="-1.82747"><ele>148.000000</ele><time>2010-01-27T10:38:02Z</time></trkpt>
	<trkpt lat="51.76684167" lon="-1.827423333"><ele>148.000000</ele><time>2010-01-27T10:38:07Z</time></trkpt>
	<trkpt lat="51.76689833" lon="-1.82738"><ele>147.000000</ele><time>2010-01-27T10:38:12Z</time></trkpt>
	<trkpt lat="51.76695167" lon="-1.827335"><ele>147.000000</ele><time>2010-01-27T10:38:17Z</time></trkpt>
	<trkpt lat="51.76700333" lon="-1.827286667"><ele>147.000000</ele><time>2010-01-27T10:38:22Z</time></trkpt>
	<trkpt lat="51.76705333" lon="-1.827231667"><ele>147.000000</ele><time>2010-01-27T10:38:27Z</time></trkpt>
	<trkpt lat="51.76709833" lon="-1.82718"><ele>147.000000</ele><time>2010-01-27T10:38:32Z</time></trkpt>
	<trkpt lat="51.76713833" lon="-1.827151667"><ele>147.000000</ele><time>2010-01-27T10:38:37Z</time></trkpt>
	<trkpt lat="51.76717667" lon="-1.827151667"><ele>148.000000</ele><time>2010-01-27T10:38:42Z</time></trkpt>
	<trkpt lat="51.76722" lon="-1.82715"><ele>147.000000</ele><time>2010-01-27T10:38:47Z</time></trkpt>
	<trkpt lat="51.76725167" lon="-1.82715"><ele>147.000000</ele><time>2010-01-27T10:38:52Z</time></trkpt>
	<trkpt lat="51.76725333" lon="-1.827151667"><ele>146.000000</ele><time>2010-01-27T10:38:57Z</time></trkpt>
	<trkpt lat="51.767265" lon="-1.827141667"><ele>147.000000</ele><time>2010-01-27T10:39:02Z</time></trkpt>
	<trkpt lat="51.76730667" lon="-1.827126667"><ele>148.000000</ele><time>2010-01-27T10:39:07Z</time></trkpt>
	<trkpt lat="51.767355" lon="-1.827113333"><ele>148.000000</ele><time>2010-01-27T10:39:12Z</time></trkpt>
	<trkpt lat="51.7674" lon="-1.827083333"><ele>148.000000</ele><time>2010-01-27T10:39:17Z</time></trkpt>
	<trkpt lat="51.76744833" lon="-1.82705"><ele>148.000000</ele><time>2010-01-27T10:39:22Z</time></trkpt>
	<trkpt lat="51.76749" lon="-1.827015"><ele>149.000000</ele><time>2010-01-27T10:39:27Z</time></trkpt>
	<trkpt lat="51.76753333" lon="-1.826975"><ele>150.000000</ele><time>2010-01-27T10:39:32Z</time></trkpt>
	<trkpt lat="51.76757667" lon="-1.826931667"><ele>150.000000</ele><time>2010-01-27T10:39:37Z</time></trkpt>
	<trkpt lat="51.76761833" lon="-1.826895"><ele>151.000000</ele><time>2010-01-27T10:39:42Z</time></trkpt>
	<trkpt lat="51.76765833" lon="-1.826855"><ele>151.000000</ele><time>2010-01-27T10:39:47Z</time></trkpt>
	<trkpt lat="51.76770833" lon="-1.826815"><ele>150.000000</ele><time>2010-01-27T10:39:52Z</time></trkpt>
	<trkpt lat="51.76776333" lon="-1.826765"><ele>150.000000</ele><time>2010-01-27T10:39:57Z</time></trkpt>
	<trkpt lat="51.76781167" lon="-1.826718333"><ele>150.000000</ele><time>2010-01-27T10:40:02Z</time></trkpt>
	<trkpt lat="51.76786167" lon="-1.826671667"><ele>149.000000</ele><time>2010-01-27T10:40:07Z</time></trkpt>
	<trkpt lat="51.76791167" lon="-1.826626667"><ele>148.000000</ele><time>2010-01-27T10:40:12Z</time></trkpt>
	<trkpt lat="51.76796167" lon="-1.826575"><ele>148.000000</ele><time>2010-01-27T10:40:17Z</time></trkpt>
	<trkpt lat="51.76801167" lon="-1.82653"><ele>147.000000</ele><time>2010-01-27T10:40:22Z</time></trkpt>
	<trkpt lat="51.76806167" lon="-1.826483333"><ele>147.000000</ele><time>2010-01-27T10:40:27Z</time></trkpt>
	<trkpt lat="51.7681" lon="-1.82644"><ele>148.000000</ele><time>2010-01-27T10:40:32Z</time></trkpt>
	<trkpt lat="51.76814667" lon="-1.82639"><ele>148.000000</ele><time>2010-01-27T10:40:37Z</time></trkpt>
	<trkpt lat="51.76820333" lon="-1.826345"><ele>148.000000</ele><time>2010-01-27T10:40:42Z</time></trkpt>
	<trkpt lat="51.768255" lon="-1.826298333"><ele>148.000000</ele><time>2010-01-27T10:40:47Z</time></trkpt>
	<trkpt lat="51.76830167" lon="-1.82625"><ele>148.000000</ele><time>2010-01-27T10:40:52Z</time></trkpt>
	<trkpt lat="51.76834" lon="-1.826196667"><ele>148.000000</ele><time>2010-01-27T10:40:57Z</time></trkpt>
	<trkpt lat="51.76838167" lon="-1.826158333"><ele>148.000000</ele><time>2010-01-27T10:41:02Z</time></trkpt>
	<trkpt lat="51.76842" lon="-1.826128333"><ele>148.000000</ele><time>2010-01-27T10:41:07Z</time></trkpt>
	<trkpt lat="51.76845833" lon="-1.826088333"><ele>148.000000</ele><time>2010-01-27T10:41:12Z</time></trkpt>
	<trkpt lat="51.76849" lon="-1.826051667"><ele>148.000000</ele><time>2010-01-27T10:41:17Z</time></trkpt>
	<trkpt lat="51.768535" lon="-1.826036667"><ele>149.000000</ele><time>2010-01-27T10:41:22Z</time></trkpt>
	<trkpt lat="51.768575" lon="-1.826041667"><ele>150.000000</ele><time>2010-01-27T10:41:27Z</time></trkpt>
	<trkpt lat="51.7686" lon="-1.826046667"><ele>150.000000</ele><time>2010-01-27T10:41:32Z</time></trkpt>
	<trkpt lat="51.768615" lon="-1.826046667"><ele>149.000000</ele><time>2010-01-27T10:41:37Z</time></trkpt>
	<trkpt lat="51.768625" lon="-1.826046667"><ele>148.000000</ele><time>2010-01-27T10:41:42Z</time></trkpt>
	<trkpt lat="51.76863" lon="-1.826048333"><ele>147.000000</ele><time>2010-01-27T10:41:47Z</time></trkpt>
	<trkpt lat="51.768635" lon="-1.826046667"><ele>147.000000</ele><time>2010-01-27T10:41:52Z</time></trkpt>
	<trkpt lat="51.76863833" lon="-1.826043333"><ele>146.000000</ele><time>2010-01-27T10:41:57Z</time></trkpt>
	<trkpt lat="51.768645" lon="-1.826026667"><ele>146.000000</ele><time>2010-01-27T10:42:02Z</time></trkpt>
	<trkpt lat="51.76864667" lon="-1.826016667"><ele>145.000000</ele><time>2010-01-27T10:42:07Z</time></trkpt>
	<trkpt lat="51.76864" lon="-1.825975"><ele>146.000000</ele><time>2010-01-27T10:42:12Z</time></trkpt>
	<trkpt lat="51.76864" lon="-1.82594"><ele>146.000000</ele><time>2010-01-27T10:42:17Z</time></trkpt>
	<trkpt lat="51.76864833" lon="-1.825931667"><ele>145.000000</ele><time>2010-01-27T10:42:22Z</time></trkpt>
	<trkpt lat="51.76864667" lon="-1.825931667"><ele>145.000000</ele><time>2010-01-27T10:42:27Z</time></trkpt>
	<trkpt lat="51.76868833" lon="-1.825898333"><ele>146.000000</ele><time>2010-01-27T10:42:32Z</time></trkpt>
	<trkpt lat="51.76873833" lon="-1.825871667"><ele>146.000000</ele><time>2010-01-27T10:42:37Z</time></trkpt>
	<trkpt lat="51.768785" lon="-1.825843333"><ele>146.000000</ele><time>2010-01-27T10:42:42Z</time></trkpt>
	<trkpt lat="51.76884333" lon="-1.825801667"><ele>146.000000</ele><time>2010-01-27T10:42:47Z</time></trkpt>
	<trkpt lat="51.76889833" lon="-1.825768333"><ele>146.000000</ele><time>2010-01-27T10:42:52Z</time></trkpt>
	<trkpt lat="51.76894833" lon="-1.825736667"><ele>146.000000</ele><time>2010-01-27T10:42:57Z</time></trkpt>
	<trkpt lat="51.768995" lon="-1.8257"><ele>146.000000</ele><time>2010-01-27T10:43:02Z</time></trkpt>
	<trkpt lat="51.769045" lon="-1.82567"><ele>146.000000</ele><time>2010-01-27T10:43:07Z</time></trkpt>
	<trkpt lat="51.76909667" lon="-1.825633333"><ele>146.000000</ele><time>2010-01-27T10:43:12Z</time></trkpt>
	<trkpt lat="51.76914333" lon="-1.8256"><ele>146.000000</ele><time>2010-01-27T10:43:17Z</time></trkpt>
	<trkpt lat="51.76920167" lon="-1.825563333"><ele>146.000000</ele><time>2010-01-27T10:43:22Z</time></trkpt>
	<trkpt lat="51.769245" lon="-1.82552"><ele>146.000000</ele><time>2010-01-27T10:43:27Z</time></trkpt>
	<trkpt lat="51.76929167" lon="-1.825496667"><ele>147.000000</ele><time>2010-01-27T10:43:32Z</time></trkpt>
	<trkpt lat="51.76935667" lon="-1.825448333"><ele>146.000000</ele><time>2010-01-27T10:43:37Z</time></trkpt>
	<trkpt lat="51.7694" lon="-1.825418333"><ele>146.000000</ele><time>2010-01-27T10:43:42Z</time></trkpt>
	<trkpt lat="51.769455" lon="-1.825398333"><ele>146.000000</ele><time>2010-01-27T10:43:47Z</time></trkpt>
	<trkpt lat="51.76950833" lon="-1.825431667"><ele>146.000000</ele><time>2010-01-27T10:43:52Z</time></trkpt>
	<trkpt lat="51.76955" lon="-1.825473333"><ele>147.000000</ele><time>2010-01-27T10:43:57Z</time></trkpt>
	<trkpt lat="51.769585" lon="-1.825491667"><ele>147.000000</ele><time>2010-01-27T10:44:02Z</time></trkpt>
	<trkpt lat="51.769595" lon="-1.8255"><ele>147.000000</ele><time>2010-01-27T10:44:07Z</time></trkpt>
	<trkpt lat="51.76965167" lon="-1.825526667"><ele>147.000000</ele><time>2010-01-27T10:44:12Z</time></trkpt>
	<trkpt lat="51.76970833" lon="-1.82556"><ele>147.000000</ele><time>2010-01-27T10:44:17Z</time></trkpt>
	<trkpt lat="51.76976167" lon="-1.825586667"><ele>147.000000</ele><time>2010-01-27T10:44:22Z</time></trkpt>
	<trkpt lat="51.769805" lon="-1.825613333"><ele>148.000000</ele><time>2010-01-27T10:44:27Z</time></trkpt>
	<trkpt lat="51.76982667" lon="-1.82563"><ele>148.000000</ele><time>2010-01-27T10:44:32Z</time></trkpt>
	<trkpt lat="51.769865" lon="-1.825651667"><ele>148.000000</ele><time>2010-01-27T10:44:37Z</time></trkpt>
	<trkpt lat="51.76989833" lon="-1.825673333"><ele>148.000000</ele><time>2010-01-27T10:44:42Z</time></trkpt>
	<trkpt lat="51.76992667" lon="-1.825696667"><ele>148.000000</ele><time>2010-01-27T10:44:47Z</time></trkpt>
	<trkpt lat="51.76994833" lon="-1.825703333"><ele>148.000000</ele><time>2010-01-27T10:44:52Z</time></trkpt>
	<trkpt lat="51.76995167" lon="-1.8257"><ele>147.000000</ele><time>2010-01-27T10:44:57Z</time></trkpt>
	<trkpt lat="51.76995167" lon="-1.825701667"><ele>147.000000</ele><time>2010-01-27T10:45:02Z</time></trkpt>
	<trkpt lat="51.769955" lon="-1.825698333"><ele>146.000000</ele><time>2010-01-27T10:45:07Z</time></trkpt>
	<trkpt lat="51.769955" lon="-1.825703333"><ele>146.000000</ele><time>2010-01-27T10:45:12Z</time></trkpt>
	<trkpt lat="51.769955" lon="-1.825703333"><ele>146.000000</ele><time>2010-01-27T10:45:17Z</time></trkpt>
	<trkpt lat="51.76995667" lon="-1.8257"><ele>146.000000</ele><time>2010-01-27T10:45:22Z</time></trkpt>
	<trkpt lat="51.76998" lon="-1.825643333"><ele>148.000000</ele><time>2010-01-27T10:45:27Z</time></trkpt>
	<trkpt lat="51.77001167" lon="-1.825591667"><ele>149.000000</ele><time>2010-01-27T10:45:32Z</time></trkpt>
	<trkpt lat="51.77005167" lon="-1.82554"><ele>151.000000</ele><time>2010-01-27T10:45:37Z</time></trkpt>
	<trkpt lat="51.77010833" lon="-1.825491667"><ele>151.000000</ele><time>2010-01-27T10:45:42Z</time></trkpt>
	<trkpt lat="51.77016333" lon="-1.82544"><ele>152.000000</ele><time>2010-01-27T10:45:47Z</time></trkpt>
	<trkpt lat="51.770215" lon="-1.825386667"><ele>152.000000</ele><time>2010-01-27T10:45:52Z</time></trkpt>
	<trkpt lat="51.77026333" lon="-1.825326667"><ele>152.000000</ele><time>2010-01-27T10:45:57Z</time></trkpt>
	<trkpt lat="51.77032667" lon="-1.825276667"><ele>152.000000</ele><time>2010-01-27T10:46:02Z</time></trkpt>
	<trkpt lat="51.77038667" lon="-1.825235"><ele>151.000000</ele><time>2010-01-27T10:46:07Z</time></trkpt>
	<trkpt lat="51.77044667" lon="-1.82518"><ele>150.000000</ele><time>2010-01-27T10:46:12Z</time></trkpt>
	<trkpt lat="51.77050667" lon="-1.82513"><ele>150.000000</ele><time>2010-01-27T10:46:17Z</time></trkpt>
	<trkpt lat="51.77056333" lon="-1.825083333"><ele>150.000000</ele><time>2010-01-27T10:46:22Z</time></trkpt>
	<trkpt lat="51.77061333" lon="-1.825025"><ele>150.000000</ele><time>2010-01-27T10:46:27Z</time></trkpt>
	<trkpt lat="51.77066333" lon="-1.824978333"><ele>151.000000</ele><time>2010-01-27T10:46:32Z</time></trkpt>
	<trkpt lat="51.77071333" lon="-1.824928333"><ele>152.000000</ele><time>2010-01-27T10:46:37Z</time></trkpt>
	<trkpt lat="51.770765" lon="-1.82488"><ele>152.000000</ele><time>2010-01-27T10:46:42Z</time></trkpt>
	<trkpt lat="51.77081" lon="-1.82483"><ele>152.000000</ele><time>2010-01-27T10:46:47Z</time></trkpt>
	<trkpt lat="51.770835" lon="-1.824756667"><ele>152.000000</ele><time>2010-01-27T10:46:52Z</time></trkpt>
	<trkpt lat="51.77088" lon="-1.824688333"><ele>152.000000</ele><time>2010-01-27T10:46:57Z</time></trkpt>
	<trkpt lat="51.77092833" lon="-1.824633333"><ele>152.000000</ele><time>2010-01-27T10:47:02Z</time></trkpt>
	<trkpt lat="51.77097667" lon="-1.824586667"><ele>152.000000</ele><time>2010-01-27T10:47:07Z</time></trkpt>
	<trkpt lat="51.77102" lon="-1.824538333"><ele>152.000000</ele><time>2010-01-27T10:47:12Z</time></trkpt>
	<trkpt lat="51.77106667" lon="-1.824485"><ele>152.000000</ele><time>2010-01-27T10:47:17Z</time></trkpt>
	<trkpt lat="51.77111333" lon="-1.824435"><ele>151.000000</ele><time>2010-01-27T10:47:22Z</time></trkpt>
	<trkpt lat="51.77115833" lon="-1.824388333"><ele>151.000000</ele><time>2010-01-27T10:47:27Z</time></trkpt>
	<trkpt lat="51.77120667" lon="-1.824343333"><ele>151.000000</ele><time>2010-01-27T10:47:32Z</time></trkpt>
	<trkpt lat="51.771255" lon="-1.824293333"><ele>151.000000</ele><time>2010-01-27T10:47:37Z</time></trkpt>
	<trkpt lat="51.7713" lon="-1.824248333"><ele>151.000000</ele><time>2010-01-27T10:47:42Z</time></trkpt>
	<trkpt lat="51.77134833" lon="-1.824205"><ele>151.000000</ele><time>2010-01-27T10:47:47Z</time></trkpt>
	<trkpt lat="51.77139" lon="-1.824148333"><ele>151.000000</ele><time>2010-01-27T10:47:52Z</time></trkpt>
	<trkpt lat="51.77142667" lon="-1.82409"><ele>151.000000</ele><time>2010-01-27T10:47:57Z</time></trkpt>
	<trkpt lat="51.77144833" lon="-1.824025"><ele>151.000000</ele><time>2010-01-27T10:48:02Z</time></trkpt>
	<trkpt lat="51.771485" lon="-1.823986667"><ele>150.000000</ele><time>2010-01-27T10:48:07Z</time></trkpt>
	<trkpt lat="51.771525" lon="-1.823946667"><ele>150.000000</ele><time>2010-01-27T10:48:12Z</time></trkpt>
	<trkpt lat="51.77157333" lon="-1.823911667"><ele>150.000000</ele><time>2010-01-27T10:48:17Z</time></trkpt>
	<trkpt lat="51.77161833" lon="-1.82387"><ele>150.000000</ele><time>2010-01-27T10:48:22Z</time></trkpt>
	<trkpt lat="51.77166" lon="-1.823831667"><ele>149.000000</ele><time>2010-01-27T10:48:27Z</time></trkpt>
	<trkpt lat="51.77170167" lon="-1.823788333"><ele>150.000000</ele><time>2010-01-27T10:48:32Z</time></trkpt>
	<trkpt lat="51.77174667" lon="-1.823743333"><ele>150.000000</ele><time>2010-01-27T10:48:37Z</time></trkpt>
	<trkpt lat="51.77179" lon="-1.823698333"><ele>150.000000</ele><time>2010-01-27T10:48:42Z</time></trkpt>
	<trkpt lat="51.77183333" lon="-1.82365"><ele>150.000000</ele><time>2010-01-27T10:48:47Z</time></trkpt>
	<trkpt lat="51.77187833" lon="-1.823608333"><ele>150.000000</ele><time>2010-01-27T10:48:52Z</time></trkpt>
	<trkpt lat="51.77192333" lon="-1.82356"><ele>150.000000</ele><time>2010-01-27T10:48:57Z</time></trkpt>
	<trkpt lat="51.77196833" lon="-1.823511667"><ele>150.000000</ele><time>2010-01-27T10:49:02Z</time></trkpt>
	<trkpt lat="51.77201167" lon="-1.823465"><ele>151.000000</ele><time>2010-01-27T10:49:07Z</time></trkpt>
	<trkpt lat="51.77205333" lon="-1.823426667"><ele>151.000000</ele><time>2010-01-27T10:49:12Z</time></trkpt>
	<trkpt lat="51.772095" lon="-1.82338"><ele>152.000000</ele><time>2010-01-27T10:49:17Z</time></trkpt>
	<trkpt lat="51.77214" lon="-1.823333333"><ele>152.000000</ele><time>2010-01-27T10:49:22Z</time></trkpt>
	<trkpt lat="51.77218167" lon="-1.82329"><ele>152.000000</ele><time>2010-01-27T10:49:27Z</time></trkpt>
	<trkpt lat="51.772225" lon="-1.823246667"><ele>151.000000</ele><time>2010-01-27T10:49:32Z</time></trkpt>
	<trkpt lat="51.77226833" lon="-1.823203333"><ele>151.000000</ele><time>2010-01-27T10:49:37Z</time></trkpt>
	<trkpt lat="51.77231333" lon="-1.823161667"><ele>151.000000</ele><time>2010-01-27T10:49:42Z</time></trkpt>
	<trkpt lat="51.77235833" lon="-1.823111667"><ele>151.000000</ele><time>2010-01-27T10:49:47Z</time></trkpt>
	<trkpt lat="51.772405" lon="-1.823063333"><ele>151.000000</ele><time>2010-01-27T10:49:52Z</time></trkpt>
	<trkpt lat="51.77244667" lon="-1.823018333"><ele>151.000000</ele><time>2010-01-27T10:49:57Z</time></trkpt>
	<trkpt lat="51.77249167" lon="-1.822976667"><ele>152.000000</ele><time>2010-01-27T10:50:02Z</time></trkpt>
	<trkpt lat="51.772535" lon="-1.822936667"><ele>152.000000</ele><time>2010-01-27T10:50:07Z</time></trkpt>
	<trkpt lat="51.77258" lon="-1.822896667"><ele>152.000000</ele><time>2010-01-27T10:50:12Z</time></trkpt>
	<trkpt lat="51.77263" lon="-1.822855"><ele>152.000000</ele><time>2010-01-27T10:50:17Z</time></trkpt>
	<trkpt lat="51.77267167" lon="-1.822818333"><ele>153.000000</ele><time>2010-01-27T10:50:22Z</time></trkpt>
	<trkpt lat="51.77271667" lon="-1.822778333"><ele>153.000000</ele><time>2010-01-27T10:50:27Z</time></trkpt>
	<trkpt lat="51.77275833" lon="-1.822743333"><ele>153.000000</ele><time>2010-01-27T10:50:32Z</time></trkpt>
	<trkpt lat="51.772805" lon="-1.822713333"><ele>153.000000</ele><time>2010-01-27T10:50:37Z</time></trkpt>
	<trkpt lat="51.77284667" lon="-1.822683333"><ele>152.000000</ele><time>2010-01-27T10:50:42Z</time></trkpt>
	<trkpt lat="51.77289333" lon="-1.822638333"><ele>151.000000</ele><time>2010-01-27T10:50:47Z</time></trkpt>
	<trkpt lat="51.77292333" lon="-1.822605"><ele>150.000000</ele><time>2010-01-27T10:50:52Z</time></trkpt>
	<trkpt lat="51.77295667" lon="-1.822586667"><ele>150.000000</ele><time>2010-01-27T10:50:57Z</time></trkpt>
	<trkpt lat="51.773005" lon="-1.822565"><ele>150.000000</ele><time>2010-01-27T10:51:02Z</time></trkpt>
	<trkpt lat="51.77305167" lon="-1.822528333"><ele>149.000000</ele><time>2010-01-27T10:51:07Z</time></trkpt>
	<trkpt lat="51.77308833" lon="-1.822486667"><ele>150.000000</ele><time>2010-01-27T10:51:12Z</time></trkpt>
	<trkpt lat="51.773125" lon="-1.822428333"><ele>150.000000</ele><time>2010-01-27T10:51:17Z</time></trkpt>
	<trkpt lat="51.77315167" lon="-1.822398333"><ele>150.000000</ele><time>2010-01-27T10:51:22Z</time></trkpt>
	<trkpt lat="51.77319667" lon="-1.822386667"><ele>150.000000</ele><time>2010-01-27T10:51:27Z</time></trkpt>
	<trkpt lat="51.77324667" lon="-1.822393333"><ele>150.000000</ele><time>2010-01-27T10:51:32Z</time></trkpt>
	<trkpt lat="51.77329667" lon="-1.8224"><ele>150.000000</ele><time>2010-01-27T10:51:37Z</time></trkpt>
	<trkpt lat="51.77334833" lon="-1.822403333"><ele>150.000000</ele><time>2010-01-27T10:51:42Z</time></trkpt>
	<trkpt lat="51.7734" lon="-1.822406667"><ele>150.000000</ele><time>2010-01-27T10:51:47Z</time></trkpt>
	<trkpt lat="51.77345167" lon="-1.82241"><ele>151.000000</ele><time>2010-01-27T10:51:52Z</time></trkpt>
	<trkpt lat="51.77350333" lon="-1.822421667"><ele>151.000000</ele><time>2010-01-27T10:51:57Z</time></trkpt>
	<trkpt lat="51.773555" lon="-1.822445"><ele>151.000000</ele><time>2010-01-27T10:52:02Z</time></trkpt>
	<trkpt lat="51.77360333" lon="-1.822485"><ele>151.000000</ele><time>2010-01-27T10:52:07Z</time></trkpt>
	<trkpt lat="51.77365167" lon="-1.82253"><ele>151.000000</ele><time>2010-01-27T10:52:12Z</time></trkpt>
	<trkpt lat="51.77369833" lon="-1.822575"><ele>150.000000</ele><time>2010-01-27T10:52:17Z</time></trkpt>
	<trkpt lat="51.77374333" lon="-1.822618333"><ele>150.000000</ele><time>2010-01-27T10:52:22Z</time></trkpt>
	<trkpt lat="51.77378833" lon="-1.822655"><ele>150.000000</ele><time>2010-01-27T10:52:27Z</time></trkpt>
	<trkpt lat="51.77378833" lon="-1.822656667"><ele>150.000000</ele><time>2010-01-27T10:52:32Z</time></trkpt>
	<trkpt lat="51.773785" lon="-1.822655"><ele>150.000000</ele><time>2010-01-27T10:52:37Z</time></trkpt>
	<trkpt lat="51.77375333" lon="-1.822621667"><ele>150.000000</ele><time>2010-01-27T10:52:42Z</time></trkpt>
	<trkpt lat="51.77371333" lon="-1.82258"><ele>150.000000</ele><time>2010-01-27T10:52:47Z</time></trkpt>
	<trkpt lat="51.77367667" lon="-1.82254"><ele>151.000000</ele><time>2010-01-27T10:52:52Z</time></trkpt>
	<trkpt lat="51.77363833" lon="-1.822495"><ele>152.000000</ele><time>2010-01-27T10:52:57Z</time></trkpt>
	<trkpt lat="51.7736" lon="-1.822455"><ele>152.000000</ele><time>2010-01-27T10:53:02Z</time></trkpt>
	<trkpt lat="51.77355667" lon="-1.822421667"><ele>153.000000</ele><time>2010-01-27T10:53:07Z</time></trkpt>
	<trkpt lat="51.77350333" lon="-1.822403333"><ele>153.000000</ele><time>2010-01-27T10:53:12Z</time></trkpt>
	<trkpt lat="51.77345333" lon="-1.822395"><ele>153.000000</ele><time>2010-01-27T10:53:17Z</time></trkpt>
	<trkpt lat="51.77340333" lon="-1.82239"><ele>153.000000</ele><time>2010-01-27T10:53:22Z</time></trkpt>
	<trkpt lat="51.77335833" lon="-1.822383333"><ele>153.000000</ele><time>2010-01-27T10:53:27Z</time></trkpt>
	<trkpt lat="51.77331333" lon="-1.822378333"><ele>153.000000</ele><time>2010-01-27T10:53:32Z</time></trkpt>
	<trkpt lat="51.77328" lon="-1.822363333"><ele>154.000000</ele><time>2010-01-27T10:53:37Z</time></trkpt>
	<trkpt lat="51.77327167" lon="-1.822336667"><ele>154.000000</ele><time>2010-01-27T10:53:42Z</time></trkpt>
	<trkpt lat="51.77326833" lon="-1.822323333"><ele>153.000000</ele><time>2010-01-27T10:53:47Z</time></trkpt>
	<trkpt lat="51.77327" lon="-1.822328333"><ele>152.000000</ele><time>2010-01-27T10:53:52Z</time></trkpt>
	<trkpt lat="51.77326833" lon="-1.82233"><ele>152.000000</ele><time>2010-01-27T10:53:57Z</time></trkpt>
	<trkpt lat="51.77327" lon="-1.822328333"><ele>152.000000</ele><time>2010-01-27T10:54:02Z</time></trkpt>
	<trkpt lat="51.77326833" lon="-1.822323333"><ele>151.000000</ele><time>2010-01-27T10:54:07Z</time></trkpt>
	<trkpt lat="51.773265" lon="-1.822323333"><ele>150.000000</ele><time>2010-01-27T10:54:12Z</time></trkpt>
	<trkpt lat="51.77326333" lon="-1.822321667"><ele>149.000000</ele><time>2010-01-27T10:54:17Z</time></trkpt>
	<trkpt lat="51.77326" lon="-1.82232"><ele>149.000000</ele><time>2010-01-27T10:54:22Z</time></trkpt>
	<trkpt lat="51.77325833" lon="-1.822318333"><ele>150.000000</ele><time>2010-01-27T10:54:27Z</time></trkpt>
	<trkpt lat="51.77325833" lon="-1.822318333"><ele>150.000000</ele><time>2010-01-27T10:54:32Z</time></trkpt>
	<trkpt lat="51.77325833" lon="-1.822318333"><ele>150.000000</ele><time>2010-01-27T10:54:37Z</time></trkpt>
	<trkpt lat="51.77325667" lon="-1.82232"><ele>150.000000</ele><time>2010-01-27T10:54:42Z</time></trkpt>
	<trkpt lat="51.77325667" lon="-1.82232"><ele>150.000000</ele><time>2010-01-27T10:54:47Z</time></trkpt>
	<trkpt lat="51.77325667" lon="-1.82232"><ele>150.000000</ele><time>2010-01-27T10:54:52Z</time></trkpt>
	<trkpt lat="51.77325667" lon="-1.822318333"><ele>150.000000</ele><time>2010-01-27T10:54:57Z</time></trkpt>
	<trkpt lat="51.77325667" lon="-1.82232"><ele>150.000000</ele><time>2010-01-27T10:55:02Z</time></trkpt>
	<trkpt lat="51.773255" lon="-1.822321667"><ele>151.000000</ele><time>2010-01-27T10:55:07Z</time></trkpt>
	<trkpt lat="51.77325667" lon="-1.822323333"><ele>152.000000</ele><time>2010-01-27T10:55:12Z</time></trkpt>
	<trkpt lat="51.77325333" lon="-1.822323333"><ele>152.000000</ele><time>2010-01-27T10:55:17Z</time></trkpt>
	<trkpt lat="51.77325333" lon="-1.822326667"><ele>152.000000</ele><time>2010-01-27T10:55:22Z</time></trkpt>
	<trkpt lat="51.77325167" lon="-1.822326667"><ele>152.000000</ele><time>2010-01-27T10:55:27Z</time></trkpt>
	<trkpt lat="51.77325" lon="-1.822328333"><ele>153.000000</ele><time>2010-01-27T10:55:32Z</time></trkpt>
	<trkpt lat="51.77325167" lon="-1.822326667"><ele>152.000000</ele><time>2010-01-27T10:55:37Z</time></trkpt>
	<trkpt lat="51.77325667" lon="-1.822323333"><ele>151.000000</ele><time>2010-01-27T10:55:42Z</time></trkpt>
	<trkpt lat="51.77325667" lon="-1.822323333"><ele>151.000000</ele><time>2010-01-27T10:55:47Z</time></trkpt>
	<trkpt lat="51.773255" lon="-1.822321667"><ele>151.000000</ele><time>2010-01-27T10:55:52Z</time></trkpt>
	<trkpt lat="51.773255" lon="-1.822323333"><ele>151.000000</ele><time>2010-01-27T10:55:57Z</time></trkpt>
	<trkpt lat="51.773255" lon="-1.822328333"><ele>152.000000</ele><time>2010-01-27T10:56:02Z</time></trkpt>
	<trkpt lat="51.773255" lon="-1.82233"><ele>152.000000</ele><time>2010-01-27T10:56:07Z</time></trkpt>
	<trkpt lat="51.77325333" lon="-1.822333333"><ele>152.000000</ele><time>2010-01-27T10:56:12Z</time></trkpt>
	<trkpt lat="51.77325833" lon="-1.82233"><ele>150.000000</ele><time>2010-01-27T10:56:17Z</time></trkpt>
	<trkpt lat="51.77325667" lon="-1.822323333"><ele>149.000000</ele><time>2010-01-27T10:56:22Z</time></trkpt>
	<trkpt lat="51.77325333" lon="-1.822323333"><ele>149.000000</ele><time>2010-01-27T10:56:27Z</time></trkpt>
	<trkpt lat="51.773255" lon="-1.822331667"><ele>149.000000</ele><time>2010-01-27T10:56:32Z</time></trkpt>
	<trkpt lat="51.773255" lon="-1.822335"><ele>149.000000</ele><time>2010-01-27T10:56:37Z</time></trkpt>
	<trkpt lat="51.773255" lon="-1.822335"><ele>148.000000</ele><time>2010-01-27T10:56:42Z</time></trkpt>
	<trkpt lat="51.77326333" lon="-1.822323333"><ele>148.000000</ele><time>2010-01-27T10:56:47Z</time></trkpt>
	<trkpt lat="51.77326" lon="-1.822323333"><ele>147.000000</ele><time>2010-01-27T10:56:52Z</time></trkpt>
	<trkpt lat="51.77325833" lon="-1.82233"><ele>147.000000</ele><time>2010-01-27T10:56:57Z</time></trkpt>
	<trkpt lat="51.773265" lon="-1.822335"><ele>147.000000</ele><time>2010-01-27T10:57:02Z</time></trkpt>
	<trkpt lat="51.77327333" lon="-1.82233"><ele>146.000000</ele><time>2010-01-27T10:57:07Z</time></trkpt>
	<trkpt lat="51.773275" lon="-1.822328333"><ele>147.000000</ele><time>2010-01-27T10:57:12Z</time></trkpt>
	<trkpt lat="51.77327333" lon="-1.822328333"><ele>146.000000</ele><time>2010-01-27T10:57:17Z</time></trkpt>
	<trkpt lat="51.77327167" lon="-1.822323333"><ele>147.000000</ele><time>2010-01-27T10:57:22Z</time></trkpt>
	<trkpt lat="51.77327" lon="-1.822323333"><ele>147.000000</ele><time>2010-01-27T10:57:27Z</time></trkpt>
	<trkpt lat="51.77326833" lon="-1.822321667"><ele>148.000000</ele><time>2010-01-27T10:57:32Z</time></trkpt>
	<trkpt lat="51.77326667" lon="-1.822318333"><ele>148.000000</ele><time>2010-01-27T10:57:37Z</time></trkpt>
	<trkpt lat="51.77326667" lon="-1.82232"><ele>148.000000</ele><time>2010-01-27T10:57:42Z</time></trkpt>
	<trkpt lat="51.773265" lon="-1.822316667"><ele>148.000000</ele><time>2010-01-27T10:57:47Z</time></trkpt>
	<trkpt lat="51.77326333" lon="-1.822311667"><ele>149.000000</ele><time>2010-01-27T10:57:52Z</time></trkpt>
	<trkpt lat="51.773265" lon="-1.822316667"><ele>148.000000</ele><time>2010-01-27T10:57:57Z</time></trkpt>
	<trkpt lat="51.773265" lon="-1.822323333"><ele>146.000000</ele><time>2010-01-27T10:58:02Z</time></trkpt>
	<trkpt lat="51.77326667" lon="-1.822328333"><ele>143.000000</ele><time>2010-01-27T10:58:07Z</time></trkpt>
	<trkpt lat="51.77327167" lon="-1.82233"><ele>142.000000</ele><time>2010-01-27T10:58:12Z</time></trkpt>
	<trkpt lat="51.77327333" lon="-1.822338333"><ele>139.000000</ele><time>2010-01-27T10:58:17Z</time></trkpt>
	<trkpt lat="51.773275" lon="-1.822355"><ele>139.000000</ele><time>2010-01-27T10:58:22Z</time></trkpt>
	<trkpt lat="51.77326833" lon="-1.822356667"><ele>138.000000</ele><time>2010-01-27T10:58:27Z</time></trkpt>
	<trkpt lat="51.77326667" lon="-1.822363333"><ele>135.000000</ele><time>2010-01-27T10:58:32Z</time></trkpt>
	<trkpt lat="51.773265" lon="-1.822366667"><ele>133.000000</ele><time>2010-01-27T10:58:37Z</time></trkpt>
	<trkpt lat="51.77326667" lon="-1.822366667"><ele>132.000000</ele><time>2010-01-27T10:58:42Z</time></trkpt>
	<trkpt lat="51.77326667" lon="-1.822366667"><ele>131.000000</ele><time>2010-01-27T10:58:47Z</time></trkpt>
	<trkpt lat="51.77326833" lon="-1.822366667"><ele>131.000000</ele><time>2010-01-27T10:58:52Z</time></trkpt>
	<trkpt lat="51.77326833" lon="-1.822366667"><ele>132.000000</ele><time>2010-01-27T10:58:57Z</time></trkpt>
	<trkpt lat="51.77327" lon="-1.822365"><ele>131.000000</ele><time>2010-01-27T10:59:02Z</time></trkpt>
	<trkpt lat="51.77326833" lon="-1.822348333"><ele>133.000000</ele><time>2010-01-27T10:59:07Z</time></trkpt>
	<trkpt lat="51.77327" lon="-1.822338333"><ele>140.000000</ele><time>2010-01-27T10:59:12Z</time></trkpt>
	<trkpt lat="51.77327" lon="-1.822323333"><ele>143.000000</ele><time>2010-01-27T10:59:17Z</time></trkpt>
	<trkpt lat="51.77327" lon="-1.82232"><ele>144.000000</ele><time>2010-01-27T10:59:22Z</time></trkpt>
	<trkpt lat="51.77327" lon="-1.82232"><ele>145.000000</ele><time>2010-01-27T10:59:27Z</time></trkpt>
	<trkpt lat="51.77327167" lon="-1.822316667"><ele>145.000000</ele><time>2010-01-27T10:59:32Z</time></trkpt>
	<trkpt lat="51.77327167" lon="-1.822315"><ele>146.000000</ele><time>2010-01-27T10:59:37Z</time></trkpt>
	<trkpt lat="51.77327" lon="-1.822313333"><ele>146.000000</ele><time>2010-01-27T10:59:42Z</time></trkpt>
	<trkpt lat="51.77327167" lon="-1.822313333"><ele>146.000000</ele><time>2010-01-27T10:59:47Z</time></trkpt>
	<trkpt lat="51.77327" lon="-1.822315"><ele>145.000000</ele><time>2010-01-27T10:59:52Z</time></trkpt>
	<trkpt lat="51.77327" lon="-1.822313333"><ele>146.000000</ele><time>2010-01-27T10:59:57Z</time></trkpt>
	<trkpt lat="51.77326667" lon="-1.822315"><ele>147.000000</ele><time>2010-01-27T11:00:02Z</time></trkpt>
	<trkpt lat="51.77326833" lon="-1.822316667"><ele>147.000000</ele><time>2010-01-27T11:00:07Z</time></trkpt>
	<trkpt lat="51.77327" lon="-1.822318333"><ele>147.000000</ele><time>2010-01-27T11:00:12Z</time></trkpt>
	<trkpt lat="51.77327" lon="-1.822318333"><ele>147.000000</ele><time>2010-01-27T11:00:17Z</time></trkpt>
	<trkpt lat="51.77327167" lon="-1.82232"><ele>147.000000</ele><time>2010-01-27T11:00:22Z</time></trkpt>
	<trkpt lat="51.77327167" lon="-1.822323333"><ele>147.000000</ele><time>2010-01-27T11:00:27Z</time></trkpt>
	<trkpt lat="51.77327333" lon="-1.822328333"><ele>147.000000</ele><time>2010-01-27T11:00:32Z</time></trkpt>
	<trkpt lat="51.77327333" lon="-1.82233"><ele>147.000000</ele><time>2010-01-27T11:00:37Z</time></trkpt>
	<trkpt lat="51.77327333" lon="-1.822328333"><ele>148.000000</ele><time>2010-01-27T11:00:42Z</time></trkpt>
	<trkpt lat="51.77327667" lon="-1.822326667"><ele>147.000000</ele><time>2010-01-27T11:00:47Z</time></trkpt>
	<trkpt lat="51.77328" lon="-1.822323333"><ele>147.000000</ele><time>2010-01-27T11:00:52Z</time></trkpt>
	<trkpt lat="51.77327667" lon="-1.822323333"><ele>147.000000</ele><time>2010-01-27T11:00:57Z</time></trkpt>
	<trkpt lat="51.77328" lon="-1.822321667"><ele>147.000000</ele><time>2010-01-27T11:01:02Z</time></trkpt>
	<trkpt lat="51.77327833" lon="-1.82232"><ele>147.000000</ele><time>2010-01-27T11:01:07Z</time></trkpt>
	<trkpt lat="51.77327333" lon="-1.822318333"><ele>147.000000</ele><time>2010-01-27T11:01:12Z</time></trkpt>
	<trkpt lat="51.77327167" lon="-1.822318333"><ele>148.000000</ele><time>2010-01-27T11:01:17Z</time></trkpt>
	<trkpt lat="51.77326833" lon="-1.822323333"><ele>148.000000</ele><time>2010-01-27T11:01:22Z</time></trkpt>
	<trkpt lat="51.77326333" lon="-1.822321667"><ele>149.000000</ele><time>2010-01-27T11:01:27Z</time></trkpt>
	<trkpt lat="51.77326167" lon="-1.822321667"><ele>149.000000</ele><time>2010-01-27T11:01:32Z</time></trkpt>
	<trkpt lat="51.77326" lon="-1.822321667"><ele>150.000000</ele><time>2010-01-27T11:01:37Z</time></trkpt>
	<trkpt lat="51.77326" lon="-1.822321667"><ele>150.000000</ele><time>2010-01-27T11:01:42Z</time></trkpt>
	<trkpt lat="51.77326167" lon="-1.822321667"><ele>150.000000</ele><time>2010-01-27T11:01:47Z</time></trkpt>
	<trkpt lat="51.77326333" lon="-1.822323333"><ele>150.000000</ele><time>2010-01-27T11:01:52Z</time></trkpt>
	<trkpt lat="51.77326667" lon="-1.822326667"><ele>150.000000</ele><time>2010-01-27T11:01:57Z</time></trkpt>
	<trkpt lat="51.77326833" lon="-1.822328333"><ele>150.000000</ele><time>2010-01-27T11:02:02Z</time></trkpt>
	<trkpt lat="51.77327167" lon="-1.822336667"><ele>150.000000</ele><time>2010-01-27T11:02:07Z</time></trkpt>
	<trkpt lat="51.77327" lon="-1.822336667"><ele>150.000000</ele><time>2010-01-27T11:02:12Z</time></trkpt>
	<trkpt lat="51.77326833" lon="-1.822331667"><ele>149.000000</ele><time>2010-01-27T11:02:17Z</time></trkpt>
	<trkpt lat="51.77326667" lon="-1.822328333"><ele>150.000000</ele><time>2010-01-27T11:02:22Z</time></trkpt>
	<trkpt lat="51.773265" lon="-1.822328333"><ele>150.000000</ele><time>2010-01-27T11:02:27Z</time></trkpt>
	<trkpt lat="51.77326833" lon="-1.822328333"><ele>149.000000</ele><time>2010-01-27T11:02:32Z</time></trkpt>
	<trkpt lat="51.773265" lon="-1.822321667"><ele>149.000000</ele><time>2010-01-27T11:02:37Z</time></trkpt>
	<trkpt lat="51.77327" lon="-1.82233"><ele>149.000000</ele><time>2010-01-27T11:02:42Z</time></trkpt>
	<trkpt lat="51.77327167" lon="-1.822333333"><ele>149.000000</ele><time>2010-01-27T11:02:47Z</time></trkpt>
	<trkpt lat="51.77327333" lon="-1.822335"><ele>149.000000</ele><time>2010-01-27T11:02:52Z</time></trkpt>
	<trkpt lat="51.773275" lon="-1.822335"><ele>149.000000</ele><time>2010-01-27T11:02:57Z</time></trkpt>
	<trkpt lat="51.773275" lon="-1.822335"><ele>148.000000</ele><time>2010-01-27T11:03:02Z</time></trkpt>
	<trkpt lat="51.77327667" lon="-1.822336667"><ele>148.000000</ele><time>2010-01-27T11:03:07Z</time></trkpt>
	<trkpt lat="51.77327833" lon="-1.822338333"><ele>148.000000</ele><time>2010-01-27T11:03:12Z</time></trkpt>
	<trkpt lat="51.77327833" lon="-1.822338333"><ele>148.000000</ele><time>2010-01-27T11:03:17Z</time></trkpt>
	<trkpt lat="51.77327833" lon="-1.822338333"><ele>148.000000</ele><time>2010-01-27T11:03:22Z</time></trkpt>
	<trkpt lat="51.77328167" lon="-1.822338333"><ele>148.000000</ele><time>2010-01-27T11:03:27Z</time></trkpt>
	<trkpt lat="51.77328167" lon="-1.822338333"><ele>148.000000</ele><time>2010-01-27T11:03:32Z</time></trkpt>
	<trkpt lat="51.773285" lon="-1.822348333"><ele>148.000000</ele><time>2010-01-27T11:03:37Z</time></trkpt>
	<trkpt lat="51.77328167" lon="-1.822345"><ele>148.000000</ele><time>2010-01-27T11:03:42Z</time></trkpt>
	<trkpt lat="51.77328" lon="-1.822346667"><ele>148.000000</ele><time>2010-01-27T11:03:47Z</time></trkpt>
	<trkpt lat="51.77328" lon="-1.822348333"><ele>147.000000</ele><time>2010-01-27T11:03:52Z</time></trkpt>
	<trkpt lat="51.77327333" lon="-1.822338333"><ele>148.000000</ele><time>2010-01-27T11:03:57Z</time></trkpt>
	<trkpt lat="51.77326667" lon="-1.822323333"><ele>148.000000</ele><time>2010-01-27T11:04:02Z</time></trkpt>
	<trkpt lat="51.77326833" lon="-1.822323333"><ele>148.000000</ele><time>2010-01-27T11:04:07Z</time></trkpt>
	<trkpt lat="51.77327167" lon="-1.822328333"><ele>148.000000</ele><time>2010-01-27T11:04:12Z</time></trkpt>
	<trkpt lat="51.77327167" lon="-1.822331667"><ele>148.000000</ele><time>2010-01-27T11:04:17Z</time></trkpt>
	<trkpt lat="51.77327" lon="-1.822331667"><ele>148.000000</ele><time>2010-01-27T11:04:22Z</time></trkpt>
	<trkpt lat="51.77327" lon="-1.822331667"><ele>148.000000</ele><time>2010-01-27T11:04:27Z</time></trkpt>
	<trkpt lat="51.77326667" lon="-1.822331667"><ele>148.000000</ele><time>2010-01-27T11:04:32Z</time></trkpt>
	<trkpt lat="51.773265" lon="-1.82233"><ele>149.000000</ele><time>2010-01-27T11:04:37Z</time></trkpt>
	<trkpt lat="51.773265" lon="-1.822333333"><ele>149.000000</ele><time>2010-01-27T11:04:42Z</time></trkpt>
	<trkpt lat="51.77326667" lon="-1.822338333"><ele>148.000000</ele><time>2010-01-27T11:04:47Z</time></trkpt>
	<trkpt lat="51.77326667" lon="-1.822338333"><ele>148.000000</ele><time>2010-01-27T11:04:52Z</time></trkpt>
	<trkpt lat="51.77326667" lon="-1.822338333"><ele>148.000000</ele><time>2010-01-27T11:04:57Z</time></trkpt>
	<trkpt lat="51.77327333" lon="-1.822341667"><ele>148.000000</ele><time>2010-01-27T11:05:02Z</time></trkpt>
	<trkpt lat="51.77327833" lon="-1.822345"><ele>147.000000</ele><time>2010-01-27T11:05:07Z</time></trkpt>
	<trkpt lat="51.77328" lon="-1.822343333"><ele>147.000000</ele><time>2010-01-27T11:05:12Z</time></trkpt>
	<trkpt lat="51.77328" lon="-1.822343333"><ele>147.000000</ele><time>2010-01-27T11:05:17Z</time></trkpt>
	<trkpt lat="51.77327667" lon="-1.822338333"><ele>148.000000</ele><time>2010-01-27T11:05:22Z</time></trkpt>
	<trkpt lat="51.77328" lon="-1.822345"><ele>148.000000</ele><time>2010-01-27T11:05:27Z</time></trkpt>
	<trkpt lat="51.77328167" lon="-1.822346667"><ele>148.000000</ele><time>2010-01-27T11:05:32Z</time></trkpt>
	<trkpt lat="51.773285" lon="-1.822346667"><ele>148.000000</ele><time>2010-01-27T11:05:37Z</time></trkpt>
	<trkpt lat="51.77328" lon="-1.822346667"><ele>147.000000</ele><time>2010-01-27T11:05:42Z</time></trkpt>
	<trkpt lat="51.77328" lon="-1.822351667"><ele>147.000000</ele><time>2010-01-27T11:05:47Z</time></trkpt>
	<trkpt lat="51.77328167" lon="-1.822351667"><ele>147.000000</ele><time>2010-01-27T11:05:52Z</time></trkpt>
	<trkpt lat="51.77328333" lon="-1.822351667"><ele>147.000000</ele><time>2010-01-27T11:05:57Z</time></trkpt>
	<trkpt lat="51.773285" lon="-1.822351667"><ele>147.000000</ele><time>2010-01-27T11:06:02Z</time></trkpt>
	<trkpt lat="51.773285" lon="-1.822351667"><ele>147.000000</ele><time>2010-01-27T11:06:07Z</time></trkpt>
	<trkpt lat="51.773285" lon="-1.822351667"><ele>147.000000</ele><time>2010-01-27T11:06:12Z</time></trkpt>
	<trkpt lat="51.773285" lon="-1.822351667"><ele>148.000000</ele><time>2010-01-27T11:06:17Z</time></trkpt>
	<trkpt lat="51.773285" lon="-1.822346667"><ele>148.000000</ele><time>2010-01-27T11:06:22Z</time></trkpt>
	<trkpt lat="51.77328667" lon="-1.822345"><ele>148.000000</ele><time>2010-01-27T11:06:27Z</time></trkpt>
	<trkpt lat="51.77328833" lon="-1.822343333"><ele>148.000000</ele><time>2010-01-27T11:06:32Z</time></trkpt>
	<trkpt lat="51.77329" lon="-1.822345"><ele>148.000000</ele><time>2010-01-27T11:06:37Z</time></trkpt>
	<trkpt lat="51.77328833" lon="-1.822343333"><ele>148.000000</ele><time>2010-01-27T11:06:42Z</time></trkpt>
	<trkpt lat="51.77328833" lon="-1.822341667"><ele>148.000000</ele><time>2010-01-27T11:06:47Z</time></trkpt>
	<trkpt lat="51.77328667" lon="-1.822338333"><ele>148.000000</ele><time>2010-01-27T11:06:52Z</time></trkpt>
	<trkpt lat="51.77328667" lon="-1.822341667"><ele>147.000000</ele><time>2010-01-27T11:06:57Z</time></trkpt>
	<trkpt lat="51.773285" lon="-1.822336667"><ele>147.000000</ele><time>2010-01-27T11:07:02Z</time></trkpt>
	<trkpt lat="51.77328333" lon="-1.822343333"><ele>147.000000</ele><time>2010-01-27T11:07:07Z</time></trkpt>
	<trkpt lat="51.77328167" lon="-1.822336667"><ele>149.000000</ele><time>2010-01-27T11:07:12Z</time></trkpt>
	<trkpt lat="51.77328" lon="-1.82233"><ele>151.000000</ele><time>2010-01-27T11:07:17Z</time></trkpt>
	<trkpt lat="51.77328" lon="-1.822323333"><ele>153.000000</ele><time>2010-01-27T11:07:22Z</time></trkpt>
	<trkpt lat="51.77328167" lon="-1.822321667"><ele>154.000000</ele><time>2010-01-27T11:07:27Z</time></trkpt>
	<trkpt lat="51.77328667" lon="-1.822321667"><ele>155.000000</ele><time>2010-01-27T11:07:32Z</time></trkpt>
	<trkpt lat="51.77328667" lon="-1.82232"><ele>155.000000</ele><time>2010-01-27T11:07:37Z</time></trkpt>
	<trkpt lat="51.77328667" lon="-1.82232"><ele>155.000000</ele><time>2010-01-27T11:07:42Z</time></trkpt>
	<trkpt lat="51.77328833" lon="-1.822316667"><ele>156.000000</ele><time>2010-01-27T11:07:47Z</time></trkpt>
	<trkpt lat="51.77328833" lon="-1.822315"><ele>156.000000</ele><time>2010-01-27T11:07:52Z</time></trkpt>
	<trkpt lat="51.77329" lon="-1.822311667"><ele>157.000000</ele><time>2010-01-27T11:07:57Z</time></trkpt>
	<trkpt lat="51.77329167" lon="-1.822311667"><ele>157.000000</ele><time>2010-01-27T11:08:02Z</time></trkpt>
	<trkpt lat="51.77329667" lon="-1.822313333"><ele>155.000000</ele><time>2010-01-27T11:08:07Z</time></trkpt>
	<trkpt lat="51.77329667" lon="-1.822306667"><ele>159.000000</ele><time>2010-01-27T11:08:12Z</time></trkpt>
	<trkpt lat="51.773295" lon="-1.8223"><ele>163.000000</ele><time>2010-01-27T11:08:17Z</time></trkpt>
	<trkpt lat="51.77329667" lon="-1.822293333"><ele>167.000000</ele><time>2010-01-27T11:08:22Z</time></trkpt>
	<trkpt lat="51.773295" lon="-1.822288333"><ele>168.000000</ele><time>2010-01-27T11:08:27Z</time></trkpt>
	<trkpt lat="51.77329833" lon="-1.822285"><ele>170.000000</ele><time>2010-01-27T11:08:32Z</time></trkpt>
	<trkpt lat="51.77327333" lon="-1.822288333"><ele>166.000000</ele><time>2010-01-27T11:08:37Z</time></trkpt>
	<trkpt lat="51.773265" lon="-1.82229"><ele>164.000000</ele><time>2010-01-27T11:08:42Z</time></trkpt>
	<trkpt lat="51.77325833" lon="-1.822286667"><ele>162.000000</ele><time>2010-01-27T11:08:47Z</time></trkpt>
	<trkpt lat="51.77325667" lon="-1.822286667"><ele>161.000000</ele><time>2010-01-27T11:08:52Z</time></trkpt>
	<trkpt lat="51.77326" lon="-1.822285"><ele>161.000000</ele><time>2010-01-27T11:08:57Z</time></trkpt>
	<trkpt lat="51.77326667" lon="-1.822286667"><ele>162.000000</ele><time>2010-01-27T11:09:02Z</time></trkpt>
	<trkpt lat="51.77327667" lon="-1.822285"><ele>164.000000</ele><time>2010-01-27T11:09:07Z</time></trkpt>
	<trkpt lat="51.77328333" lon="-1.822285"><ele>165.000000</ele><time>2010-01-27T11:09:12Z</time></trkpt>
	<trkpt lat="51.77329333" lon="-1.822293333"><ele>167.000000</ele><time>2010-01-27T11:09:17Z</time></trkpt>
	<trkpt lat="51.77329333" lon="-1.822295"><ele>167.000000</ele><time>2010-01-27T11:09:22Z</time></trkpt>
	<trkpt lat="51.77329667" lon="-1.822295"><ele>167.000000</ele><time>2010-01-27T11:09:27Z</time></trkpt>
	<trkpt lat="51.77329833" lon="-1.822291667"><ele>167.000000</ele><time>2010-01-27T11:09:32Z</time></trkpt>
	<trkpt lat="51.7733" lon="-1.822301667"><ele>164.000000</ele><time>2010-01-27T11:09:37Z</time></trkpt>
	<trkpt lat="51.77329833" lon="-1.822288333"><ele>162.000000</ele><time>2010-01-27T11:09:42Z</time></trkpt>
	<trkpt lat="51.7733" lon="-1.822286667"><ele>159.000000</ele><time>2010-01-27T11:09:47Z</time></trkpt>
	<trkpt lat="51.77329833" lon="-1.822291667"><ele>157.000000</ele><time>2010-01-27T11:09:52Z</time></trkpt>
	<trkpt lat="51.7733" lon="-1.822293333"><ele>155.000000</ele><time>2010-01-27T11:09:57Z</time></trkpt>
	<trkpt lat="51.773285" lon="-1.8223"><ele>152.000000</ele><time>2010-01-27T11:10:02Z</time></trkpt>
	<trkpt lat="51.77326833" lon="-1.822305"><ele>149.000000</ele><time>2010-01-27T11:10:07Z</time></trkpt>
	<trkpt lat="51.77326" lon="-1.822306667"><ele>147.000000</ele><time>2010-01-27T11:10:12Z</time></trkpt>
	<trkpt lat="51.773255" lon="-1.822306667"><ele>146.000000</ele><time>2010-01-27T11:10:17Z</time></trkpt>
	<trkpt lat="51.77325333" lon="-1.822306667"><ele>145.000000</ele><time>2010-01-27T11:10:22Z</time></trkpt>
	<trkpt lat="51.77325167" lon="-1.822306667"><ele>145.000000</ele><time>2010-01-27T11:10:27Z</time></trkpt>
	<trkpt lat="51.77324833" lon="-1.822306667"><ele>146.000000</ele><time>2010-01-27T11:10:32Z</time></trkpt>
	<trkpt lat="51.77324333" lon="-1.82231"><ele>149.000000</ele><time>2010-01-27T11:10:37Z</time></trkpt>
	<trkpt lat="51.773245" lon="-1.822335"><ele>151.000000</ele><time>2010-01-27T11:10:42Z</time></trkpt>
	<trkpt lat="51.77327667" lon="-1.82235"><ele>152.000000</ele><time>2010-01-27T11:10:47Z</time></trkpt>
	<trkpt lat="51.77331833" lon="-1.822355"><ele>153.000000</ele><time>2010-01-27T11:10:52Z</time></trkpt>
	<trkpt lat="51.773365" lon="-1.822363333"><ele>154.000000</ele><time>2010-01-27T11:10:57Z</time></trkpt>
	<trkpt lat="51.773415" lon="-1.822371667"><ele>154.000000</ele><time>2010-01-27T11:11:02Z</time></trkpt>
	<trkpt lat="51.77346333" lon="-1.822375"><ele>155.000000</ele><time>2010-01-27T11:11:07Z</time></trkpt>
	<trkpt lat="51.77351167" lon="-1.822388333"><ele>155.000000</ele><time>2010-01-27T11:11:12Z</time></trkpt>
	<trkpt lat="51.77354833" lon="-1.822416667"><ele>156.000000</ele><time>2010-01-27T11:11:17Z</time></trkpt>
	<trkpt lat="51.77359333" lon="-1.822451667"><ele>157.000000</ele><time>2010-01-27T11:11:22Z</time></trkpt>
	<trkpt lat="51.77363833" lon="-1.822498333"><ele>157.000000</ele><time>2010-01-27T11:11:27Z</time></trkpt>
	<trkpt lat="51.77368333" lon="-1.822543333"><ele>157.000000</ele><time>2010-01-27T11:11:32Z</time></trkpt>
	<trkpt lat="51.77371167" lon="-1.82257"><ele>157.000000</ele><time>2010-01-27T11:11:37Z</time></trkpt>
	<trkpt lat="51.77375167" lon="-1.822611667"><ele>157.000000</ele><time>2010-01-27T11:11:42Z</time></trkpt>
	<trkpt lat="51.7738" lon="-1.82266"><ele>157.000000</ele><time>2010-01-27T11:11:47Z</time></trkpt>
	<trkpt lat="51.77385167" lon="-1.822708333"><ele>157.000000</ele><time>2010-01-27T11:11:52Z</time></trkpt>
	<trkpt lat="51.77390167" lon="-1.822761667"><ele>157.000000</ele><time>2010-01-27T11:11:57Z</time></trkpt>
	<trkpt lat="51.77395" lon="-1.822813333"><ele>157.000000</ele><time>2010-01-27T11:12:02Z</time></trkpt>
	<trkpt lat="51.77399667" lon="-1.822856667"><ele>157.000000</ele><time>2010-01-27T11:12:07Z</time></trkpt>
	<trkpt lat="51.77404167" lon="-1.822898333"><ele>156.000000</ele><time>2010-01-27T11:12:12Z</time></trkpt>
	<trkpt lat="51.774085" lon="-1.82295"><ele>156.000000</ele><time>2010-01-27T11:12:17Z</time></trkpt>
	<trkpt lat="51.77413" lon="-1.822995"><ele>156.000000</ele><time>2010-01-27T11:12:22Z</time></trkpt>
	<trkpt lat="51.77417" lon="-1.823041667"><ele>156.000000</ele><time>2010-01-27T11:12:27Z</time></trkpt>
	<trkpt lat="51.774215" lon="-1.823086667"><ele>156.000000</ele><time>2010-01-27T11:12:32Z</time></trkpt>
	<trkpt lat="51.77425833" lon="-1.823133333"><ele>156.000000</ele><time>2010-01-27T11:12:37Z</time></trkpt>
	<trkpt lat="51.77429833" lon="-1.82318"><ele>156.000000</ele><time>2010-01-27T11:12:42Z</time></trkpt>
	<trkpt lat="51.77434167" lon="-1.823223333"><ele>156.000000</ele><time>2010-01-27T11:12:47Z</time></trkpt>
	<trkpt lat="51.774385" lon="-1.823268333"><ele>156.000000</ele><time>2010-01-27T11:12:52Z</time></trkpt>
	<trkpt lat="51.77442833" lon="-1.823311667"><ele>156.000000</ele><time>2010-01-27T11:12:57Z</time></trkpt>
	<trkpt lat="51.77447" lon="-1.823358333"><ele>156.000000</ele><time>2010-01-27T11:13:02Z</time></trkpt>
	<trkpt lat="51.77451333" lon="-1.823403333"><ele>156.000000</ele><time>2010-01-27T11:13:07Z</time></trkpt>
	<trkpt lat="51.77455833" lon="-1.823445"><ele>156.000000</ele><time>2010-01-27T11:13:12Z</time></trkpt>
	<trkpt lat="51.7746" lon="-1.823491667"><ele>156.000000</ele><time>2010-01-27T11:13:17Z</time></trkpt>
	<trkpt lat="51.77464333" lon="-1.823533333"><ele>156.000000</ele><time>2010-01-27T11:13:22Z</time></trkpt>
	<trkpt lat="51.77469" lon="-1.823575"><ele>156.000000</ele><time>2010-01-27T11:13:27Z</time></trkpt>
	<trkpt lat="51.774735" lon="-1.823616667"><ele>156.000000</ele><time>2010-01-27T11:13:32Z</time></trkpt>
	<trkpt lat="51.77477833" lon="-1.823655"><ele>156.000000</ele><time>2010-01-27T11:13:37Z</time></trkpt>
	<trkpt lat="51.77482" lon="-1.823693333"><ele>156.000000</ele><time>2010-01-27T11:13:42Z</time></trkpt>
	<trkpt lat="51.77486833" lon="-1.823736667"><ele>156.000000</ele><time>2010-01-27T11:13:47Z</time></trkpt>
	<trkpt lat="51.77491167" lon="-1.823778333"><ele>156.000000</ele><time>2010-01-27T11:13:52Z</time></trkpt>
	<trkpt lat="51.77495833" lon="-1.823818333"><ele>155.000000</ele><time>2010-01-27T11:13:57Z</time></trkpt>
	<trkpt lat="51.77500167" lon="-1.823863333"><ele>155.000000</ele><time>2010-01-27T11:14:02Z</time></trkpt>
	<trkpt lat="51.77504667" lon="-1.823906667"><ele>155.000000</ele><time>2010-01-27T11:14:07Z</time></trkpt>
	<trkpt lat="51.77509" lon="-1.823946667"><ele>156.000000</ele><time>2010-01-27T11:14:12Z</time></trkpt>
	<trkpt lat="51.77513333" lon="-1.823985"><ele>156.000000</ele><time>2010-01-27T11:14:17Z</time></trkpt>
	<trkpt lat="51.77517833" lon="-1.824031667"><ele>156.000000</ele><time>2010-01-27T11:14:22Z</time></trkpt>
	<trkpt lat="51.775225" lon="-1.824078333"><ele>156.000000</ele><time>2010-01-27T11:14:27Z</time></trkpt>
	<trkpt lat="51.77526833" lon="-1.824126667"><ele>156.000000</ele><time>2010-01-27T11:14:32Z</time></trkpt>
	<trkpt lat="51.77531" lon="-1.824173333"><ele>156.000000</ele><time>2010-01-27T11:14:37Z</time></trkpt>
	<trkpt lat="51.77535167" lon="-1.82421"><ele>156.000000</ele><time>2010-01-27T11:14:42Z</time></trkpt>
	<trkpt lat="51.77539667" lon="-1.824221667"><ele>156.000000</ele><time>2010-01-27T11:14:47Z</time></trkpt>
	<trkpt lat="51.77543833" lon="-1.824256667"><ele>156.000000</ele><time>2010-01-27T11:14:52Z</time></trkpt>
	<trkpt lat="51.77547833" lon="-1.824276667"><ele>156.000000</ele><time>2010-01-27T11:14:57Z</time></trkpt>
	<trkpt lat="51.77551167" lon="-1.824321667"><ele>157.000000</ele><time>2010-01-27T11:15:02Z</time></trkpt>
	<trkpt lat="51.77555167" lon="-1.824366667"><ele>157.000000</ele><time>2010-01-27T11:15:07Z</time></trkpt>
	<trkpt lat="51.775575" lon="-1.82441"><ele>157.000000</ele><time>2010-01-27T11:15:12Z</time></trkpt>
	<trkpt lat="51.77560167" lon="-1.824433333"><ele>158.000000</ele><time>2010-01-27T11:15:17Z</time></trkpt>
	<trkpt lat="51.77564667" lon="-1.824475"><ele>159.000000</ele><time>2010-01-27T11:15:22Z</time></trkpt>
	<trkpt lat="51.77568667" lon="-1.824506667"><ele>159.000000</ele><time>2010-01-27T11:15:27Z</time></trkpt>
	<trkpt lat="51.77572667" lon="-1.824545"><ele>160.000000</ele><time>2010-01-27T11:15:32Z</time></trkpt>
	<trkpt lat="51.77577" lon="-1.824576667"><ele>160.000000</ele><time>2010-01-27T11:15:37Z</time></trkpt>
	<trkpt lat="51.775815" lon="-1.824598333"><ele>161.000000</ele><time>2010-01-27T11:15:42Z</time></trkpt>
	<trkpt lat="51.77586167" lon="-1.824623333"><ele>161.000000</ele><time>2010-01-27T11:15:47Z</time></trkpt>
	<trkpt lat="51.77590167" lon="-1.824641667"><ele>161.000000</ele><time>2010-01-27T11:15:52Z</time></trkpt>
	<trkpt lat="51.77594667" lon="-1.824663333"><ele>161.000000</ele><time>2010-01-27T11:15:57Z</time></trkpt>
	<trkpt lat="51.77598833" lon="-1.824681667"><ele>162.000000</ele><time>2010-01-27T11:16:02Z</time></trkpt>
	<trkpt lat="51.77603667" lon="-1.824698333"><ele>163.000000</ele><time>2010-01-27T11:16:07Z</time></trkpt>
	<trkpt lat="51.77608667" lon="-1.824711667"><ele>163.000000</ele><time>2010-01-27T11:16:12Z</time></trkpt>
	<trkpt lat="51.77613667" lon="-1.824733333"><ele>163.000000</ele><time>2010-01-27T11:16:17Z</time></trkpt>
	<trkpt lat="51.77618667" lon="-1.82476"><ele>163.000000</ele><time>2010-01-27T11:16:22Z</time></trkpt>
	<trkpt lat="51.77623167" lon="-1.824775"><ele>164.000000</ele><time>2010-01-27T11:16:27Z</time></trkpt>
	<trkpt lat="51.77628" lon="-1.824788333"><ele>165.000000</ele><time>2010-01-27T11:16:32Z</time></trkpt>
	<trkpt lat="51.77633" lon="-1.824801667"><ele>165.000000</ele><time>2010-01-27T11:16:37Z</time></trkpt>
	<trkpt lat="51.77637" lon="-1.82482"><ele>166.000000</ele><time>2010-01-27T11:16:42Z</time></trkpt>
	<trkpt lat="51.77642" lon="-1.824843333"><ele>167.000000</ele><time>2010-01-27T11:16:47Z</time></trkpt>
	<trkpt lat="51.77647833" lon="-1.824886667"><ele>164.000000</ele><time>2010-01-27T11:16:52Z</time></trkpt>
	<trkpt lat="51.77653667" lon="-1.824903333"><ele>163.000000</ele><time>2010-01-27T11:16:57Z</time></trkpt>
	<trkpt lat="51.77659" lon="-1.82493"><ele>163.000000</ele><time>2010-01-27T11:17:02Z</time></trkpt>
	<trkpt lat="51.77665" lon="-1.824941667"><ele>163.000000</ele><time>2010-01-27T11:17:07Z</time></trkpt>
	<trkpt lat="51.77671333" lon="-1.824968333"><ele>162.000000</ele><time>2010-01-27T11:17:12Z</time></trkpt>
	<trkpt lat="51.77677167" lon="-1.824991667"><ele>161.000000</ele><time>2010-01-27T11:17:17Z</time></trkpt>
	<trkpt lat="51.77682667" lon="-1.825018333"><ele>160.000000</ele><time>2010-01-27T11:17:22Z</time></trkpt>
	<trkpt lat="51.77688167" lon="-1.825041667"><ele>160.000000</ele><time>2010-01-27T11:17:27Z</time></trkpt>
	<trkpt lat="51.77692833" lon="-1.825066667"><ele>160.000000</ele><time>2010-01-27T11:17:32Z</time></trkpt>
	<trkpt lat="51.77697333" lon="-1.825095"><ele>159.000000</ele><time>2010-01-27T11:17:37Z</time></trkpt>
	<trkpt lat="51.77702333" lon="-1.825125"><ele>160.000000</ele><time>2010-01-27T11:17:42Z</time></trkpt>
	<trkpt lat="51.77707333" lon="-1.825153333"><ele>160.000000</ele><time>2010-01-27T11:17:47Z</time></trkpt>
	<trkpt lat="51.77712167" lon="-1.82519"><ele>160.000000</ele><time>2010-01-27T11:17:52Z</time></trkpt>
	<trkpt lat="51.77716833" lon="-1.825228333"><ele>160.000000</ele><time>2010-01-27T11:17:57Z</time></trkpt>
	<trkpt lat="51.77721333" lon="-1.825261667"><ele>160.000000</ele><time>2010-01-27T11:18:02Z</time></trkpt>
	<trkpt lat="51.777265" lon="-1.825298333"><ele>160.000000</ele><time>2010-01-27T11:18:07Z</time></trkpt>
	<trkpt lat="51.77731333" lon="-1.82534"><ele>160.000000</ele><time>2010-01-27T11:18:12Z</time></trkpt>
	<trkpt lat="51.77735833" lon="-1.82538"><ele>160.000000</ele><time>2010-01-27T11:18:17Z</time></trkpt>
	<trkpt lat="51.77740167" lon="-1.82542"><ele>160.000000</ele><time>2010-01-27T11:18:22Z</time></trkpt>
	<trkpt lat="51.777445" lon="-1.825463333"><ele>160.000000</ele><time>2010-01-27T11:18:27Z</time></trkpt>
	<trkpt lat="51.77748667" lon="-1.825508333"><ele>160.000000</ele><time>2010-01-27T11:18:32Z</time></trkpt>
	<trkpt lat="51.77752833" lon="-1.825555"><ele>159.000000</ele><time>2010-01-27T11:18:37Z</time></trkpt>
	<trkpt lat="51.77757" lon="-1.825605"><ele>159.000000</ele><time>2010-01-27T11:18:42Z</time></trkpt>
	<trkpt lat="51.77760833" lon="-1.825658333"><ele>159.000000</ele><time>2010-01-27T11:18:47Z</time></trkpt>
	<trkpt lat="51.777645" lon="-1.825715"><ele>159.000000</ele><time>2010-01-27T11:18:52Z</time></trkpt>
	<trkpt lat="51.77768" lon="-1.825768333"><ele>159.000000</ele><time>2010-01-27T11:18:57Z</time></trkpt>
	<trkpt lat="51.777715" lon="-1.825826667"><ele>159.000000</ele><time>2010-01-27T11:19:02Z</time></trkpt>
	<trkpt lat="51.777755" lon="-1.825886667"><ele>159.000000</ele><time>2010-01-27T11:19:07Z</time></trkpt>
	<trkpt lat="51.77778833" lon="-1.825945"><ele>159.000000</ele><time>2010-01-27T11:19:12Z</time></trkpt>
	<trkpt lat="51.77782333" lon="-1.826003333"><ele>159.000000</ele><time>2010-01-27T11:19:17Z</time></trkpt>
	<trkpt lat="51.77785833" lon="-1.826066667"><ele>159.000000</ele><time>2010-01-27T11:19:22Z</time></trkpt>
	<trkpt lat="51.777895" lon="-1.826125"><ele>159.000000</ele><time>2010-01-27T11:19:27Z</time></trkpt>
	<trkpt lat="51.777935" lon="-1.826181667"><ele>159.000000</ele><time>2010-01-27T11:19:32Z</time></trkpt>
	<trkpt lat="51.77797333" lon="-1.826233333"><ele>159.000000</ele><time>2010-01-27T11:19:37Z</time></trkpt>
	<trkpt lat="51.77801167" lon="-1.826286667"><ele>159.000000</ele><time>2010-01-27T11:19:42Z</time></trkpt>
	<trkpt lat="51.77804833" lon="-1.82634"><ele>159.000000</ele><time>2010-01-27T11:19:47Z</time></trkpt>
	<trkpt lat="51.77809" lon="-1.826388333"><ele>159.000000</ele><time>2010-01-27T11:19:52Z</time></trkpt>
	<trkpt lat="51.77813167" lon="-1.82644"><ele>159.000000</ele><time>2010-01-27T11:19:57Z</time></trkpt>
	<trkpt lat="51.77817" lon="-1.826488333"><ele>159.000000</ele><time>2010-01-27T11:20:02Z</time></trkpt>
	<trkpt lat="51.77820667" lon="-1.826533333"><ele>159.000000</ele><time>2010-01-27T11:20:07Z</time></trkpt>
	<trkpt lat="51.77824333" lon="-1.826576667"><ele>160.000000</ele><time>2010-01-27T11:20:12Z</time></trkpt>
	<trkpt lat="51.77828167" lon="-1.826618333"><ele>160.000000</ele><time>2010-01-27T11:20:17Z</time></trkpt>
	<trkpt lat="51.77831833" lon="-1.826668333"><ele>160.000000</ele><time>2010-01-27T11:20:22Z</time></trkpt>
	<trkpt lat="51.77835833" lon="-1.826715"><ele>160.000000</ele><time>2010-01-27T11:20:27Z</time></trkpt>
	<trkpt lat="51.778395" lon="-1.82676"><ele>160.000000</ele><time>2010-01-27T11:20:32Z</time></trkpt>
	<trkpt lat="51.77843333" lon="-1.826806667"><ele>160.000000</ele><time>2010-01-27T11:20:37Z</time></trkpt>
	<trkpt lat="51.77848" lon="-1.826838333"><ele>159.000000</ele><time>2010-01-27T11:20:42Z</time></trkpt>
	<trkpt lat="51.77851833" lon="-1.826878333"><ele>159.000000</ele><time>2010-01-27T11:20:47Z</time></trkpt>
	<trkpt lat="51.77856167" lon="-1.826916667"><ele>159.000000</ele><time>2010-01-27T11:20:52Z</time></trkpt>
	<trkpt lat="51.7786" lon="-1.826953333"><ele>159.000000</ele><time>2010-01-27T11:20:57Z</time></trkpt>
	<trkpt lat="51.77864167" lon="-1.82699"><ele>159.000000</ele><time>2010-01-27T11:21:02Z</time></trkpt>
	<trkpt lat="51.778685" lon="-1.827028333"><ele>159.000000</ele><time>2010-01-27T11:21:07Z</time></trkpt>
	<trkpt lat="51.77872667" lon="-1.827066667"><ele>159.000000</ele><time>2010-01-27T11:21:12Z</time></trkpt>
	<trkpt lat="51.77877167" lon="-1.827103333"><ele>159.000000</ele><time>2010-01-27T11:21:17Z</time></trkpt>
	<trkpt lat="51.778815" lon="-1.827141667"><ele>159.000000</ele><time>2010-01-27T11:21:22Z</time></trkpt>
	<trkpt lat="51.77886167" lon="-1.827175"><ele>158.000000</ele><time>2010-01-27T11:21:27Z</time></trkpt>
	<trkpt lat="51.77890667" lon="-1.827203333"><ele>158.000000</ele><time>2010-01-27T11:21:32Z</time></trkpt>
	<trkpt lat="51.77895833" lon="-1.827223333"><ele>158.000000</ele><time>2010-01-27T11:21:37Z</time></trkpt>
	<trkpt lat="51.77901167" lon="-1.827241667"><ele>157.000000</ele><time>2010-01-27T11:21:42Z</time></trkpt>
	<trkpt lat="51.77907" lon="-1.827251667"><ele>156.000000</ele><time>2010-01-27T11:21:47Z</time></trkpt>
	<trkpt lat="51.77911667" lon="-1.827245"><ele>156.000000</ele><time>2010-01-27T11:21:52Z</time></trkpt>
	<trkpt lat="51.77916833" lon="-1.827243333"><ele>155.000000</ele><time>2010-01-27T11:21:57Z</time></trkpt>
	<trkpt lat="51.77921667" lon="-1.827241667"><ele>155.000000</ele><time>2010-01-27T11:22:02Z</time></trkpt>
	<trkpt lat="51.77927" lon="-1.827245"><ele>155.000000</ele><time>2010-01-27T11:22:07Z</time></trkpt>
	<trkpt lat="51.77931833" lon="-1.827236667"><ele>155.000000</ele><time>2010-01-27T11:22:12Z</time></trkpt>
	<trkpt lat="51.77936667" lon="-1.827238333"><ele>155.000000</ele><time>2010-01-27T11:22:17Z</time></trkpt>
	<trkpt lat="51.77940833" lon="-1.827246667"><ele>155.000000</ele><time>2010-01-27T11:22:22Z</time></trkpt>
	<trkpt lat="51.77945333" lon="-1.827261667"><ele>155.000000</ele><time>2010-01-27T11:22:27Z</time></trkpt>
	<trkpt lat="51.77949833" lon="-1.827273333"><ele>155.000000</ele><time>2010-01-27T11:22:32Z</time></trkpt>
	<trkpt lat="51.77953833" lon="-1.827293333"><ele>155.000000</ele><time>2010-01-27T11:22:37Z</time></trkpt>
	<trkpt lat="51.77958333" lon="-1.827316667"><ele>155.000000</ele><time>2010-01-27T11:22:42Z</time></trkpt>
	<trkpt lat="51.77962667" lon="-1.827351667"><ele>155.000000</ele><time>2010-01-27T11:22:47Z</time></trkpt>
	<trkpt lat="51.77966833" lon="-1.827391667"><ele>156.000000</ele><time>2010-01-27T11:22:52Z</time></trkpt>
	<trkpt lat="51.77970833" lon="-1.82743"><ele>156.000000</ele><time>2010-01-27T11:22:57Z</time></trkpt>
	<trkpt lat="51.77975333" lon="-1.82747"><ele>156.000000</ele><time>2010-01-27T11:23:02Z</time></trkpt>
	<trkpt lat="51.77979167" lon="-1.827506667"><ele>156.000000</ele><time>2010-01-27T11:23:07Z</time></trkpt>
	<trkpt lat="51.77983333" lon="-1.827543333"><ele>156.000000</ele><time>2010-01-27T11:23:12Z</time></trkpt>
	<trkpt lat="51.77987667" lon="-1.827581667"><ele>156.000000</ele><time>2010-01-27T11:23:17Z</time></trkpt>
	<trkpt lat="51.77991833" lon="-1.82762"><ele>156.000000</ele><time>2010-01-27T11:23:22Z</time></trkpt>
	<trkpt lat="51.77996167" lon="-1.82766"><ele>157.000000</ele><time>2010-01-27T11:23:27Z</time></trkpt>
	<trkpt lat="51.780005" lon="-1.827698333"><ele>157.000000</ele><time>2010-01-27T11:23:32Z</time></trkpt>
	<trkpt lat="51.78004333" lon="-1.82774"><ele>157.000000</ele><time>2010-01-27T11:23:37Z</time></trkpt>
	<trkpt lat="51.78008167" lon="-1.827778333"><ele>157.000000</ele><time>2010-01-27T11:23:42Z</time></trkpt>
	<trkpt lat="51.78012167" lon="-1.827815"><ele>157.000000</ele><time>2010-01-27T11:23:47Z</time></trkpt>
	<trkpt lat="51.78016333" lon="-1.827855"><ele>158.000000</ele><time>2010-01-27T11:23:52Z</time></trkpt>
	<trkpt lat="51.78020333" lon="-1.827895"><ele>158.000000</ele><time>2010-01-27T11:23:57Z</time></trkpt>
	<trkpt lat="51.78024333" lon="-1.827938333"><ele>158.000000</ele><time>2010-01-27T11:24:02Z</time></trkpt>
	<trkpt lat="51.78028333" lon="-1.827986667"><ele>158.000000</ele><time>2010-01-27T11:24:07Z</time></trkpt>
	<trkpt lat="51.78032333" lon="-1.828031667"><ele>158.000000</ele><time>2010-01-27T11:24:12Z</time></trkpt>
	<trkpt lat="51.780365" lon="-1.828076667"><ele>159.000000</ele><time>2010-01-27T11:24:17Z</time></trkpt>
	<trkpt lat="51.78040167" lon="-1.828125"><ele>159.000000</ele><time>2010-01-27T11:24:22Z</time></trkpt>
	<trkpt lat="51.78043833" lon="-1.828173333"><ele>159.000000</ele><time>2010-01-27T11:24:27Z</time></trkpt>
	<trkpt lat="51.78047333" lon="-1.828221667"><ele>159.000000</ele><time>2010-01-27T11:24:32Z</time></trkpt>
	<trkpt lat="51.780515" lon="-1.828271667"><ele>159.000000</ele><time>2010-01-27T11:24:37Z</time></trkpt>
	<trkpt lat="51.78055167" lon="-1.828323333"><ele>160.000000</ele><time>2010-01-27T11:24:42Z</time></trkpt>
	<trkpt lat="51.78058833" lon="-1.828376667"><ele>160.000000</ele><time>2010-01-27T11:24:47Z</time></trkpt>
	<trkpt lat="51.78062667" lon="-1.828433333"><ele>161.000000</ele><time>2010-01-27T11:24:52Z</time></trkpt>
	<trkpt lat="51.78066167" lon="-1.828491667"><ele>161.000000</ele><time>2010-01-27T11:24:57Z</time></trkpt>
	<trkpt lat="51.780695" lon="-1.828545"><ele>161.000000</ele><time>2010-01-27T11:25:02Z</time></trkpt>
	<trkpt lat="51.780725" lon="-1.828598333"><ele>162.000000</ele><time>2010-01-27T11:25:07Z</time></trkpt>
	<trkpt lat="51.78075833" lon="-1.828651667"><ele>162.000000</ele><time>2010-01-27T11:25:12Z</time></trkpt>
	<trkpt lat="51.78079" lon="-1.828711667"><ele>163.000000</ele><time>2010-01-27T11:25:17Z</time></trkpt>
	<trkpt lat="51.78082167" lon="-1.828773333"><ele>163.000000</ele><time>2010-01-27T11:25:22Z</time></trkpt>
	<trkpt lat="51.78085333" lon="-1.828836667"><ele>163.000000</ele><time>2010-01-27T11:25:27Z</time></trkpt>
	<trkpt lat="51.780885" lon="-1.828898333"><ele>163.000000</ele><time>2010-01-27T11:25:32Z</time></trkpt>
	<trkpt lat="51.780915" lon="-1.828953333"><ele>164.000000</ele><time>2010-01-27T11:25:37Z</time></trkpt>
	<trkpt lat="51.780945" lon="-1.829015"><ele>164.000000</ele><time>2010-01-27T11:25:42Z</time></trkpt>
	<trkpt lat="51.780975" lon="-1.829073333"><ele>164.000000</ele><time>2010-01-27T11:25:47Z</time></trkpt>
	<trkpt lat="51.78100833" lon="-1.829136667"><ele>165.000000</ele><time>2010-01-27T11:25:52Z</time></trkpt>
	<trkpt lat="51.78104" lon="-1.8292"><ele>165.000000</ele><time>2010-01-27T11:25:57Z</time></trkpt>
	<trkpt lat="51.78107167" lon="-1.829265"><ele>165.000000</ele><time>2010-01-27T11:26:02Z</time></trkpt>
	<trkpt lat="51.78110333" lon="-1.82933"><ele>165.000000</ele><time>2010-01-27T11:26:07Z</time></trkpt>
	<trkpt lat="51.781135" lon="-1.829398333"><ele>165.000000</ele><time>2010-01-27T11:26:12Z</time></trkpt>
	<trkpt lat="51.78116833" lon="-1.829463333"><ele>165.000000</ele><time>2010-01-27T11:26:17Z</time></trkpt>
	<trkpt lat="51.7812" lon="-1.829528333"><ele>165.000000</ele><time>2010-01-27T11:26:22Z</time></trkpt>
	<trkpt lat="51.78123" lon="-1.82959"><ele>165.000000</ele><time>2010-01-27T11:26:27Z</time></trkpt>
	<trkpt lat="51.781265" lon="-1.829655"><ele>165.000000</ele><time>2010-01-27T11:26:32Z</time></trkpt>
	<trkpt lat="51.78130167" lon="-1.829715"><ele>165.000000</ele><time>2010-01-27T11:26:37Z</time></trkpt>
	<trkpt lat="51.781335" lon="-1.829771667"><ele>165.000000</ele><time>2010-01-27T11:26:42Z</time></trkpt>
	<trkpt lat="51.78136333" lon="-1.82983"><ele>164.000000</ele><time>2010-01-27T11:26:47Z</time></trkpt>
	<trkpt lat="51.78136833" lon="-1.829843333"><ele>163.000000</ele><time>2010-01-27T11:26:52Z</time></trkpt>
	<trkpt lat="51.78137667" lon="-1.829853333"><ele>160.000000</ele><time>2010-01-27T11:26:57Z</time></trkpt>
	<trkpt lat="51.781385" lon="-1.829858333"><ele>158.000000</ele><time>2010-01-27T11:27:02Z</time></trkpt>
	<trkpt lat="51.78138833" lon="-1.829851667"><ele>157.000000</ele><time>2010-01-27T11:27:07Z</time></trkpt>
	<trkpt lat="51.78139333" lon="-1.829841667"><ele>158.000000</ele><time>2010-01-27T11:27:12Z</time></trkpt>
	<trkpt lat="51.78139833" lon="-1.829841667"><ele>158.000000</ele><time>2010-01-27T11:27:17Z</time></trkpt>
	<trkpt lat="51.78140333" lon="-1.829841667"><ele>158.000000</ele><time>2010-01-27T11:27:22Z</time></trkpt>
	<trkpt lat="51.78140833" lon="-1.82984"><ele>157.000000</ele><time>2010-01-27T11:27:27Z</time></trkpt>
	<trkpt lat="51.781415" lon="-1.829838333"><ele>158.000000</ele><time>2010-01-27T11:27:32Z</time></trkpt>
	<trkpt lat="51.781405" lon="-1.829846667"><ele>157.000000</ele><time>2010-01-27T11:27:37Z</time></trkpt>
	<trkpt lat="51.78140333" lon="-1.829858333"><ele>156.000000</ele><time>2010-01-27T11:27:42Z</time></trkpt>
	<trkpt lat="51.78141333" lon="-1.829896667"><ele>156.000000</ele><time>2010-01-27T11:27:47Z</time></trkpt>
	<trkpt lat="51.78140833" lon="-1.829943333"><ele>157.000000</ele><time>2010-01-27T11:27:52Z</time></trkpt>
	<trkpt lat="51.78141" lon="-1.829985"><ele>158.000000</ele><time>2010-01-27T11:27:57Z</time></trkpt>
	<trkpt lat="51.78141333" lon="-1.82999"><ele>158.000000</ele><time>2010-01-27T11:28:02Z</time></trkpt>
	<trkpt lat="51.78141333" lon="-1.829993333"><ele>158.000000</ele><time>2010-01-27T11:28:07Z</time></trkpt>
	<trkpt lat="51.78140833" lon="-1.83"><ele>159.000000</ele><time>2010-01-27T11:28:12Z</time></trkpt>
	<trkpt lat="51.781405" lon="-1.830005"><ele>159.000000</ele><time>2010-01-27T11:28:17Z</time></trkpt>
	<trkpt lat="51.78140667" lon="-1.830025"><ele>160.000000</ele><time>2010-01-27T11:28:22Z</time></trkpt>
	<trkpt lat="51.78140833" lon="-1.830028333"><ele>160.000000</ele><time>2010-01-27T11:28:27Z</time></trkpt>
	<trkpt lat="51.781405" lon="-1.830015"><ele>162.000000</ele><time>2010-01-27T11:28:32Z</time></trkpt>
	<trkpt lat="51.78141" lon="-1.83"><ele>163.000000</ele><time>2010-01-27T11:28:37Z</time></trkpt>
	<trkpt lat="51.78142333" lon="-1.829991667"><ele>165.000000</ele><time>2010-01-27T11:28:42Z</time></trkpt>
	<trkpt lat="51.78140333" lon="-1.830003333"><ele>165.000000</ele><time>2010-01-27T11:28:47Z</time></trkpt>
	<trkpt lat="51.78139833" lon="-1.830013333"><ele>166.000000</ele><time>2010-01-27T11:28:52Z</time></trkpt>
	<trkpt lat="51.78138333" lon="-1.830035"><ele>163.000000</ele><time>2010-01-27T11:28:57Z</time></trkpt>
	<trkpt lat="51.78139" lon="-1.830048333"><ele>161.000000</ele><time>2010-01-27T11:29:02Z</time></trkpt>
	<trkpt lat="51.78138833" lon="-1.830043333"><ele>162.000000</ele><time>2010-01-27T11:29:07Z</time></trkpt>
	<trkpt lat="51.78138" lon="-1.830036667"><ele>162.000000</ele><time>2010-01-27T11:29:12Z</time></trkpt>
	<trkpt lat="51.78137833" lon="-1.830033333"><ele>161.000000</ele><time>2010-01-27T11:29:17Z</time></trkpt>
	<trkpt lat="51.78137167" lon="-1.830041667"><ele>159.000000</ele><time>2010-01-27T11:29:22Z</time></trkpt>
	<trkpt lat="51.781365" lon="-1.830046667"><ele>158.000000</ele><time>2010-01-27T11:29:27Z</time></trkpt>
	<trkpt lat="51.78136" lon="-1.830053333"><ele>157.000000</ele><time>2010-01-27T11:29:32Z</time></trkpt>
	<trkpt lat="51.78136167" lon="-1.830051667"><ele>155.000000</ele><time>2010-01-27T11:29:37Z</time></trkpt>
	<trkpt lat="51.781355" lon="-1.830056667"><ele>154.000000</ele><time>2010-01-27T11:29:42Z</time></trkpt>
	<trkpt lat="51.78135" lon="-1.83006"><ele>154.000000</ele><time>2010-01-27T11:29:47Z</time></trkpt>
	<trkpt lat="51.781345" lon="-1.830065"><ele>154.000000</ele><time>2010-01-27T11:29:52Z</time></trkpt>
	<trkpt lat="51.78134" lon="-1.830066667"><ele>154.000000</ele><time>2010-01-27T11:29:57Z</time></trkpt>
	<trkpt lat="51.78133833" lon="-1.830068333"><ele>154.000000</ele><time>2010-01-27T11:30:02Z</time></trkpt>
	<trkpt lat="51.781335" lon="-1.830066667"><ele>154.000000</ele><time>2010-01-27T11:30:07Z</time></trkpt>
	<trkpt lat="51.78133167" lon="-1.830071667"><ele>154.000000</ele><time>2010-01-27T11:30:12Z</time></trkpt>
	<trkpt lat="51.78132833" lon="-1.830075"><ele>154.000000</ele><time>2010-01-27T11:30:17Z</time></trkpt>
	<trkpt lat="51.781325" lon="-1.830078333"><ele>154.000000</ele><time>2010-01-27T11:30:22Z</time></trkpt>
	<trkpt lat="51.78132" lon="-1.830085"><ele>154.000000</ele><time>2010-01-27T11:30:27Z</time></trkpt>
	<trkpt lat="51.781315" lon="-1.83009"><ele>154.000000</ele><time>2010-01-27T11:30:32Z</time></trkpt>
	<trkpt lat="51.78131833" lon="-1.830088333"><ele>154.000000</ele><time>2010-01-27T11:30:37Z</time></trkpt>
	<trkpt lat="51.78131667" lon="-1.83009"><ele>154.000000</ele><time>2010-01-27T11:30:42Z</time></trkpt>
	<trkpt lat="51.78133" lon="-1.83007"><ele>155.000000</ele><time>2010-01-27T11:30:47Z</time></trkpt>
	<trkpt lat="51.78132833" lon="-1.830118333"><ele>158.000000</ele><time>2010-01-27T11:30:52Z</time></trkpt>
	<trkpt lat="51.78133167" lon="-1.830196667"><ele>160.000000</ele><time>2010-01-27T11:30:57Z</time></trkpt>
	<trkpt lat="51.78134667" lon="-1.830295"><ele>161.000000</ele><time>2010-01-27T11:31:02Z</time></trkpt>
	<trkpt lat="51.781365" lon="-1.830383333"><ele>161.000000</ele><time>2010-01-27T11:31:07Z</time></trkpt>
	<trkpt lat="51.78138" lon="-1.830448333"><ele>161.000000</ele><time>2010-01-27T11:31:12Z</time></trkpt>
	<trkpt lat="51.78138" lon="-1.830526667"><ele>161.000000</ele><time>2010-01-27T11:31:17Z</time></trkpt>
	<trkpt lat="51.78139167" lon="-1.830611667"><ele>161.000000</ele><time>2010-01-27T11:31:22Z</time></trkpt>
	<trkpt lat="51.781395" lon="-1.830665"><ele>162.000000</ele><time>2010-01-27T11:31:27Z</time></trkpt>
	<trkpt lat="51.781405" lon="-1.830711667"><ele>162.000000</ele><time>2010-01-27T11:31:32Z</time></trkpt>
	<trkpt lat="51.78140833" lon="-1.830716667"><ele>162.000000</ele><time>2010-01-27T11:31:37Z</time></trkpt>
	<trkpt lat="51.78141" lon="-1.830716667"><ele>161.000000</ele><time>2010-01-27T11:31:42Z</time></trkpt>
	<trkpt lat="51.78141" lon="-1.83072"><ele>161.000000</ele><time>2010-01-27T11:31:47Z</time></trkpt>
	<trkpt lat="51.781415" lon="-1.830725"><ele>161.000000</ele><time>2010-01-27T11:31:52Z</time></trkpt>
	<trkpt lat="51.781415" lon="-1.830731667"><ele>160.000000</ele><time>2010-01-27T11:31:57Z</time></trkpt>
	<trkpt lat="51.78141333" lon="-1.83074"><ele>159.000000</ele><time>2010-01-27T11:32:02Z</time></trkpt>
	<trkpt lat="51.78141667" lon="-1.830743333"><ele>159.000000</ele><time>2010-01-27T11:32:07Z</time></trkpt>
	<trkpt lat="51.78141" lon="-1.830748333"><ele>159.000000</ele><time>2010-01-27T11:32:12Z</time></trkpt>
	<trkpt lat="51.78138333" lon="-1.830745"><ele>159.000000</ele><time>2010-01-27T11:32:17Z</time></trkpt>
	<trkpt lat="51.78134333" lon="-1.830741667"><ele>159.000000</ele><time>2010-01-27T11:32:22Z</time></trkpt>
	<trkpt lat="51.78130333" lon="-1.830756667"><ele>160.000000</ele><time>2010-01-27T11:32:27Z</time></trkpt>
	<trkpt lat="51.78126" lon="-1.830771667"><ele>160.000000</ele><time>2010-01-27T11:32:32Z</time></trkpt>
	<trkpt lat="51.78122" lon="-1.830813333"><ele>160.000000</ele><time>2010-01-27T11:32:37Z</time></trkpt>
	<trkpt lat="51.78118" lon="-1.830856667"><ele>160.000000</ele><time>2010-01-27T11:32:42Z</time></trkpt>
	<trkpt lat="51.78114667" lon="-1.830903333"><ele>160.000000</ele><time>2010-01-27T11:32:47Z</time></trkpt>
	<trkpt lat="51.78114833" lon="-1.830916667"><ele>160.000000</ele><time>2010-01-27T11:32:52Z</time></trkpt>
	<trkpt lat="51.78114833" lon="-1.830923333"><ele>161.000000</ele><time>2010-01-27T11:32:57Z</time></trkpt>
	<trkpt lat="51.78114667" lon="-1.830935"><ele>161.000000</ele><time>2010-01-27T11:33:02Z</time></trkpt>
	<trkpt lat="51.78110833" lon="-1.830956667"><ele>161.000000</ele><time>2010-01-27T11:33:07Z</time></trkpt>
	<trkpt lat="51.78105" lon="-1.831026667"><ele>161.000000</ele><time>2010-01-27T11:33:12Z</time></trkpt>
	<trkpt lat="51.78100333" lon="-1.83108"><ele>161.000000</ele><time>2010-01-27T11:33:17Z</time></trkpt>
	<trkpt lat="51.78096333" lon="-1.831138333"><ele>161.000000</ele><time>2010-01-27T11:33:22Z</time></trkpt>
	<trkpt lat="51.78092" lon="-1.831198333"><ele>161.000000</ele><time>2010-01-27T11:33:27Z</time></trkpt>
	<trkpt lat="51.78088333" lon="-1.831261667"><ele>161.000000</ele><time>2010-01-27T11:33:32Z</time></trkpt>
	<trkpt lat="51.78084667" lon="-1.831318333"><ele>161.000000</ele><time>2010-01-27T11:33:37Z</time></trkpt>
	<trkpt lat="51.78081" lon="-1.831373333"><ele>162.000000</ele><time>2010-01-27T11:33:42Z</time></trkpt>
	<trkpt lat="51.780795" lon="-1.83142"><ele>163.000000</ele><time>2010-01-27T11:33:47Z</time></trkpt>
	<trkpt lat="51.7808" lon="-1.831418333"><ele>163.000000</ele><time>2010-01-27T11:33:52Z</time></trkpt>
	<trkpt lat="51.7808" lon="-1.831418333"><ele>164.000000</ele><time>2010-01-27T11:33:57Z</time></trkpt>
	<trkpt lat="51.78077667" lon="-1.831476667"><ele>164.000000</ele><time>2010-01-27T11:34:02Z</time></trkpt>
	<trkpt lat="51.78074333" lon="-1.831523333"><ele>164.000000</ele><time>2010-01-27T11:34:07Z</time></trkpt>
	<trkpt lat="51.78071167" lon="-1.831576667"><ele>164.000000</ele><time>2010-01-27T11:34:12Z</time></trkpt>
	<trkpt lat="51.78067833" lon="-1.831625"><ele>164.000000</ele><time>2010-01-27T11:34:17Z</time></trkpt>
	<trkpt lat="51.78064333" lon="-1.831678333"><ele>164.000000</ele><time>2010-01-27T11:34:22Z</time></trkpt>
	<trkpt lat="51.78061" lon="-1.83172"><ele>164.000000</ele><time>2010-01-27T11:34:27Z</time></trkpt>
	<trkpt lat="51.78058" lon="-1.831768333"><ele>164.000000</ele><time>2010-01-27T11:34:32Z</time></trkpt>
	<trkpt lat="51.78054833" lon="-1.83181"><ele>164.000000</ele><time>2010-01-27T11:34:37Z</time></trkpt>
	<trkpt lat="51.78052167" lon="-1.83185"><ele>163.000000</ele><time>2010-01-27T11:34:42Z</time></trkpt>
	<trkpt lat="51.78049333" lon="-1.831898333"><ele>163.000000</ele><time>2010-01-27T11:34:47Z</time></trkpt>
	<trkpt lat="51.78046333" lon="-1.831941667"><ele>163.000000</ele><time>2010-01-27T11:34:52Z</time></trkpt>
	<trkpt lat="51.78043333" lon="-1.83199"><ele>163.000000</ele><time>2010-01-27T11:34:57Z</time></trkpt>
	<trkpt lat="51.78039833" lon="-1.832038333"><ele>163.000000</ele><time>2010-01-27T11:35:02Z</time></trkpt>
	<trkpt lat="51.78038333" lon="-1.832075"><ele>164.000000</ele><time>2010-01-27T11:35:07Z</time></trkpt>
	<trkpt lat="51.780365" lon="-1.832106667"><ele>164.000000</ele><time>2010-01-27T11:35:12Z</time></trkpt>
	<trkpt lat="51.78034167" lon="-1.832143333"><ele>164.000000</ele><time>2010-01-27T11:35:17Z</time></trkpt>
	<trkpt lat="51.78030833" lon="-1.832191667"><ele>164.000000</ele><time>2010-01-27T11:35:22Z</time></trkpt>
	<trkpt lat="51.78028667" lon="-1.832225"><ele>164.000000</ele><time>2010-01-27T11:35:27Z</time></trkpt>
	<trkpt lat="51.78025333" lon="-1.832275"><ele>164.000000</ele><time>2010-01-27T11:35:32Z</time></trkpt>
	<trkpt lat="51.78022667" lon="-1.832321667"><ele>165.000000</ele><time>2010-01-27T11:35:37Z</time></trkpt>
	<trkpt lat="51.78019833" lon="-1.832375"><ele>165.000000</ele><time>2010-01-27T11:35:42Z</time></trkpt>
	<trkpt lat="51.78015667" lon="-1.832425"><ele>165.000000</ele><time>2010-01-27T11:35:47Z</time></trkpt>
	<trkpt lat="51.78011333" lon="-1.832481667"><ele>165.000000</ele><time>2010-01-27T11:35:52Z</time></trkpt>
	<trkpt lat="51.780095" lon="-1.832526667"><ele>166.000000</ele><time>2010-01-27T11:35:57Z</time></trkpt>
	<trkpt lat="51.78006" lon="-1.83258"><ele>165.000000</ele><time>2010-01-27T11:36:02Z</time></trkpt>
	<trkpt lat="51.78003" lon="-1.83263"><ele>165.000000</ele><time>2010-01-27T11:36:07Z</time></trkpt>
	<trkpt lat="51.77999833" lon="-1.832683333"><ele>165.000000</ele><time>2010-01-27T11:36:12Z</time></trkpt>
	<trkpt lat="51.77996667" lon="-1.832733333"><ele>165.000000</ele><time>2010-01-27T11:36:17Z</time></trkpt>
	<trkpt lat="51.77993833" lon="-1.83278"><ele>166.000000</ele><time>2010-01-27T11:36:22Z</time></trkpt>
	<trkpt lat="51.77990333" lon="-1.832821667"><ele>166.000000</ele><time>2010-01-27T11:36:27Z</time></trkpt>
	<trkpt lat="51.77987833" lon="-1.83288"><ele>166.000000</ele><time>2010-01-27T11:36:32Z</time></trkpt>
	<trkpt lat="51.77984333" lon="-1.832933333"><ele>166.000000</ele><time>2010-01-27T11:36:37Z</time></trkpt>
	<trkpt lat="51.77981167" lon="-1.832983333"><ele>166.000000</ele><time>2010-01-27T11:36:42Z</time></trkpt>
	<trkpt lat="51.77979167" lon="-1.833036667"><ele>165.000000</ele><time>2010-01-27T11:36:47Z</time></trkpt>
	<trkpt lat="51.779765" lon="-1.83309"><ele>165.000000</ele><time>2010-01-27T11:36:52Z</time></trkpt>
	<trkpt lat="51.77973667" lon="-1.833123333"><ele>164.000000</ele><time>2010-01-27T11:36:57Z</time></trkpt>
	<trkpt lat="51.77972333" lon="-1.833153333"><ele>165.000000</ele><time>2010-01-27T11:37:02Z</time></trkpt>
	<trkpt lat="51.77969333" lon="-1.833193333"><ele>165.000000</ele><time>2010-01-27T11:37:07Z</time></trkpt>
	<trkpt lat="51.77966667" lon="-1.83324"><ele>165.000000</ele><time>2010-01-27T11:37:12Z</time></trkpt>
	<trkpt lat="51.77963333" lon="-1.833286667"><ele>165.000000</ele><time>2010-01-27T11:37:17Z</time></trkpt>
	<trkpt lat="51.7796" lon="-1.833336667"><ele>165.000000</ele><time>2010-01-27T11:37:22Z</time></trkpt>
	<trkpt lat="51.77956833" lon="-1.833386667"><ele>165.000000</ele><time>2010-01-27T11:37:27Z</time></trkpt>
	<trkpt lat="51.77953667" lon="-1.83344"><ele>165.000000</ele><time>2010-01-27T11:37:32Z</time></trkpt>
	<trkpt lat="51.77950667" lon="-1.833491667"><ele>165.000000</ele><time>2010-01-27T11:37:37Z</time></trkpt>
	<trkpt lat="51.77947667" lon="-1.83354"><ele>165.000000</ele><time>2010-01-27T11:37:42Z</time></trkpt>
	<trkpt lat="51.779445" lon="-1.833588333"><ele>165.000000</ele><time>2010-01-27T11:37:47Z</time></trkpt>
	<trkpt lat="51.77941167" lon="-1.833636667"><ele>165.000000</ele><time>2010-01-27T11:37:52Z</time></trkpt>
	<trkpt lat="51.77938167" lon="-1.833685"><ele>165.000000</ele><time>2010-01-27T11:37:57Z</time></trkpt>
	<trkpt lat="51.77934833" lon="-1.833728333"><ele>165.000000</ele><time>2010-01-27T11:38:02Z</time></trkpt>
	<trkpt lat="51.77931667" lon="-1.833776667"><ele>165.000000</ele><time>2010-01-27T11:38:07Z</time></trkpt>
	<trkpt lat="51.779285" lon="-1.833825"><ele>165.000000</ele><time>2010-01-27T11:38:12Z</time></trkpt>
	<trkpt lat="51.779255" lon="-1.833873333"><ele>165.000000</ele><time>2010-01-27T11:38:17Z</time></trkpt>
	<trkpt lat="51.779225" lon="-1.833923333"><ele>165.000000</ele><time>2010-01-27T11:38:22Z</time></trkpt>
	<trkpt lat="51.77919" lon="-1.833978333"><ele>165.000000</ele><time>2010-01-27T11:38:27Z</time></trkpt>
	<trkpt lat="51.779155" lon="-1.834035"><ele>165.000000</ele><time>2010-01-27T11:38:32Z</time></trkpt>
	<trkpt lat="51.77912333" lon="-1.834093333"><ele>165.000000</ele><time>2010-01-27T11:38:37Z</time></trkpt>
	<trkpt lat="51.779085" lon="-1.834148333"><ele>165.000000</ele><time>2010-01-27T11:38:42Z</time></trkpt>
	<trkpt lat="51.77905" lon="-1.834203333"><ele>165.000000</ele><time>2010-01-27T11:38:47Z</time></trkpt>
	<trkpt lat="51.77902167" lon="-1.834248333"><ele>165.000000</ele><time>2010-01-27T11:38:52Z</time></trkpt>
	<trkpt lat="51.77898833" lon="-1.834298333"><ele>166.000000</ele><time>2010-01-27T11:38:57Z</time></trkpt>
	<trkpt lat="51.778955" lon="-1.834351667"><ele>166.000000</ele><time>2010-01-27T11:39:02Z</time></trkpt>
	<trkpt lat="51.77892167" lon="-1.834406667"><ele>166.000000</ele><time>2010-01-27T11:39:07Z</time></trkpt>
	<trkpt lat="51.77888833" lon="-1.834465"><ele>166.000000</ele><time>2010-01-27T11:39:12Z</time></trkpt>
	<trkpt lat="51.77885333" lon="-1.834523333"><ele>166.000000</ele><time>2010-01-27T11:39:17Z</time></trkpt>
	<trkpt lat="51.77881667" lon="-1.834581667"><ele>166.000000</ele><time>2010-01-27T11:39:22Z</time></trkpt>
	<trkpt lat="51.77878167" lon="-1.834636667"><ele>166.000000</ele><time>2010-01-27T11:39:27Z</time></trkpt>
	<trkpt lat="51.778745" lon="-1.834686667"><ele>165.000000</ele><time>2010-01-27T11:39:32Z</time></trkpt>
	<trkpt lat="51.77871" lon="-1.834735"><ele>165.000000</ele><time>2010-01-27T11:39:37Z</time></trkpt>
	<trkpt lat="51.778675" lon="-1.834786667"><ele>166.000000</ele><time>2010-01-27T11:39:42Z</time></trkpt>
	<trkpt lat="51.77864167" lon="-1.834843333"><ele>165.000000</ele><time>2010-01-27T11:39:47Z</time></trkpt>
	<trkpt lat="51.77861" lon="-1.834898333"><ele>165.000000</ele><time>2010-01-27T11:39:52Z</time></trkpt>
	<trkpt lat="51.77857833" lon="-1.834958333"><ele>165.000000</ele><time>2010-01-27T11:39:57Z</time></trkpt>
	<trkpt lat="51.77854333" lon="-1.835011667"><ele>165.000000</ele><time>2010-01-27T11:40:02Z</time></trkpt>
	<trkpt lat="51.77851167" lon="-1.835071667"><ele>165.000000</ele><time>2010-01-27T11:40:07Z</time></trkpt>
	<trkpt lat="51.77848" lon="-1.835121667"><ele>165.000000</ele><time>2010-01-27T11:40:12Z</time></trkpt>
	<trkpt lat="51.77844833" lon="-1.835173333"><ele>165.000000</ele><time>2010-01-27T11:40:17Z</time></trkpt>
	<trkpt lat="51.77842" lon="-1.835231667"><ele>164.000000</ele><time>2010-01-27T11:40:22Z</time></trkpt>
	<trkpt lat="51.77839" lon="-1.835283333"><ele>164.000000</ele><time>2010-01-27T11:40:27Z</time></trkpt>
	<trkpt lat="51.77836" lon="-1.835336667"><ele>164.000000</ele><time>2010-01-27T11:40:32Z</time></trkpt>
	<trkpt lat="51.77832333" lon="-1.835391667"><ele>164.000000</ele><time>2010-01-27T11:40:37Z</time></trkpt>
	<trkpt lat="51.77829" lon="-1.835446667"><ele>164.000000</ele><time>2010-01-27T11:40:42Z</time></trkpt>
	<trkpt lat="51.77826" lon="-1.835496667"><ele>164.000000</ele><time>2010-01-27T11:40:47Z</time></trkpt>
	<trkpt lat="51.77823333" lon="-1.835541667"><ele>163.000000</ele><time>2010-01-27T11:40:52Z</time></trkpt>
	<trkpt lat="51.778205" lon="-1.835598333"><ele>163.000000</ele><time>2010-01-27T11:40:57Z</time></trkpt>
	<trkpt lat="51.77817167" lon="-1.835651667"><ele>163.000000</ele><time>2010-01-27T11:41:02Z</time></trkpt>
	<trkpt lat="51.77814167" lon="-1.835706667"><ele>163.000000</ele><time>2010-01-27T11:41:07Z</time></trkpt>
	<trkpt lat="51.77811" lon="-1.835751667"><ele>163.000000</ele><time>2010-01-27T11:41:12Z</time></trkpt>
	<trkpt lat="51.77808333" lon="-1.8358"><ele>163.000000</ele><time>2010-01-27T11:41:17Z</time></trkpt>
	<trkpt lat="51.77805333" lon="-1.835843333"><ele>163.000000</ele><time>2010-01-27T11:41:22Z</time></trkpt>
	<trkpt lat="51.778025" lon="-1.83589"><ele>163.000000</ele><time>2010-01-27T11:41:27Z</time></trkpt>
	<trkpt lat="51.77799333" lon="-1.835936667"><ele>163.000000</ele><time>2010-01-27T11:41:32Z</time></trkpt>
	<trkpt lat="51.777965" lon="-1.835985"><ele>163.000000</ele><time>2010-01-27T11:41:37Z</time></trkpt>
	<trkpt lat="51.777935" lon="-1.836028333"><ele>163.000000</ele><time>2010-01-27T11:41:42Z</time></trkpt>
	<trkpt lat="51.77790333" lon="-1.836071667"><ele>163.000000</ele><time>2010-01-27T11:41:47Z</time></trkpt>
	<trkpt lat="51.77787333" lon="-1.836115"><ele>163.000000</ele><time>2010-01-27T11:41:52Z</time></trkpt>
	<trkpt lat="51.77784333" lon="-1.836165"><ele>163.000000</ele><time>2010-01-27T11:41:57Z</time></trkpt>
	<trkpt lat="51.77781167" lon="-1.836211667"><ele>163.000000</ele><time>2010-01-27T11:42:02Z</time></trkpt>
	<trkpt lat="51.77778333" lon="-1.836261667"><ele>163.000000</ele><time>2010-01-27T11:42:07Z</time></trkpt>
	<trkpt lat="51.77775167" lon="-1.836315"><ele>163.000000</ele><time>2010-01-27T11:42:12Z</time></trkpt>
	<trkpt lat="51.77772" lon="-1.836363333"><ele>163.000000</ele><time>2010-01-27T11:42:17Z</time></trkpt>
	<trkpt lat="51.77769333" lon="-1.8364"><ele>163.000000</ele><time>2010-01-27T11:42:22Z</time></trkpt>
	<trkpt lat="51.777665" lon="-1.83644"><ele>163.000000</ele><time>2010-01-27T11:42:27Z</time></trkpt>
	<trkpt lat="51.77763833" lon="-1.836485"><ele>163.000000</ele><time>2010-01-27T11:42:32Z</time></trkpt>
	<trkpt lat="51.77761667" lon="-1.836538333"><ele>163.000000</ele><time>2010-01-27T11:42:37Z</time></trkpt>
	<trkpt lat="51.77758667" lon="-1.836575"><ele>163.000000</ele><time>2010-01-27T11:42:42Z</time></trkpt>
	<trkpt lat="51.77755667" lon="-1.836631667"><ele>163.000000</ele><time>2010-01-27T11:42:47Z</time></trkpt>
	<trkpt lat="51.77752333" lon="-1.836693333"><ele>163.000000</ele><time>2010-01-27T11:42:52Z</time></trkpt>
	<trkpt lat="51.77748667" lon="-1.83675"><ele>163.000000</ele><time>2010-01-27T11:42:57Z</time></trkpt>
	<trkpt lat="51.777455" lon="-1.836806667"><ele>163.000000</ele><time>2010-01-27T11:43:02Z</time></trkpt>
	<trkpt lat="51.77742167" lon="-1.83686"><ele>163.000000</ele><time>2010-01-27T11:43:07Z</time></trkpt>
	<trkpt lat="51.77738833" lon="-1.83691"><ele>163.000000</ele><time>2010-01-27T11:43:12Z</time></trkpt>
	<trkpt lat="51.77736333" lon="-1.836963333"><ele>163.000000</ele><time>2010-01-27T11:43:17Z</time></trkpt>
	<trkpt lat="51.77733167" lon="-1.837011667"><ele>163.000000</ele><time>2010-01-27T11:43:22Z</time></trkpt>
	<trkpt lat="51.77730333" lon="-1.837058333"><ele>163.000000</ele><time>2010-01-27T11:43:27Z</time></trkpt>
	<trkpt lat="51.77727167" lon="-1.837113333"><ele>163.000000</ele><time>2010-01-27T11:43:32Z</time></trkpt>
	<trkpt lat="51.77723833" lon="-1.837161667"><ele>163.000000</ele><time>2010-01-27T11:43:37Z</time></trkpt>
	<trkpt lat="51.77720833" lon="-1.837206667"><ele>163.000000</ele><time>2010-01-27T11:43:42Z</time></trkpt>
	<trkpt lat="51.77717333" lon="-1.837261667"><ele>163.000000</ele><time>2010-01-27T11:43:47Z</time></trkpt>
	<trkpt lat="51.77713833" lon="-1.837315"><ele>163.000000</ele><time>2010-01-27T11:43:52Z</time></trkpt>
	<trkpt lat="51.77710333" lon="-1.837363333"><ele>163.000000</ele><time>2010-01-27T11:43:57Z</time></trkpt>
	<trkpt lat="51.777075" lon="-1.837411667"><ele>163.000000</ele><time>2010-01-27T11:44:02Z</time></trkpt>
	<trkpt lat="51.77704333" lon="-1.837448333"><ele>163.000000</ele><time>2010-01-27T11:44:07Z</time></trkpt>
	<trkpt lat="51.777015" lon="-1.837495"><ele>163.000000</ele><time>2010-01-27T11:44:12Z</time></trkpt>
	<trkpt lat="51.77698667" lon="-1.837541667"><ele>163.000000</ele><time>2010-01-27T11:44:17Z</time></trkpt>
	<trkpt lat="51.77695667" lon="-1.837596667"><ele>163.000000</ele><time>2010-01-27T11:44:22Z</time></trkpt>
	<trkpt lat="51.77691833" lon="-1.837648333"><ele>163.000000</ele><time>2010-01-27T11:44:27Z</time></trkpt>
	<trkpt lat="51.77688333" lon="-1.837701667"><ele>163.000000</ele><time>2010-01-27T11:44:32Z</time></trkpt>
	<trkpt lat="51.77685167" lon="-1.83776"><ele>163.000000</ele><time>2010-01-27T11:44:37Z</time></trkpt>
	<trkpt lat="51.77682167" lon="-1.837813333"><ele>163.000000</ele><time>2010-01-27T11:44:42Z</time></trkpt>
	<trkpt lat="51.77678833" lon="-1.837863333"><ele>163.000000</ele><time>2010-01-27T11:44:47Z</time></trkpt>
	<trkpt lat="51.77675833" lon="-1.837918333"><ele>163.000000</ele><time>2010-01-27T11:44:52Z</time></trkpt>
	<trkpt lat="51.77672167" lon="-1.837971667"><ele>163.000000</ele><time>2010-01-27T11:44:57Z</time></trkpt>
	<trkpt lat="51.77668667" lon="-1.838026667"><ele>163.000000</ele><time>2010-01-27T11:45:02Z</time></trkpt>
	<trkpt lat="51.77665333" lon="-1.838085"><ele>163.000000</ele><time>2010-01-27T11:45:07Z</time></trkpt>
	<trkpt lat="51.77662167" lon="-1.838133333"><ele>163.000000</ele><time>2010-01-27T11:45:12Z</time></trkpt>
	<trkpt lat="51.77658667" lon="-1.838171667"><ele>163.000000</ele><time>2010-01-27T11:45:17Z</time></trkpt>
	<trkpt lat="51.77655833" lon="-1.83822"><ele>163.000000</ele><time>2010-01-27T11:45:22Z</time></trkpt>
	<trkpt lat="51.77653667" lon="-1.838261667"><ele>163.000000</ele><time>2010-01-27T11:45:27Z</time></trkpt>
	<trkpt lat="51.77651" lon="-1.83831"><ele>162.000000</ele><time>2010-01-27T11:45:32Z</time></trkpt>
	<trkpt lat="51.776475" lon="-1.838361667"><ele>162.000000</ele><time>2010-01-27T11:45:37Z</time></trkpt>
	<trkpt lat="51.77644167" lon="-1.838421667"><ele>162.000000</ele><time>2010-01-27T11:45:42Z</time></trkpt>
	<trkpt lat="51.77640667" lon="-1.838476667"><ele>162.000000</ele><time>2010-01-27T11:45:47Z</time></trkpt>
	<trkpt lat="51.77637167" lon="-1.838536667"><ele>162.000000</ele><time>2010-01-27T11:45:52Z</time></trkpt>
	<trkpt lat="51.77634333" lon="-1.83859"><ele>162.000000</ele><time>2010-01-27T11:45:57Z</time></trkpt>
	<trkpt lat="51.77631" lon="-1.83864"><ele>162.000000</ele><time>2010-01-27T11:46:02Z</time></trkpt>
	<trkpt lat="51.77627667" lon="-1.83869"><ele>162.000000</ele><time>2010-01-27T11:46:07Z</time></trkpt>
	<trkpt lat="51.77624667" lon="-1.83874"><ele>162.000000</ele><time>2010-01-27T11:46:12Z</time></trkpt>
	<trkpt lat="51.776215" lon="-1.83879"><ele>162.000000</ele><time>2010-01-27T11:46:17Z</time></trkpt>
	<trkpt lat="51.77618" lon="-1.83884"><ele>162.000000</ele><time>2010-01-27T11:46:22Z</time></trkpt>
	<trkpt lat="51.77614667" lon="-1.83889"><ele>162.000000</ele><time>2010-01-27T11:46:27Z</time></trkpt>
	<trkpt lat="51.77611167" lon="-1.838948333"><ele>162.000000</ele><time>2010-01-27T11:46:32Z</time></trkpt>
	<trkpt lat="51.77608" lon="-1.839001667"><ele>162.000000</ele><time>2010-01-27T11:46:37Z</time></trkpt>
	<trkpt lat="51.77604333" lon="-1.839058333"><ele>162.000000</ele><time>2010-01-27T11:46:42Z</time></trkpt>
	<trkpt lat="51.77601167" lon="-1.839108333"><ele>161.000000</ele><time>2010-01-27T11:46:47Z</time></trkpt>
	<trkpt lat="51.77597667" lon="-1.839161667"><ele>161.000000</ele><time>2010-01-27T11:46:52Z</time></trkpt>
	<trkpt lat="51.77594667" lon="-1.839215"><ele>161.000000</ele><time>2010-01-27T11:46:57Z</time></trkpt>
	<trkpt lat="51.775915" lon="-1.839261667"><ele>161.000000</ele><time>2010-01-27T11:47:02Z</time></trkpt>
	<trkpt lat="51.77588333" lon="-1.839313333"><ele>161.000000</ele><time>2010-01-27T11:47:07Z</time></trkpt>
	<trkpt lat="51.77585167" lon="-1.839365"><ele>161.000000</ele><time>2010-01-27T11:47:12Z</time></trkpt>
	<trkpt lat="51.77582167" lon="-1.839416667"><ele>160.000000</ele><time>2010-01-27T11:47:17Z</time></trkpt>
	<trkpt lat="51.77579" lon="-1.839471667"><ele>160.000000</ele><time>2010-01-27T11:47:22Z</time></trkpt>
	<trkpt lat="51.77575833" lon="-1.839518333"><ele>160.000000</ele><time>2010-01-27T11:47:27Z</time></trkpt>
	<trkpt lat="51.77573167" lon="-1.83957"><ele>160.000000</ele><time>2010-01-27T11:47:32Z</time></trkpt>
	<trkpt lat="51.775705" lon="-1.839618333"><ele>160.000000</ele><time>2010-01-27T11:47:37Z</time></trkpt>
	<trkpt lat="51.77567667" lon="-1.839675"><ele>160.000000</ele><time>2010-01-27T11:47:42Z</time></trkpt>
	<trkpt lat="51.77564333" lon="-1.839723333"><ele>160.000000</ele><time>2010-01-27T11:47:47Z</time></trkpt>
	<trkpt lat="51.77561" lon="-1.839766667"><ele>160.000000</ele><time>2010-01-27T11:47:52Z</time></trkpt>
	<trkpt lat="51.77557667" lon="-1.839818333"><ele>160.000000</ele><time>2010-01-27T11:47:57Z</time></trkpt>
	<trkpt lat="51.775545" lon="-1.839871667"><ele>160.000000</ele><time>2010-01-27T11:48:02Z</time></trkpt>
	<trkpt lat="51.775515" lon="-1.839916667"><ele>160.000000</ele><time>2010-01-27T11:48:07Z</time></trkpt>
	<trkpt lat="51.77548167" lon="-1.83997"><ele>160.000000</ele><time>2010-01-27T11:48:12Z</time></trkpt>
	<trkpt lat="51.77544833" lon="-1.84002"><ele>160.000000</ele><time>2010-01-27T11:48:17Z</time></trkpt>
	<trkpt lat="51.77541667" lon="-1.840073333"><ele>160.000000</ele><time>2010-01-27T11:48:22Z</time></trkpt>
	<trkpt lat="51.77538167" lon="-1.840123333"><ele>160.000000</ele><time>2010-01-27T11:48:27Z</time></trkpt>
	<trkpt lat="51.77534833" lon="-1.84018"><ele>160.000000</ele><time>2010-01-27T11:48:32Z</time></trkpt>
	<trkpt lat="51.77531833" lon="-1.840226667"><ele>160.000000</ele><time>2010-01-27T11:48:37Z</time></trkpt>
	<trkpt lat="51.77528833" lon="-1.840275"><ele>160.000000</ele><time>2010-01-27T11:48:42Z</time></trkpt>
	<trkpt lat="51.775255" lon="-1.840326667"><ele>161.000000</ele><time>2010-01-27T11:48:47Z</time></trkpt>
	<trkpt lat="51.77522333" lon="-1.840378333"><ele>161.000000</ele><time>2010-01-27T11:48:52Z</time></trkpt>
	<trkpt lat="51.77519" lon="-1.840428333"><ele>161.000000</ele><time>2010-01-27T11:48:57Z</time></trkpt>
	<trkpt lat="51.77516" lon="-1.840475"><ele>161.000000</ele><time>2010-01-27T11:49:02Z</time></trkpt>
	<trkpt lat="51.77513333" lon="-1.840525"><ele>161.000000</ele><time>2010-01-27T11:49:07Z</time></trkpt>
	<trkpt lat="51.7751" lon="-1.840573333"><ele>162.000000</ele><time>2010-01-27T11:49:12Z</time></trkpt>
	<trkpt lat="51.77507" lon="-1.840625"><ele>162.000000</ele><time>2010-01-27T11:49:17Z</time></trkpt>
	<trkpt lat="51.77503833" lon="-1.840671667"><ele>161.000000</ele><time>2010-01-27T11:49:22Z</time></trkpt>
	<trkpt lat="51.77501" lon="-1.840716667"><ele>162.000000</ele><time>2010-01-27T11:49:27Z</time></trkpt>
	<trkpt lat="51.77498333" lon="-1.840765"><ele>162.000000</ele><time>2010-01-27T11:49:32Z</time></trkpt>
	<trkpt lat="51.77496167" lon="-1.840808333"><ele>162.000000</ele><time>2010-01-27T11:49:37Z</time></trkpt>
	<trkpt lat="51.77493333" lon="-1.840851667"><ele>162.000000</ele><time>2010-01-27T11:49:42Z</time></trkpt>
	<trkpt lat="51.774905" lon="-1.840888333"><ele>162.000000</ele><time>2010-01-27T11:49:47Z</time></trkpt>
	<trkpt lat="51.77487" lon="-1.840926667"><ele>162.000000</ele><time>2010-01-27T11:49:52Z</time></trkpt>
	<trkpt lat="51.77484333" lon="-1.840976667"><ele>163.000000</ele><time>2010-01-27T11:49:57Z</time></trkpt>
	<trkpt lat="51.77481" lon="-1.841023333"><ele>163.000000</ele><time>2010-01-27T11:50:02Z</time></trkpt>
	<trkpt lat="51.77477667" lon="-1.841071667"><ele>163.000000</ele><time>2010-01-27T11:50:07Z</time></trkpt>
	<trkpt lat="51.774745" lon="-1.84111"><ele>163.000000</ele><time>2010-01-27T11:50:12Z</time></trkpt>
	<trkpt lat="51.77471667" lon="-1.84116"><ele>163.000000</ele><time>2010-01-27T11:50:17Z</time></trkpt>
	<trkpt lat="51.77467667" lon="-1.841176667"><ele>165.000000</ele><time>2010-01-27T11:50:22Z</time></trkpt>
	<trkpt lat="51.774635" lon="-1.841193333"><ele>166.000000</ele><time>2010-01-27T11:50:27Z</time></trkpt>
	<trkpt lat="51.77459" lon="-1.841221667"><ele>166.000000</ele><time>2010-01-27T11:50:32Z</time></trkpt>
	<trkpt lat="51.77456" lon="-1.841243333"><ele>167.000000</ele><time>2010-01-27T11:50:37Z</time></trkpt>
	<trkpt lat="51.77452833" lon="-1.841271667"><ele>168.000000</ele><time>2010-01-27T11:50:42Z</time></trkpt>
	<trkpt lat="51.77449333" lon="-1.841283333"><ele>170.000000</ele><time>2010-01-27T11:50:47Z</time></trkpt>
	<trkpt lat="51.77445833" lon="-1.841301667"><ele>172.000000</ele><time>2010-01-27T11:50:52Z</time></trkpt>
	<trkpt lat="51.77444333" lon="-1.84138"><ele>172.000000</ele><time>2010-01-27T11:50:57Z</time></trkpt>
	<trkpt lat="51.774405" lon="-1.841391667"><ele>176.000000</ele><time>2010-01-27T11:51:02Z</time></trkpt>
	<trkpt lat="51.77437667" lon="-1.84147"><ele>176.000000</ele><time>2010-01-27T11:51:07Z</time></trkpt>
	<trkpt lat="51.774325" lon="-1.841505"><ele>175.000000</ele><time>2010-01-27T11:51:12Z</time></trkpt>
	<trkpt lat="51.77427333" lon="-1.84154"><ele>172.000000</ele><time>2010-01-27T11:51:17Z</time></trkpt>
	<trkpt lat="51.77423333" lon="-1.841593333"><ele>170.000000</ele><time>2010-01-27T11:51:22Z</time></trkpt>
	<trkpt lat="51.77419167" lon="-1.841635"><ele>170.000000</ele><time>2010-01-27T11:51:27Z</time></trkpt>
	<trkpt lat="51.77415167" lon="-1.841681667"><ele>170.000000</ele><time>2010-01-27T11:51:32Z</time></trkpt>
	<trkpt lat="51.77410667" lon="-1.841701667"><ele>170.000000</ele><time>2010-01-27T11:51:37Z</time></trkpt>
	<trkpt lat="51.77405833" lon="-1.841726667"><ele>171.000000</ele><time>2010-01-27T11:51:42Z</time></trkpt>
	<trkpt lat="51.77401333" lon="-1.841755"><ele>172.000000</ele><time>2010-01-27T11:51:47Z</time></trkpt>
	<trkpt lat="51.77398333" lon="-1.84182"><ele>169.000000</ele><time>2010-01-27T11:51:52Z</time></trkpt>
	<trkpt lat="51.77394667" lon="-1.841858333"><ele>170.000000</ele><time>2010-01-27T11:51:57Z</time></trkpt>
	<trkpt lat="51.77390833" lon="-1.841893333"><ele>173.000000</ele><time>2010-01-27T11:52:02Z</time></trkpt>
	<trkpt lat="51.77387" lon="-1.841925"><ele>174.000000</ele><time>2010-01-27T11:52:07Z</time></trkpt>
	<trkpt lat="51.77383167" lon="-1.841968333"><ele>174.000000</ele><time>2010-01-27T11:52:12Z</time></trkpt>
	<trkpt lat="51.77378667" lon="-1.841995"><ele>174.000000</ele><time>2010-01-27T11:52:17Z</time></trkpt>
	<trkpt lat="51.77375" lon="-1.842041667"><ele>173.000000</ele><time>2010-01-27T11:52:22Z</time></trkpt>
	<trkpt lat="51.77371333" lon="-1.842106667"><ele>171.000000</ele><time>2010-01-27T11:52:27Z</time></trkpt>
	<trkpt lat="51.77367333" lon="-1.842166667"><ele>169.000000</ele><time>2010-01-27T11:52:32Z</time></trkpt>
	<trkpt lat="51.77363667" lon="-1.84222"><ele>166.000000</ele><time>2010-01-27T11:52:37Z</time></trkpt>
	<trkpt lat="51.77359333" lon="-1.842271667"><ele>164.000000</ele><time>2010-01-27T11:52:42Z</time></trkpt>
	<trkpt lat="51.77354667" lon="-1.842321667"><ele>161.000000</ele><time>2010-01-27T11:52:47Z</time></trkpt>
	<trkpt lat="51.77351" lon="-1.842371667"><ele>161.000000</ele><time>2010-01-27T11:52:52Z</time></trkpt>
	<trkpt lat="51.77346167" lon="-1.842411667"><ele>159.000000</ele><time>2010-01-27T11:52:57Z</time></trkpt>
	<trkpt lat="51.773415" lon="-1.842461667"><ele>158.000000</ele><time>2010-01-27T11:53:02Z</time></trkpt>
	<trkpt lat="51.77337" lon="-1.842506667"><ele>156.000000</ele><time>2010-01-27T11:53:07Z</time></trkpt>
	<trkpt lat="51.773325" lon="-1.842551667"><ele>155.000000</ele><time>2010-01-27T11:53:12Z</time></trkpt>
	<trkpt lat="51.77328" lon="-1.842611667"><ele>154.000000</ele><time>2010-01-27T11:53:17Z</time></trkpt>
	<trkpt lat="51.77324" lon="-1.84266"><ele>154.000000</ele><time>2010-01-27T11:53:22Z</time></trkpt>
	<trkpt lat="51.7732" lon="-1.8427"><ele>154.000000</ele><time>2010-01-27T11:53:27Z</time></trkpt>
	<trkpt lat="51.773165" lon="-1.842741667"><ele>154.000000</ele><time>2010-01-27T11:53:32Z</time></trkpt>
	<trkpt lat="51.77313333" lon="-1.842783333"><ele>155.000000</ele><time>2010-01-27T11:53:37Z</time></trkpt>
	<trkpt lat="51.77309833" lon="-1.842825"><ele>156.000000</ele><time>2010-01-27T11:53:42Z</time></trkpt>
	<trkpt lat="51.77306667" lon="-1.842863333"><ele>157.000000</ele><time>2010-01-27T11:53:47Z</time></trkpt>
	<trkpt lat="51.77303" lon="-1.8429"><ele>157.000000</ele><time>2010-01-27T11:53:52Z</time></trkpt>
	<trkpt lat="51.77299" lon="-1.842926667"><ele>158.000000</ele><time>2010-01-27T11:53:57Z</time></trkpt>
	<trkpt lat="51.772945" lon="-1.842968333"><ele>159.000000</ele><time>2010-01-27T11:54:02Z</time></trkpt>
	<trkpt lat="51.77289667" lon="-1.843006667"><ele>159.000000</ele><time>2010-01-27T11:54:07Z</time></trkpt>
	<trkpt lat="51.77286" lon="-1.843045"><ele>161.000000</ele><time>2010-01-27T11:54:12Z</time></trkpt>
	<trkpt lat="51.77283333" lon="-1.843071667"><ele>158.000000</ele><time>2010-01-27T11:54:17Z</time></trkpt>
	<trkpt lat="51.77280667" lon="-1.8431"><ele>157.000000</ele><time>2010-01-27T11:54:22Z</time></trkpt>
	<trkpt lat="51.77276833" lon="-1.843136667"><ele>158.000000</ele><time>2010-01-27T11:54:27Z</time></trkpt>
	<trkpt lat="51.772735" lon="-1.843161667"><ele>159.000000</ele><time>2010-01-27T11:54:32Z</time></trkpt>
	<trkpt lat="51.772705" lon="-1.843183333"><ele>160.000000</ele><time>2010-01-27T11:54:37Z</time></trkpt>
	<trkpt lat="51.77268667" lon="-1.843225"><ele>158.000000</ele><time>2010-01-27T11:54:42Z</time></trkpt>
	<trkpt lat="51.772685" lon="-1.843245"><ele>157.000000</ele><time>2010-01-27T11:54:47Z</time></trkpt>
	<trkpt lat="51.77268167" lon="-1.843266667"><ele>156.000000</ele><time>2010-01-27T11:54:52Z</time></trkpt>
	<trkpt lat="51.77268333" lon="-1.843281667"><ele>155.000000</ele><time>2010-01-27T11:54:57Z</time></trkpt>
	<trkpt lat="51.77268667" lon="-1.843291667"><ele>155.000000</ele><time>2010-01-27T11:55:02Z</time></trkpt>
	<trkpt lat="51.77267" lon="-1.843305"><ele>155.000000</ele><time>2010-01-27T11:55:07Z</time></trkpt>
	<trkpt lat="51.77264" lon="-1.843325"><ele>156.000000</ele><time>2010-01-27T11:55:12Z</time></trkpt>
	<trkpt lat="51.77261" lon="-1.843348333"><ele>156.000000</ele><time>2010-01-27T11:55:17Z</time></trkpt>
	<trkpt lat="51.77257833" lon="-1.843391667"><ele>156.000000</ele><time>2010-01-27T11:55:22Z</time></trkpt>
	<trkpt lat="51.77255167" lon="-1.843416667"><ele>156.000000</ele><time>2010-01-27T11:55:27Z</time></trkpt>
	<trkpt lat="51.77251667" lon="-1.843446667"><ele>157.000000</ele><time>2010-01-27T11:55:32Z</time></trkpt>
	<trkpt lat="51.77247667" lon="-1.843491667"><ele>156.000000</ele><time>2010-01-27T11:55:37Z</time></trkpt>
	<trkpt lat="51.77243667" lon="-1.843541667"><ele>156.000000</ele><time>2010-01-27T11:55:42Z</time></trkpt>
	<trkpt lat="51.77240167" lon="-1.843585"><ele>156.000000</ele><time>2010-01-27T11:55:47Z</time></trkpt>
	<trkpt lat="51.77236333" lon="-1.843628333"><ele>156.000000</ele><time>2010-01-27T11:55:52Z</time></trkpt>
	<trkpt lat="51.77233" lon="-1.84366"><ele>156.000000</ele><time>2010-01-27T11:55:57Z</time></trkpt>
	<trkpt lat="51.77229333" lon="-1.843695"><ele>157.000000</ele><time>2010-01-27T11:56:02Z</time></trkpt>
	<trkpt lat="51.77225833" lon="-1.843728333"><ele>157.000000</ele><time>2010-01-27T11:56:07Z</time></trkpt>
	<trkpt lat="51.77222167" lon="-1.843766667"><ele>158.000000</ele><time>2010-01-27T11:56:12Z</time></trkpt>
	<trkpt lat="51.77218333" lon="-1.843806667"><ele>159.000000</ele><time>2010-01-27T11:56:17Z</time></trkpt>
	<trkpt lat="51.77214833" lon="-1.84385"><ele>159.000000</ele><time>2010-01-27T11:56:22Z</time></trkpt>
	<trkpt lat="51.77213" lon="-1.843885"><ele>159.000000</ele><time>2010-01-27T11:56:27Z</time></trkpt>
	<trkpt lat="51.772125" lon="-1.843893333"><ele>159.000000</ele><time>2010-01-27T11:56:32Z</time></trkpt>
	<trkpt lat="51.77209167" lon="-1.843936667"><ele>159.000000</ele><time>2010-01-27T11:56:37Z</time></trkpt>
	<trkpt lat="51.77205667" lon="-1.84398"><ele>159.000000</ele><time>2010-01-27T11:56:42Z</time></trkpt>
	<trkpt lat="51.77202" lon="-1.844016667"><ele>159.000000</ele><time>2010-01-27T11:56:47Z</time></trkpt>
	<trkpt lat="51.77198667" lon="-1.844065"><ele>160.000000</ele><time>2010-01-27T11:56:52Z</time></trkpt>
	<trkpt lat="51.77194833" lon="-1.84411"><ele>160.000000</ele><time>2010-01-27T11:56:57Z</time></trkpt>
	<trkpt lat="51.771915" lon="-1.844158333"><ele>160.000000</ele><time>2010-01-27T11:57:02Z</time></trkpt>
	<trkpt lat="51.77187833" lon="-1.844196667"><ele>161.000000</ele><time>2010-01-27T11:57:07Z</time></trkpt>
	<trkpt lat="51.77184" lon="-1.844246667"><ele>161.000000</ele><time>2010-01-27T11:57:12Z</time></trkpt>
	<trkpt lat="51.771805" lon="-1.844288333"><ele>161.000000</ele><time>2010-01-27T11:57:17Z</time></trkpt>
	<trkpt lat="51.77177" lon="-1.844338333"><ele>161.000000</ele><time>2010-01-27T11:57:22Z</time></trkpt>
	<trkpt lat="51.771735" lon="-1.844391667"><ele>161.000000</ele><time>2010-01-27T11:57:27Z</time></trkpt>
	<trkpt lat="51.771705" lon="-1.844446667"><ele>161.000000</ele><time>2010-01-27T11:57:32Z</time></trkpt>
	<trkpt lat="51.771675" lon="-1.84449"><ele>160.000000</ele><time>2010-01-27T11:57:37Z</time></trkpt>
	<trkpt lat="51.77165" lon="-1.844543333"><ele>160.000000</ele><time>2010-01-27T11:57:42Z</time></trkpt>
	<trkpt lat="51.77163" lon="-1.844615"><ele>160.000000</ele><time>2010-01-27T11:57:47Z</time></trkpt>
	<trkpt lat="51.77159667" lon="-1.844648333"><ele>160.000000</ele><time>2010-01-27T11:57:52Z</time></trkpt>
	<trkpt lat="51.771555" lon="-1.844678333"><ele>160.000000</ele><time>2010-01-27T11:57:57Z</time></trkpt>
	<trkpt lat="51.77151833" lon="-1.844726667"><ele>159.000000</ele><time>2010-01-27T11:58:02Z</time></trkpt>
	<trkpt lat="51.77147833" lon="-1.844761667"><ele>159.000000</ele><time>2010-01-27T11:58:07Z</time></trkpt>
	<trkpt lat="51.771435" lon="-1.84479"><ele>159.000000</ele><time>2010-01-27T11:58:12Z</time></trkpt>
	<trkpt lat="51.77140167" lon="-1.844826667"><ele>159.000000</ele><time>2010-01-27T11:58:17Z</time></trkpt>
	<trkpt lat="51.77136333" lon="-1.844863333"><ele>159.000000</ele><time>2010-01-27T11:58:22Z</time></trkpt>
	<trkpt lat="51.77132833" lon="-1.84489"><ele>159.000000</ele><time>2010-01-27T11:58:27Z</time></trkpt>
	<trkpt lat="51.7713" lon="-1.844943333"><ele>159.000000</ele><time>2010-01-27T11:58:32Z</time></trkpt>
	<trkpt lat="51.771265" lon="-1.844983333"><ele>158.000000</ele><time>2010-01-27T11:58:37Z</time></trkpt>
	<trkpt lat="51.771225" lon="-1.845026667"><ele>158.000000</ele><time>2010-01-27T11:58:42Z</time></trkpt>
	<trkpt lat="51.77118833" lon="-1.845071667"><ele>158.000000</ele><time>2010-01-27T11:58:47Z</time></trkpt>
	<trkpt lat="51.77116333" lon="-1.845123333"><ele>156.000000</ele><time>2010-01-27T11:58:52Z</time></trkpt>
	<trkpt lat="51.77113167" lon="-1.845175"><ele>154.000000</ele><time>2010-01-27T11:58:57Z</time></trkpt>
	<trkpt lat="51.77111" lon="-1.845211667"><ele>154.000000</ele><time>2010-01-27T11:59:02Z</time></trkpt>
	<trkpt lat="51.77107667" lon="-1.845261667"><ele>154.000000</ele><time>2010-01-27T11:59:07Z</time></trkpt>
	<trkpt lat="51.77103833" lon="-1.845295"><ele>154.000000</ele><time>2010-01-27T11:59:12Z</time></trkpt>
	<trkpt lat="51.77100833" lon="-1.845351667"><ele>153.000000</ele><time>2010-01-27T11:59:17Z</time></trkpt>
	<trkpt lat="51.77097667" lon="-1.845383333"><ele>153.000000</ele><time>2010-01-27T11:59:22Z</time></trkpt>
	<trkpt lat="51.77094333" lon="-1.845415"><ele>154.000000</ele><time>2010-01-27T11:59:27Z</time></trkpt>
	<trkpt lat="51.77090667" lon="-1.845451667"><ele>154.000000</ele><time>2010-01-27T11:59:32Z</time></trkpt>
	<trkpt lat="51.77087333" lon="-1.845496667"><ele>154.000000</ele><time>2010-01-27T11:59:37Z</time></trkpt>
	<trkpt lat="51.77085333" lon="-1.845566667"><ele>153.000000</ele><time>2010-01-27T11:59:42Z</time></trkpt>
	<trkpt lat="51.77081333" lon="-1.845621667"><ele>153.000000</ele><time>2010-01-27T11:59:47Z</time></trkpt>
	<trkpt lat="51.770775" lon="-1.845675"><ele>153.000000</ele><time>2010-01-27T11:59:52Z</time></trkpt>
	<trkpt lat="51.77073" lon="-1.845723333"><ele>152.000000</ele><time>2010-01-27T11:59:57Z</time></trkpt>
	<trkpt lat="51.77068667" lon="-1.845771667"><ele>152.000000</ele><time>2010-01-27T12:00:02Z</time></trkpt>
	<trkpt lat="51.77063833" lon="-1.845803333"><ele>152.000000</ele><time>2010-01-27T12:00:07Z</time></trkpt>
	<trkpt lat="51.770595" lon="-1.845851667"><ele>152.000000</ele><time>2010-01-27T12:00:12Z</time></trkpt>
	<trkpt lat="51.770555" lon="-1.845906667"><ele>152.000000</ele><time>2010-01-27T12:00:17Z</time></trkpt>
	<trkpt lat="51.77051" lon="-1.845953333"><ele>152.000000</ele><time>2010-01-27T12:00:22Z</time></trkpt>
	<trkpt lat="51.77046833" lon="-1.846003333"><ele>152.000000</ele><time>2010-01-27T12:00:27Z</time></trkpt>
	<trkpt lat="51.77042833" lon="-1.84604"><ele>152.000000</ele><time>2010-01-27T12:00:32Z</time></trkpt>
	<trkpt lat="51.77039" lon="-1.846078333"><ele>152.000000</ele><time>2010-01-27T12:00:37Z</time></trkpt>
	<trkpt lat="51.77035167" lon="-1.846115"><ele>152.000000</ele><time>2010-01-27T12:00:42Z</time></trkpt>
	<trkpt lat="51.77031333" lon="-1.846151667"><ele>152.000000</ele><time>2010-01-27T12:00:47Z</time></trkpt>
	<trkpt lat="51.77027667" lon="-1.846196667"><ele>151.000000</ele><time>2010-01-27T12:00:52Z</time></trkpt>
	<trkpt lat="51.77024" lon="-1.846248333"><ele>151.000000</ele><time>2010-01-27T12:00:57Z</time></trkpt>
	<trkpt lat="51.770205" lon="-1.846286667"><ele>150.000000</ele><time>2010-01-27T12:01:02Z</time></trkpt>
	<trkpt lat="51.77017333" lon="-1.84631"><ele>151.000000</ele><time>2010-01-27T12:01:07Z</time></trkpt>
	<trkpt lat="51.770135" lon="-1.846343333"><ele>151.000000</ele><time>2010-01-27T12:01:12Z</time></trkpt>
	<trkpt lat="51.77009333" lon="-1.846368333"><ele>152.000000</ele><time>2010-01-27T12:01:17Z</time></trkpt>
	<trkpt lat="51.77005667" lon="-1.8464"><ele>153.000000</ele><time>2010-01-27T12:01:22Z</time></trkpt>
	<trkpt lat="51.77001667" lon="-1.846436667"><ele>153.000000</ele><time>2010-01-27T12:01:27Z</time></trkpt>
	<trkpt lat="51.76997" lon="-1.846463333"><ele>152.000000</ele><time>2010-01-27T12:01:32Z</time></trkpt>
	<trkpt lat="51.76992667" lon="-1.846481667"><ele>153.000000</ele><time>2010-01-27T12:01:37Z</time></trkpt>
	<trkpt lat="51.76988333" lon="-1.846506667"><ele>153.000000</ele><time>2010-01-27T12:01:42Z</time></trkpt>
	<trkpt lat="51.76984167" lon="-1.846533333"><ele>153.000000</ele><time>2010-01-27T12:01:47Z</time></trkpt>
	<trkpt lat="51.769795" lon="-1.84658"><ele>151.000000</ele><time>2010-01-27T12:01:52Z</time></trkpt>
	<trkpt lat="51.76975333" lon="-1.84661"><ele>150.000000</ele><time>2010-01-27T12:01:57Z</time></trkpt>
	<trkpt lat="51.76971667" lon="-1.846645"><ele>151.000000</ele><time>2010-01-27T12:02:02Z</time></trkpt>
	<trkpt lat="51.76967667" lon="-1.846675"><ele>150.000000</ele><time>2010-01-27T12:02:07Z</time></trkpt>
	<trkpt lat="51.76964167" lon="-1.846701667"><ele>152.000000</ele><time>2010-01-27T12:02:12Z</time></trkpt>
	<trkpt lat="51.76960167" lon="-1.846748333"><ele>152.000000</ele><time>2010-01-27T12:02:17Z</time></trkpt>
	<trkpt lat="51.76956667" lon="-1.8468"><ele>152.000000</ele><time>2010-01-27T12:02:22Z</time></trkpt>
	<trkpt lat="51.76952833" lon="-1.846838333"><ele>151.000000</ele><time>2010-01-27T12:02:27Z</time></trkpt>
	<trkpt lat="51.76949" lon="-1.84688"><ele>151.000000</ele><time>2010-01-27T12:02:32Z</time></trkpt>
	<trkpt lat="51.76945" lon="-1.846915"><ele>150.000000</ele><time>2010-01-27T12:02:37Z</time></trkpt>
	<trkpt lat="51.769415" lon="-1.846965"><ele>148.000000</ele><time>2010-01-27T12:02:42Z</time></trkpt>
	<trkpt lat="51.76938" lon="-1.847023333"><ele>146.000000</ele><time>2010-01-27T12:02:47Z</time></trkpt>
	<trkpt lat="51.76935833" lon="-1.847083333"><ele>147.000000</ele><time>2010-01-27T12:02:52Z</time></trkpt>
	<trkpt lat="51.76933167" lon="-1.847126667"><ele>147.000000</ele><time>2010-01-27T12:02:57Z</time></trkpt>
	<trkpt lat="51.76930333" lon="-1.847163333"><ele>147.000000</ele><time>2010-01-27T12:03:02Z</time></trkpt>
	<trkpt lat="51.76928167" lon="-1.8472"><ele>148.000000</ele><time>2010-01-27T12:03:07Z</time></trkpt>
	<trkpt lat="51.76925667" lon="-1.847231667"><ele>148.000000</ele><time>2010-01-27T12:03:12Z</time></trkpt>
	<trkpt lat="51.76921" lon="-1.84726"><ele>145.000000</ele><time>2010-01-27T12:03:17Z</time></trkpt>
	<trkpt lat="51.76919333" lon="-1.847298333"><ele>147.000000</ele><time>2010-01-27T12:03:22Z</time></trkpt>
	<trkpt lat="51.76916667" lon="-1.84735"><ele>144.000000</ele><time>2010-01-27T12:03:27Z</time></trkpt>
	<trkpt lat="51.76910833" lon="-1.847378333"><ele>140.000000</ele><time>2010-01-27T12:03:32Z</time></trkpt>
	<trkpt lat="51.76905833" lon="-1.847406667"><ele>140.000000</ele><time>2010-01-27T12:03:37Z</time></trkpt>
	<trkpt lat="51.76900667" lon="-1.847408333"><ele>140.000000</ele><time>2010-01-27T12:03:42Z</time></trkpt>
	<trkpt lat="51.76896667" lon="-1.847463333"><ele>138.000000</ele><time>2010-01-27T12:03:47Z</time></trkpt>
	<trkpt lat="51.768925" lon="-1.847498333"><ele>138.000000</ele><time>2010-01-27T12:03:52Z</time></trkpt>
	<trkpt lat="51.76888333" lon="-1.847531667"><ele>138.000000</ele><time>2010-01-27T12:03:57Z</time></trkpt>
	<trkpt lat="51.76884" lon="-1.847565"><ele>138.000000</ele><time>2010-01-27T12:04:02Z</time></trkpt>
	<trkpt lat="51.76879" lon="-1.847605"><ele>134.000000</ele><time>2010-01-27T12:04:07Z</time></trkpt>
	<trkpt lat="51.768745" lon="-1.847621667"><ele>135.000000</ele><time>2010-01-27T12:04:12Z</time></trkpt>
	<trkpt lat="51.76867" lon="-1.847626667"><ele>134.000000</ele><time>2010-01-27T12:04:17Z</time></trkpt>
	<trkpt lat="51.76861667" lon="-1.847645"><ele>133.000000</ele><time>2010-01-27T12:04:22Z</time></trkpt>
	<trkpt lat="51.76857167" lon="-1.847661667"><ele>133.000000</ele><time>2010-01-27T12:04:27Z</time></trkpt>
	<trkpt lat="51.768545" lon="-1.847688333"><ele>135.000000</ele><time>2010-01-27T12:04:32Z</time></trkpt>
	<trkpt lat="51.76852333" lon="-1.84772"><ele>137.000000</ele><time>2010-01-27T12:04:37Z</time></trkpt>
	<trkpt lat="51.768475" lon="-1.84774"><ele>135.000000</ele><time>2010-01-27T12:04:42Z</time></trkpt>
	<trkpt lat="51.768435" lon="-1.847765"><ele>132.000000</ele><time>2010-01-27T12:04:47Z</time></trkpt>
	<trkpt lat="51.7684" lon="-1.847776667"><ele>132.000000</ele><time>2010-01-27T12:04:52Z</time></trkpt>
	<trkpt lat="51.76835833" lon="-1.84776"><ele>130.000000</ele><time>2010-01-27T12:04:57Z</time></trkpt>
	<trkpt lat="51.768315" lon="-1.847773333"><ele>130.000000</ele><time>2010-01-27T12:05:02Z</time></trkpt>
	<trkpt lat="51.76827167" lon="-1.847788333"><ele>129.000000</ele><time>2010-01-27T12:05:07Z</time></trkpt>
	<trkpt lat="51.76822833" lon="-1.847813333"><ele>130.000000</ele><time>2010-01-27T12:05:12Z</time></trkpt>
	<trkpt lat="51.768195" lon="-1.847856667"><ele>133.000000</ele><time>2010-01-27T12:05:17Z</time></trkpt>
	<trkpt lat="51.768165" lon="-1.847905"><ele>134.000000</ele><time>2010-01-27T12:05:22Z</time></trkpt>
	<trkpt lat="51.76813333" lon="-1.84798"><ele>134.000000</ele><time>2010-01-27T12:05:27Z</time></trkpt>
	<trkpt lat="51.76809667" lon="-1.848048333"><ele>133.000000</ele><time>2010-01-27T12:05:32Z</time></trkpt>
	<trkpt lat="51.76805833" lon="-1.848095"><ele>133.000000</ele><time>2010-01-27T12:05:37Z</time></trkpt>
	<trkpt lat="51.76802667" lon="-1.848131667"><ele>135.000000</ele><time>2010-01-27T12:05:42Z</time></trkpt>
	<trkpt lat="51.76798667" lon="-1.848193333"><ele>130.000000</ele><time>2010-01-27T12:05:47Z</time></trkpt>
	<trkpt lat="51.76795333" lon="-1.848263333"><ele>127.000000</ele><time>2010-01-27T12:05:52Z</time></trkpt>
	<trkpt lat="51.76792833" lon="-1.848336667"><ele>123.000000</ele><time>2010-01-27T12:05:57Z</time></trkpt>
	<trkpt lat="51.76791833" lon="-1.848436667"><ele>122.000000</ele><time>2010-01-27T12:06:02Z</time></trkpt>
	<trkpt lat="51.76789833" lon="-1.848521667"><ele>121.000000</ele><time>2010-01-27T12:06:07Z</time></trkpt>
	<trkpt lat="51.767905" lon="-1.848635"><ele>123.000000</ele><time>2010-01-27T12:06:12Z</time></trkpt>
	<trkpt lat="51.76791667" lon="-1.84872"><ele>123.000000</ele><time>2010-01-27T12:06:17Z</time></trkpt>
	<trkpt lat="51.76792167" lon="-1.84877"><ele>128.000000</ele><time>2010-01-27T12:06:22Z</time></trkpt>
	<trkpt lat="51.767925" lon="-1.848778333"><ele>127.000000</ele><time>2010-01-27T12:06:27Z</time></trkpt>
	<trkpt lat="51.76791667" lon="-1.848788333"><ele>127.000000</ele><time>2010-01-27T12:06:32Z</time></trkpt>
	<trkpt lat="51.76792" lon="-1.848793333"><ele>125.000000</ele><time>2010-01-27T12:06:37Z</time></trkpt>
	<trkpt lat="51.76793167" lon="-1.848793333"><ele>124.000000</ele><time>2010-01-27T12:06:42Z</time></trkpt>
	<trkpt lat="51.76794333" lon="-1.848791667"><ele>123.000000</ele><time>2010-01-27T12:06:47Z</time></trkpt>
	<trkpt lat="51.76794" lon="-1.848798333"><ele>123.000000</ele><time>2010-01-27T12:06:52Z</time></trkpt>
	<trkpt lat="51.76792667" lon="-1.848816667"><ele>126.000000</ele><time>2010-01-27T12:06:57Z</time></trkpt>
	<trkpt lat="51.767925" lon="-1.848825"><ele>125.000000</ele><time>2010-01-27T12:07:02Z</time></trkpt>
	<trkpt lat="51.76791" lon="-1.848841667"><ele>123.000000</ele><time>2010-01-27T12:07:07Z</time></trkpt>
	<trkpt lat="51.76789833" lon="-1.848883333"><ele>124.000000</ele><time>2010-01-27T12:07:12Z</time></trkpt>
	<trkpt lat="51.76788667" lon="-1.848943333"><ele>125.000000</ele><time>2010-01-27T12:07:17Z</time></trkpt>
	<trkpt lat="51.76787667" lon="-1.848986667"><ele>126.000000</ele><time>2010-01-27T12:07:22Z</time></trkpt>
	<trkpt lat="51.76786833" lon="-1.849046667"><ele>127.000000</ele><time>2010-01-27T12:07:27Z</time></trkpt>
	<trkpt lat="51.76784667" lon="-1.849081667"><ele>129.000000</ele><time>2010-01-27T12:07:32Z</time></trkpt>
	<trkpt lat="51.76782333" lon="-1.84913"><ele>128.000000</ele><time>2010-01-27T12:07:37Z</time></trkpt>
	<trkpt lat="51.76778333" lon="-1.849135"><ele>130.000000</ele><time>2010-01-27T12:07:42Z</time></trkpt>
	<trkpt lat="51.76774833" lon="-1.849166667"><ele>129.000000</ele><time>2010-01-27T12:07:47Z</time></trkpt>
	<trkpt lat="51.76772333" lon="-1.849175"><ele>133.000000</ele><time>2010-01-27T12:07:52Z</time></trkpt>
	<trkpt lat="51.76768833" lon="-1.849206667"><ele>136.000000</ele><time>2010-01-27T12:07:57Z</time></trkpt>
	<trkpt lat="51.76764333" lon="-1.849235"><ele>134.000000</ele><time>2010-01-27T12:08:02Z</time></trkpt>
	<trkpt lat="51.76759667" lon="-1.849258333"><ele>133.000000</ele><time>2010-01-27T12:08:07Z</time></trkpt>
	<trkpt lat="51.767535" lon="-1.849276667"><ele>130.000000</ele><time>2010-01-27T12:08:12Z</time></trkpt>
	<trkpt lat="51.76749667" lon="-1.849331667"><ele>127.000000</ele><time>2010-01-27T12:08:17Z</time></trkpt>
	<trkpt lat="51.76746667" lon="-1.849396667"><ele>126.000000</ele><time>2010-01-27T12:08:22Z</time></trkpt>
	<trkpt lat="51.76744167" lon="-1.849473333"><ele>127.000000</ele><time>2010-01-27T12:08:27Z</time></trkpt>
	<trkpt lat="51.76740833" lon="-1.849528333"><ele>128.000000</ele><time>2010-01-27T12:08:32Z</time></trkpt>
	<trkpt lat="51.76738333" lon="-1.84959"><ele>130.000000</ele><time>2010-01-27T12:08:37Z</time></trkpt>
	<trkpt lat="51.76736833" lon="-1.849706667"><ele>126.000000</ele><time>2010-01-27T12:08:42Z</time></trkpt>
	<trkpt lat="51.76734167" lon="-1.849798333"><ele>123.000000</ele><time>2010-01-27T12:08:47Z</time></trkpt>
	<trkpt lat="51.76731" lon="-1.849866667"><ele>123.000000</ele><time>2010-01-27T12:08:52Z</time></trkpt>
	<trkpt lat="51.76728167" lon="-1.849935"><ele>123.000000</ele><time>2010-01-27T12:08:57Z</time></trkpt>
	<trkpt lat="51.76725333" lon="-1.849988333"><ele>122.000000</ele><time>2010-01-27T12:09:02Z</time></trkpt>
	<trkpt lat="51.76726" lon="-1.850005"><ele>120.000000</ele><time>2010-01-27T12:09:07Z</time></trkpt>
	<trkpt lat="51.76725333" lon="-1.850001667"><ele>119.000000</ele><time>2010-01-27T12:09:12Z</time></trkpt>
	<trkpt lat="51.76727333" lon="-1.85002"><ele>116.000000</ele><time>2010-01-27T12:09:17Z</time></trkpt>
	<trkpt lat="51.76728667" lon="-1.850011667"><ele>114.000000</ele><time>2010-01-27T12:09:22Z</time></trkpt>
	<trkpt lat="51.76728667" lon="-1.849985"><ele>113.000000</ele><time>2010-01-27T12:09:27Z</time></trkpt>
	<trkpt lat="51.76728667" lon="-1.849986667"><ele>117.000000</ele><time>2010-01-27T12:09:32Z</time></trkpt>
	<trkpt lat="51.76727833" lon="-1.849988333"><ele>120.000000</ele><time>2010-01-27T12:09:37Z</time></trkpt>
	<trkpt lat="51.76726667" lon="-1.849976667"><ele>119.000000</ele><time>2010-01-27T12:09:42Z</time></trkpt>
	<trkpt lat="51.76726333" lon="-1.849971667"><ele>118.000000</ele><time>2010-01-27T12:09:47Z</time></trkpt>
	<trkpt lat="51.76726667" lon="-1.849971667"><ele>118.000000</ele><time>2010-01-27T12:09:52Z</time></trkpt>
	<trkpt lat="51.767275" lon="-1.849975"><ele>120.000000</ele><time>2010-01-27T12:09:57Z</time></trkpt>
	<trkpt lat="51.76728" lon="-1.849978333"><ele>121.000000</ele><time>2010-01-27T12:10:02Z</time></trkpt>
	<trkpt lat="51.76728333" lon="-1.849986667"><ele>122.000000</ele><time>2010-01-27T12:10:07Z</time></trkpt>
	<trkpt lat="51.76729333" lon="-1.849996667"><ele>123.000000</ele><time>2010-01-27T12:10:12Z</time></trkpt>
	<trkpt lat="51.76729833" lon="-1.850005"><ele>125.000000</ele><time>2010-01-27T12:10:17Z</time></trkpt>
	<trkpt lat="51.76730833" lon="-1.850018333"><ele>127.000000</ele><time>2010-01-27T12:10:22Z</time></trkpt>
	<trkpt lat="51.76732167" lon="-1.850003333"><ele>129.000000</ele><time>2010-01-27T12:10:27Z</time></trkpt>
	<trkpt lat="51.76733833" lon="-1.849933333"><ele>126.000000</ele><time>2010-01-27T12:10:32Z</time></trkpt>
	<trkpt lat="51.76733667" lon="-1.84991"><ele>121.000000</ele><time>2010-01-27T12:10:37Z</time></trkpt>
	<trkpt lat="51.76735333" lon="-1.849845"><ele>119.000000</ele><time>2010-01-27T12:10:42Z</time></trkpt>
	<trkpt lat="51.76737833" lon="-1.849778333"><ele>120.000000</ele><time>2010-01-27T12:10:47Z</time></trkpt>
	<trkpt lat="51.76738167" lon="-1.849711667"><ele>120.000000</ele><time>2010-01-27T12:10:52Z</time></trkpt>
	<trkpt lat="51.76741833" lon="-1.849625"><ele>122.000000</ele><time>2010-01-27T12:10:57Z</time></trkpt>
	<trkpt lat="51.76743167" lon="-1.849558333"><ele>123.000000</ele><time>2010-01-27T12:11:02Z</time></trkpt>
	<trkpt lat="51.76745667" lon="-1.849458333"><ele>120.000000</ele><time>2010-01-27T12:11:07Z</time></trkpt>
	<trkpt lat="51.76747667" lon="-1.849378333"><ele>119.000000</ele><time>2010-01-27T12:11:12Z</time></trkpt>
	<trkpt lat="51.76750333" lon="-1.849305"><ele>119.000000</ele><time>2010-01-27T12:11:17Z</time></trkpt>
	<trkpt lat="51.76750833" lon="-1.849268333"><ele>122.000000</ele><time>2010-01-27T12:11:22Z</time></trkpt>
	<trkpt lat="51.76753" lon="-1.849176667"><ele>120.000000</ele><time>2010-01-27T12:11:27Z</time></trkpt>
	<trkpt lat="51.76754667" lon="-1.849101667"><ele>120.000000</ele><time>2010-01-27T12:11:32Z</time></trkpt>
	<trkpt lat="51.76756667" lon="-1.849003333"><ele>119.000000</ele><time>2010-01-27T12:11:37Z</time></trkpt>
	<trkpt lat="51.76757167" lon="-1.848941667"><ele>120.000000</ele><time>2010-01-27T12:11:42Z</time></trkpt>
	<trkpt lat="51.76758" lon="-1.848873333"><ele>121.000000</ele><time>2010-01-27T12:11:47Z</time></trkpt>
	<trkpt lat="51.76759" lon="-1.848765"><ele>118.000000</ele><time>2010-01-27T12:11:52Z</time></trkpt>
	<trkpt lat="51.76761333" lon="-1.84869"><ele>119.000000</ele><time>2010-01-27T12:11:57Z</time></trkpt>
	<trkpt lat="51.76763667" lon="-1.848603333"><ele>118.000000</ele><time>2010-01-27T12:12:02Z</time></trkpt>
	<trkpt lat="51.76765167" lon="-1.848546667"><ele>119.000000</ele><time>2010-01-27T12:12:07Z</time></trkpt>
	<trkpt lat="51.76766167" lon="-1.8485"><ele>120.000000</ele><time>2010-01-27T12:12:12Z</time></trkpt>
	<trkpt lat="51.76767833" lon="-1.848455"><ele>122.000000</ele><time>2010-01-27T12:12:17Z</time></trkpt>
	<trkpt lat="51.767695" lon="-1.84842"><ele>126.000000</ele><time>2010-01-27T12:12:22Z</time></trkpt>
	<trkpt lat="51.7677" lon="-1.848368333"><ele>128.000000</ele><time>2010-01-27T12:12:27Z</time></trkpt>
	<trkpt lat="51.76771833" lon="-1.8483"><ele>130.000000</ele><time>2010-01-27T12:12:32Z</time></trkpt>
	<trkpt lat="51.76773833" lon="-1.848235"><ele>132.000000</ele><time>2010-01-27T12:12:37Z</time></trkpt>
	<trkpt lat="51.76776" lon="-1.848161667"><ele>132.000000</ele><time>2010-01-27T12:12:42Z</time></trkpt>
	<trkpt lat="51.76776333" lon="-1.848086667"><ele>130.000000</ele><time>2010-01-27T12:12:47Z</time></trkpt>
	<trkpt lat="51.76778667" lon="-1.848036667"><ele>132.000000</ele><time>2010-01-27T12:12:52Z</time></trkpt>
	<trkpt lat="51.76780333" lon="-1.847975"><ele>132.000000</ele><time>2010-01-27T12:12:57Z</time></trkpt>
	<trkpt lat="51.76785333" lon="-1.847855"><ele>129.000000</ele><time>2010-01-27T12:13:02Z</time></trkpt>
	<trkpt lat="51.76790167" lon="-1.847745"><ele>128.000000</ele><time>2010-01-27T12:13:07Z</time></trkpt>
	<trkpt lat="51.76794" lon="-1.847663333"><ele>128.000000</ele><time>2010-01-27T12:13:12Z</time></trkpt>
	<trkpt lat="51.76797333" lon="-1.84758"><ele>128.000000</ele><time>2010-01-27T12:13:17Z</time></trkpt>
	<trkpt lat="51.76795833" lon="-1.847478333"><ele>126.000000</ele><time>2010-01-27T12:13:22Z</time></trkpt>
	<trkpt lat="51.76793167" lon="-1.847386667"><ele>124.000000</ele><time>2010-01-27T12:13:27Z</time></trkpt>
	<trkpt lat="51.76793167" lon="-1.847318333"><ele>123.000000</ele><time>2010-01-27T12:13:32Z</time></trkpt>
	<trkpt lat="51.76795167" lon="-1.847258333"><ele>126.000000</ele><time>2010-01-27T12:13:37Z</time></trkpt>
	<trkpt lat="51.76795833" lon="-1.84717"><ele>126.000000</ele><time>2010-01-27T12:13:42Z</time></trkpt>
	<trkpt lat="51.767955" lon="-1.84708"><ele>124.000000</ele><time>2010-01-27T12:13:47Z</time></trkpt>
	<trkpt lat="51.76796167" lon="-1.846973333"><ele>124.000000</ele><time>2010-01-27T12:13:52Z</time></trkpt>
	<trkpt lat="51.76796667" lon="-1.846888333"><ele>124.000000</ele><time>2010-01-27T12:13:57Z</time></trkpt>
	<trkpt lat="51.767965" lon="-1.84681"><ele>124.000000</ele><time>2010-01-27T12:14:02Z</time></trkpt>
	<trkpt lat="51.76798333" lon="-1.846716667"><ele>126.000000</ele><time>2010-01-27T12:14:07Z</time></trkpt>
	<trkpt lat="51.767995" lon="-1.846648333"><ele>130.000000</ele><time>2010-01-27T12:14:12Z</time></trkpt>
	<trkpt lat="51.76799333" lon="-1.846575"><ele>130.000000</ele><time>2010-01-27T12:14:17Z</time></trkpt>
	<trkpt lat="51.76799667" lon="-1.84645"><ele>128.000000</ele><time>2010-01-27T12:14:22Z</time></trkpt>
	<trkpt lat="51.76799167" lon="-1.846315"><ele>124.000000</ele><time>2010-01-27T12:14:27Z</time></trkpt>
	<trkpt lat="51.767965" lon="-1.846191667"><ele>118.000000</ele><time>2010-01-27T12:14:32Z</time></trkpt>
	<trkpt lat="51.76791833" lon="-1.846076667"><ele>112.000000</ele><time>2010-01-27T12:14:37Z</time></trkpt>
	<trkpt lat="51.76789667" lon="-1.845991667"><ele>110.000000</ele><time>2010-01-27T12:14:42Z</time></trkpt>
	<trkpt lat="51.76787167" lon="-1.845908333"><ele>109.000000</ele><time>2010-01-27T12:14:47Z</time></trkpt>
	<trkpt lat="51.76785333" lon="-1.845833333"><ele>109.000000</ele><time>2010-01-27T12:14:52Z</time></trkpt>
	<trkpt lat="51.767835" lon="-1.845756667"><ele>108.000000</ele><time>2010-01-27T12:14:57Z</time></trkpt>
	<trkpt lat="51.767805" lon="-1.845668333"><ele>107.000000</ele><time>2010-01-27T12:15:02Z</time></trkpt>
	<trkpt lat="51.76779167" lon="-1.845578333"><ele>107.000000</ele><time>2010-01-27T12:15:07Z</time></trkpt>
	<trkpt lat="51.76777833" lon="-1.845483333"><ele>107.000000</ele><time>2010-01-27T12:15:12Z</time></trkpt>
	<trkpt lat="51.76775833" lon="-1.845435"><ele>109.000000</ele><time>2010-01-27T12:15:17Z</time></trkpt>
	<trkpt lat="51.76774333" lon="-1.845368333"><ele>110.000000</ele><time>2010-01-27T12:15:22Z</time></trkpt>
	<trkpt lat="51.76772333" lon="-1.845306667"><ele>111.000000</ele><time>2010-01-27T12:15:27Z</time></trkpt>
	<trkpt lat="51.76771333" lon="-1.845253333"><ele>115.000000</ele><time>2010-01-27T12:15:32Z</time></trkpt>
	<trkpt lat="51.76773167" lon="-1.845155"><ele>114.000000</ele><time>2010-01-27T12:15:37Z</time></trkpt>
	<trkpt lat="51.76772333" lon="-1.845071667"><ele>114.000000</ele><time>2010-01-27T12:15:42Z</time></trkpt>
	<trkpt lat="51.76772667" lon="-1.845"><ele>116.000000</ele><time>2010-01-27T12:15:47Z</time></trkpt>
	<trkpt lat="51.76772833" lon="-1.844926667"><ele>121.000000</ele><time>2010-01-27T12:15:52Z</time></trkpt>
	<trkpt lat="51.76774" lon="-1.84484"><ele>122.000000</ele><time>2010-01-27T12:15:57Z</time></trkpt>
	<trkpt lat="51.76770333" lon="-1.844755"><ele>119.000000</ele><time>2010-01-27T12:16:02Z</time></trkpt>
	<trkpt lat="51.767665" lon="-1.84471"><ele>120.000000</ele><time>2010-01-27T12:16:07Z</time></trkpt>
	<trkpt lat="51.76765333" lon="-1.844636667"><ele>117.000000</ele><time>2010-01-27T12:16:12Z</time></trkpt>
	<trkpt lat="51.767625" lon="-1.84456"><ele>114.000000</ele><time>2010-01-27T12:16:17Z</time></trkpt>
	<trkpt lat="51.76759167" lon="-1.844523333"><ele>113.000000</ele><time>2010-01-27T12:16:22Z</time></trkpt>
	<trkpt lat="51.76757833" lon="-1.84447"><ele>120.000000</ele><time>2010-01-27T12:16:27Z</time></trkpt>
	<trkpt lat="51.76759" lon="-1.84443"><ele>125.000000</ele><time>2010-01-27T12:16:32Z</time></trkpt>
	<trkpt lat="51.76757667" lon="-1.84436"><ele>125.000000</ele><time>2010-01-27T12:16:37Z</time></trkpt>
	<trkpt lat="51.76753333" lon="-1.844293333"><ele>123.000000</ele><time>2010-01-27T12:16:42Z</time></trkpt>
	<trkpt lat="51.76748333" lon="-1.844211667"><ele>116.000000</ele><time>2010-01-27T12:16:47Z</time></trkpt>
	<trkpt lat="51.76747" lon="-1.844173333"><ele>118.000000</ele><time>2010-01-27T12:16:52Z</time></trkpt>
	<trkpt lat="51.76743667" lon="-1.844118333"><ele>119.000000</ele><time>2010-01-27T12:16:57Z</time></trkpt>
	<trkpt lat="51.76740833" lon="-1.84407"><ele>122.000000</ele><time>2010-01-27T12:17:02Z</time></trkpt>
	<trkpt lat="51.76739167" lon="-1.844013333"><ele>122.000000</ele><time>2010-01-27T12:17:07Z</time></trkpt>
	<trkpt lat="51.76737167" lon="-1.843941667"><ele>127.000000</ele><time>2010-01-27T12:17:12Z</time></trkpt>
	<trkpt lat="51.76732833" lon="-1.843868333"><ele>126.000000</ele><time>2010-01-27T12:17:17Z</time></trkpt>
	<trkpt lat="51.767295" lon="-1.84381"><ele>126.000000</ele><time>2010-01-27T12:17:22Z</time></trkpt>
	<trkpt lat="51.76726" lon="-1.843756667"><ele>124.000000</ele><time>2010-01-27T12:17:27Z</time></trkpt>
	<trkpt lat="51.76724667" lon="-1.843711667"><ele>125.000000</ele><time>2010-01-27T12:17:32Z</time></trkpt>
	<trkpt lat="51.767215" lon="-1.843651667"><ele>124.000000</ele><time>2010-01-27T12:17:37Z</time></trkpt>
	<trkpt lat="51.76718667" lon="-1.843613333"><ele>129.000000</ele><time>2010-01-27T12:17:42Z</time></trkpt>
	<trkpt lat="51.76716167" lon="-1.843565"><ele>133.000000</ele><time>2010-01-27T12:17:47Z</time></trkpt>
	<trkpt lat="51.76714833" lon="-1.843495"><ele>134.000000</ele><time>2010-01-27T12:17:52Z</time></trkpt>
	<trkpt lat="51.76713167" lon="-1.84344"><ele>139.000000</ele><time>2010-01-27T12:17:57Z</time></trkpt>
	<trkpt lat="51.767115" lon="-1.843405"><ele>141.000000</ele><time>2010-01-27T12:18:02Z</time></trkpt>
	<trkpt lat="51.767095" lon="-1.843356667"><ele>142.000000</ele><time>2010-01-27T12:18:07Z</time></trkpt>
	<trkpt lat="51.76706833" lon="-1.843326667"><ele>141.000000</ele><time>2010-01-27T12:18:12Z</time></trkpt>
	<trkpt lat="51.76704333" lon="-1.843285"><ele>142.000000</ele><time>2010-01-27T12:18:17Z</time></trkpt>
	<trkpt lat="51.76693833" lon="-1.843223333"><ele>132.000000</ele><time>2010-01-27T12:18:22Z</time></trkpt>
	<trkpt lat="51.76683333" lon="-1.843141667"><ele>124.000000</ele><time>2010-01-27T12:18:27Z</time></trkpt>
	<trkpt lat="51.76674667" lon="-1.843085"><ele>117.000000</ele><time>2010-01-27T12:18:32Z</time></trkpt>
	<trkpt lat="51.76667167" lon="-1.843021667"><ele>109.000000</ele><time>2010-01-27T12:18:37Z</time></trkpt>
	<trkpt lat="51.76663667" lon="-1.842975"><ele>108.000000</ele><time>2010-01-27T12:18:42Z</time></trkpt>
	<trkpt lat="51.76661667" lon="-1.842943333"><ele>111.000000</ele><time>2010-01-27T12:18:47Z</time></trkpt>
	<trkpt lat="51.7666" lon="-1.842891667"><ele>117.000000</ele><time>2010-01-27T12:18:52Z</time></trkpt>
	<trkpt lat="51.76655667" lon="-1.84286"><ele>121.000000</ele><time>2010-01-27T12:18:57Z</time></trkpt>
	<trkpt lat="51.76654167" lon="-1.842851667"><ele>124.000000</ele><time>2010-01-27T12:19:02Z</time></trkpt>
	<trkpt lat="51.76649667" lon="-1.842835"><ele>128.000000</ele><time>2010-01-27T12:19:07Z</time></trkpt>
	<trkpt lat="51.76646167" lon="-1.84281"><ele>130.000000</ele><time>2010-01-27T12:19:12Z</time></trkpt>
	<trkpt lat="51.76640333" lon="-1.842778333"><ele>133.000000</ele><time>2010-01-27T12:19:17Z</time></trkpt>
	<trkpt lat="51.76633833" lon="-1.84276"><ele>132.000000</ele><time>2010-01-27T12:19:22Z</time></trkpt>
	<trkpt lat="51.766295" lon="-1.842728333"><ele>131.000000</ele><time>2010-01-27T12:19:27Z</time></trkpt>
	<trkpt lat="51.76623333" lon="-1.842718333"><ele>130.000000</ele><time>2010-01-27T12:19:32Z</time></trkpt>
	<trkpt lat="51.76616167" lon="-1.842696667"><ele>130.000000</ele><time>2010-01-27T12:19:37Z</time></trkpt>
	<trkpt lat="51.76612" lon="-1.842681667"><ele>133.000000</ele><time>2010-01-27T12:19:42Z</time></trkpt>
	<trkpt lat="51.76605" lon="-1.842668333"><ele>130.000000</ele><time>2010-01-27T12:19:47Z</time></trkpt>
	<trkpt lat="51.76601167" lon="-1.842658333"><ele>133.000000</ele><time>2010-01-27T12:19:52Z</time></trkpt>
	<trkpt lat="51.76592" lon="-1.8426"><ele>129.000000</ele><time>2010-01-27T12:19:57Z</time></trkpt>
	<trkpt lat="51.76588833" lon="-1.842588333"><ele>133.000000</ele><time>2010-01-27T12:20:02Z</time></trkpt>
	<trkpt lat="51.76586333" lon="-1.842565"><ele>136.000000</ele><time>2010-01-27T12:20:07Z</time></trkpt>
	<trkpt lat="51.76581833" lon="-1.842511667"><ele>135.000000</ele><time>2010-01-27T12:20:12Z</time></trkpt>
	<trkpt lat="51.765755" lon="-1.842506667"><ele>133.000000</ele><time>2010-01-27T12:20:17Z</time></trkpt>
	<trkpt lat="51.76568667" lon="-1.842485"><ele>128.000000</ele><time>2010-01-27T12:20:22Z</time></trkpt>
	<trkpt lat="51.765625" lon="-1.842468333"><ele>124.000000</ele><time>2010-01-27T12:20:27Z</time></trkpt>
	<trkpt lat="51.765575" lon="-1.842453333"><ele>129.000000</ele><time>2010-01-27T12:20:32Z</time></trkpt>
	<trkpt lat="51.765515" lon="-1.842426667"><ele>134.000000</ele><time>2010-01-27T12:20:37Z</time></trkpt>
	<trkpt lat="51.76544667" lon="-1.842408333"><ele>135.000000</ele><time>2010-01-27T12:20:42Z</time></trkpt>
	<trkpt lat="51.76540167" lon="-1.842383333"><ele>136.000000</ele><time>2010-01-27T12:20:47Z</time></trkpt>
	<trkpt lat="51.76535" lon="-1.842358333"><ele>137.000000</ele><time>2010-01-27T12:20:52Z</time></trkpt>
	<trkpt lat="51.76531833" lon="-1.842315"><ele>139.000000</ele><time>2010-01-27T12:20:57Z</time></trkpt>
	<trkpt lat="51.76527167" lon="-1.842266667"><ele>139.000000</ele><time>2010-01-27T12:21:02Z</time></trkpt>
	<trkpt lat="51.76523333" lon="-1.842238333"><ele>139.000000</ele><time>2010-01-27T12:21:07Z</time></trkpt>
	<trkpt lat="51.76519" lon="-1.842206667"><ele>139.000000</ele><time>2010-01-27T12:21:12Z</time></trkpt>
	<trkpt lat="51.76514333" lon="-1.842168333"><ele>138.000000</ele><time>2010-01-27T12:21:17Z</time></trkpt>
	<trkpt lat="51.76509333" lon="-1.842123333"><ele>135.000000</ele><time>2010-01-27T12:21:22Z</time></trkpt>
	<trkpt lat="51.76504333" lon="-1.84208"><ele>133.000000</ele><time>2010-01-27T12:21:27Z</time></trkpt>
	<trkpt lat="51.76500167" lon="-1.842043333"><ele>133.000000</ele><time>2010-01-27T12:21:32Z</time></trkpt>
	<trkpt lat="51.76495167" lon="-1.842008333"><ele>132.000000</ele><time>2010-01-27T12:21:37Z</time></trkpt>
	<trkpt lat="51.76489833" lon="-1.841971667"><ele>130.000000</ele><time>2010-01-27T12:21:42Z</time></trkpt>
	<trkpt lat="51.76486333" lon="-1.84193"><ele>131.000000</ele><time>2010-01-27T12:21:47Z</time></trkpt>
	<trkpt lat="51.76481333" lon="-1.841883333"><ele>129.000000</ele><time>2010-01-27T12:21:52Z</time></trkpt>
	<trkpt lat="51.76477333" lon="-1.841851667"><ele>128.000000</ele><time>2010-01-27T12:21:57Z</time></trkpt>
	<trkpt lat="51.76473333" lon="-1.841815"><ele>127.000000</ele><time>2010-01-27T12:22:02Z</time></trkpt>
	<trkpt lat="51.76469833" lon="-1.841776667"><ele>125.000000</ele><time>2010-01-27T12:22:07Z</time></trkpt>
	<trkpt lat="51.76465833" lon="-1.841726667"><ele>125.000000</ele><time>2010-01-27T12:22:12Z</time></trkpt>
	<trkpt lat="51.76463" lon="-1.841686667"><ele>127.000000</ele><time>2010-01-27T12:22:17Z</time></trkpt>
	<trkpt lat="51.76459667" lon="-1.841646667"><ele>128.000000</ele><time>2010-01-27T12:22:22Z</time></trkpt>
	<trkpt lat="51.76456167" lon="-1.841613333"><ele>128.000000</ele><time>2010-01-27T12:22:27Z</time></trkpt>
	<trkpt lat="51.76454833" lon="-1.84158"><ele>131.000000</ele><time>2010-01-27T12:22:32Z</time></trkpt>
	<trkpt lat="51.76454167" lon="-1.841546667"><ele>135.000000</ele><time>2010-01-27T12:22:37Z</time></trkpt>
	<trkpt lat="51.76453" lon="-1.841526667"><ele>140.000000</ele><time>2010-01-27T12:22:42Z</time></trkpt>
	<trkpt lat="51.764515" lon="-1.841518333"><ele>141.000000</ele><time>2010-01-27T12:22:47Z</time></trkpt>
	<trkpt lat="51.76450167" lon="-1.84149"><ele>141.000000</ele><time>2010-01-27T12:22:52Z</time></trkpt>
	<trkpt lat="51.76448167" lon="-1.841458333"><ele>140.000000</ele><time>2010-01-27T12:22:57Z</time></trkpt>
	<trkpt lat="51.764465" lon="-1.841415"><ele>140.000000</ele><time>2010-01-27T12:23:02Z</time></trkpt>
	<trkpt lat="51.76444667" lon="-1.841381667"><ele>140.000000</ele><time>2010-01-27T12:23:07Z</time></trkpt>
	<trkpt lat="51.76442333" lon="-1.841333333"><ele>141.000000</ele><time>2010-01-27T12:23:12Z</time></trkpt>
	<trkpt lat="51.76441167" lon="-1.841296667"><ele>141.000000</ele><time>2010-01-27T12:23:17Z</time></trkpt>
	<trkpt lat="51.76438667" lon="-1.84125"><ele>143.000000</ele><time>2010-01-27T12:23:22Z</time></trkpt>
	<trkpt lat="51.76433" lon="-1.841198333"><ele>143.000000</ele><time>2010-01-27T12:23:27Z</time></trkpt>
	<trkpt lat="51.76427667" lon="-1.841145"><ele>140.000000</ele><time>2010-01-27T12:23:32Z</time></trkpt>
	<trkpt lat="51.76420667" lon="-1.841073333"><ele>141.000000</ele><time>2010-01-27T12:23:37Z</time></trkpt>
	<trkpt lat="51.76412833" lon="-1.840998333"><ele>140.000000</ele><time>2010-01-27T12:23:42Z</time></trkpt>
	<trkpt lat="51.764065" lon="-1.840935"><ele>136.000000</ele><time>2010-01-27T12:23:47Z</time></trkpt>
	<trkpt lat="51.76402167" lon="-1.840883333"><ele>136.000000</ele><time>2010-01-27T12:23:52Z</time></trkpt>
	<trkpt lat="51.76395667" lon="-1.840808333"><ele>135.000000</ele><time>2010-01-27T12:23:57Z</time></trkpt>
	<trkpt lat="51.76390833" lon="-1.84075"><ele>137.000000</ele><time>2010-01-27T12:24:02Z</time></trkpt>
	<trkpt lat="51.76384667" lon="-1.8407"><ele>137.000000</ele><time>2010-01-27T12:24:07Z</time></trkpt>
	<trkpt lat="51.76379833" lon="-1.840655"><ele>137.000000</ele><time>2010-01-27T12:24:12Z</time></trkpt>
	<trkpt lat="51.76373667" lon="-1.840611667"><ele>135.000000</ele><time>2010-01-27T12:24:17Z</time></trkpt>
	<trkpt lat="51.763655" lon="-1.840563333"><ele>130.000000</ele><time>2010-01-27T12:24:22Z</time></trkpt>
	<trkpt lat="51.76357833" lon="-1.84051"><ele>126.000000</ele><time>2010-01-27T12:24:27Z</time></trkpt>
	<trkpt lat="51.76351" lon="-1.840453333"><ele>121.000000</ele><time>2010-01-27T12:24:32Z</time></trkpt>
	<trkpt lat="51.76346" lon="-1.840396667"><ele>118.000000</ele><time>2010-01-27T12:24:37Z</time></trkpt>
	<trkpt lat="51.76342" lon="-1.84036"><ele>119.000000</ele><time>2010-01-27T12:24:42Z</time></trkpt>
	<trkpt lat="51.763365" lon="-1.840331667"><ele>117.000000</ele><time>2010-01-27T12:24:47Z</time></trkpt>
	<trkpt lat="51.76328833" lon="-1.840265"><ele>111.000000</ele><time>2010-01-27T12:24:52Z</time></trkpt>
	<trkpt lat="51.763245" lon="-1.840231667"><ele>110.000000</ele><time>2010-01-27T12:24:57Z</time></trkpt>
	<trkpt lat="51.76322167" lon="-1.840181667"><ele>111.000000</ele><time>2010-01-27T12:25:02Z</time></trkpt>
	<trkpt lat="51.76321" lon="-1.84014"><ele>117.000000</ele><time>2010-01-27T12:25:07Z</time></trkpt>
	<trkpt lat="51.7632" lon="-1.840093333"><ele>120.000000</ele><time>2010-01-27T12:25:12Z</time></trkpt>
	<trkpt lat="51.76318167" lon="-1.840066667"><ele>121.000000</ele><time>2010-01-27T12:25:17Z</time></trkpt>
	<trkpt lat="51.76315" lon="-1.840015"><ele>122.000000</ele><time>2010-01-27T12:25:22Z</time></trkpt>
	<trkpt lat="51.76312333" lon="-1.839951667"><ele>119.000000</ele><time>2010-01-27T12:25:27Z</time></trkpt>
	<trkpt lat="51.76308" lon="-1.839875"><ele>118.000000</ele><time>2010-01-27T12:25:32Z</time></trkpt>
	<trkpt lat="51.76305333" lon="-1.839806667"><ele>118.000000</ele><time>2010-01-27T12:25:37Z</time></trkpt>
	<trkpt lat="51.76303" lon="-1.83974"><ele>123.000000</ele><time>2010-01-27T12:25:42Z</time></trkpt>
	<trkpt lat="51.76301" lon="-1.839658333"><ele>124.000000</ele><time>2010-01-27T12:25:47Z</time></trkpt>
	<trkpt lat="51.762965" lon="-1.839598333"><ele>121.000000</ele><time>2010-01-27T12:25:52Z</time></trkpt>
	<trkpt lat="51.76293167" lon="-1.839543333"><ele>118.000000</ele><time>2010-01-27T12:25:57Z</time></trkpt>
	<trkpt lat="51.76291667" lon="-1.839475"><ele>117.000000</ele><time>2010-01-27T12:26:02Z</time></trkpt>
	<trkpt lat="51.76288667" lon="-1.839395"><ele>116.000000</ele><time>2010-01-27T12:26:07Z</time></trkpt>
	<trkpt lat="51.76285833" lon="-1.839313333"><ele>116.000000</ele><time>2010-01-27T12:26:12Z</time></trkpt>
	<trkpt lat="51.76283167" lon="-1.839233333"><ele>119.000000</ele><time>2010-01-27T12:26:17Z</time></trkpt>
	<trkpt lat="51.762805" lon="-1.83916"><ele>121.000000</ele><time>2010-01-27T12:26:22Z</time></trkpt>
	<trkpt lat="51.76278667" lon="-1.839105"><ele>125.000000</ele><time>2010-01-27T12:26:27Z</time></trkpt>
	<trkpt lat="51.76275833" lon="-1.839055"><ele>129.000000</ele><time>2010-01-27T12:26:32Z</time></trkpt>
	<trkpt lat="51.76274333" lon="-1.839005"><ele>136.000000</ele><time>2010-01-27T12:26:37Z</time></trkpt>
	<trkpt lat="51.76272" lon="-1.83896"><ele>142.000000</ele><time>2010-01-27T12:26:42Z</time></trkpt>
	<trkpt lat="51.7627" lon="-1.83891"><ele>147.000000</ele><time>2010-01-27T12:26:47Z</time></trkpt>
	<trkpt lat="51.762645" lon="-1.838833333"><ele>142.000000</ele><time>2010-01-27T12:26:52Z</time></trkpt>
	<trkpt lat="51.76262167" lon="-1.83878"><ele>144.000000</ele><time>2010-01-27T12:26:57Z</time></trkpt>
	<trkpt lat="51.76261833" lon="-1.838736667"><ele>148.000000</ele><time>2010-01-27T12:27:02Z</time></trkpt>
	<trkpt lat="51.76258167" lon="-1.838673333"><ele>145.000000</ele><time>2010-01-27T12:27:07Z</time></trkpt>
	<trkpt lat="51.76255833" lon="-1.838615"><ele>142.000000</ele><time>2010-01-27T12:27:12Z</time></trkpt>
	<trkpt lat="51.76254333" lon="-1.838551667"><ele>142.000000</ele><time>2010-01-27T12:27:17Z</time></trkpt>
	<trkpt lat="51.76250667" lon="-1.838481667"><ele>139.000000</ele><time>2010-01-27T12:27:22Z</time></trkpt>
	<trkpt lat="51.76247833" lon="-1.838425"><ele>138.000000</ele><time>2010-01-27T12:27:27Z</time></trkpt>
	<trkpt lat="51.76243" lon="-1.838385"><ele>136.000000</ele><time>2010-01-27T12:27:32Z</time></trkpt>
	<trkpt lat="51.76239833" lon="-1.83832"><ele>134.000000</ele><time>2010-01-27T12:27:37Z</time></trkpt>
	<trkpt lat="51.76236333" lon="-1.838273333"><ele>131.000000</ele><time>2010-01-27T12:27:42Z</time></trkpt>
	<trkpt lat="51.76232333" lon="-1.838205"><ele>127.000000</ele><time>2010-01-27T12:27:47Z</time></trkpt>
	<trkpt lat="51.76227667" lon="-1.838131667"><ele>120.000000</ele><time>2010-01-27T12:27:52Z</time></trkpt>
	<trkpt lat="51.76227" lon="-1.838071667"><ele>121.000000</ele><time>2010-01-27T12:27:57Z</time></trkpt>
	<trkpt lat="51.76224333" lon="-1.838005"><ele>119.000000</ele><time>2010-01-27T12:28:02Z</time></trkpt>
	<trkpt lat="51.762205" lon="-1.837933333"><ele>116.000000</ele><time>2010-01-27T12:28:07Z</time></trkpt>
	<trkpt lat="51.762195" lon="-1.837868333"><ele>117.000000</ele><time>2010-01-27T12:28:12Z</time></trkpt>
	<trkpt lat="51.76217333" lon="-1.837791667"><ele>116.000000</ele><time>2010-01-27T12:28:17Z</time></trkpt>
	<trkpt lat="51.762135" lon="-1.837706667"><ele>112.000000</ele><time>2010-01-27T12:28:22Z</time></trkpt>
	<trkpt lat="51.762105" lon="-1.83763"><ele>111.000000</ele><time>2010-01-27T12:28:27Z</time></trkpt>
	<trkpt lat="51.76208" lon="-1.837551667"><ele>107.000000</ele><time>2010-01-27T12:28:32Z</time></trkpt>
	<trkpt lat="51.76206" lon="-1.837475"><ele>107.000000</ele><time>2010-01-27T12:28:37Z</time></trkpt>
	<trkpt lat="51.762035" lon="-1.837396667"><ele>106.000000</ele><time>2010-01-27T12:28:42Z</time></trkpt>
	<trkpt lat="51.762015" lon="-1.83732"><ele>108.000000</ele><time>2010-01-27T12:28:47Z</time></trkpt>
	<trkpt lat="51.76198833" lon="-1.837241667"><ele>108.000000</ele><time>2010-01-27T12:28:52Z</time></trkpt>
	<trkpt lat="51.76195833" lon="-1.837156667"><ele>105.000000</ele><time>2010-01-27T12:28:57Z</time></trkpt>
	<trkpt lat="51.76195833" lon="-1.83714"><ele>109.000000</ele><time>2010-01-27T12:29:02Z</time></trkpt>
	<trkpt lat="51.76196667" lon="-1.83716"><ele>118.000000</ele><time>2010-01-27T12:29:07Z</time></trkpt>
	<trkpt lat="51.76193833" lon="-1.837105"><ele>119.000000</ele><time>2010-01-27T12:29:12Z</time></trkpt>
	<trkpt lat="51.76192167" lon="-1.837083333"><ele>124.000000</ele><time>2010-01-27T12:29:17Z</time></trkpt>
	<trkpt lat="51.76190667" lon="-1.837058333"><ele>130.000000</ele><time>2010-01-27T12:29:22Z</time></trkpt>
	<trkpt lat="51.76188833" lon="-1.837025"><ele>132.000000</ele><time>2010-01-27T12:29:27Z</time></trkpt>
	<trkpt lat="51.76185667" lon="-1.83697"><ele>131.000000</ele><time>2010-01-27T12:29:32Z</time></trkpt>
	<trkpt lat="51.76182333" lon="-1.836896667"><ele>131.000000</ele><time>2010-01-27T12:29:37Z</time></trkpt>
	<trkpt lat="51.76178667" lon="-1.836796667"><ele>129.000000</ele><time>2010-01-27T12:29:42Z</time></trkpt>
	<trkpt lat="51.76176" lon="-1.83666"><ele>126.000000</ele><time>2010-01-27T12:29:47Z</time></trkpt>
	<trkpt lat="51.76172667" lon="-1.83655"><ele>122.000000</ele><time>2010-01-27T12:29:52Z</time></trkpt>
	<trkpt lat="51.76169333" lon="-1.836461667"><ele>119.000000</ele><time>2010-01-27T12:29:57Z</time></trkpt>
	<trkpt lat="51.76167667" lon="-1.83639"><ele>119.000000</ele><time>2010-01-27T12:30:02Z</time></trkpt>
	<trkpt lat="51.76166" lon="-1.836333333"><ele>119.000000</ele><time>2010-01-27T12:30:07Z</time></trkpt>
	<trkpt lat="51.76162667" lon="-1.836233333"><ele>118.000000</ele><time>2010-01-27T12:30:12Z</time></trkpt>
	<trkpt lat="51.76161333" lon="-1.836146667"><ele>118.000000</ele><time>2010-01-27T12:30:17Z</time></trkpt>
	<trkpt lat="51.76159167" lon="-1.836076667"><ele>118.000000</ele><time>2010-01-27T12:30:22Z</time></trkpt>
	<trkpt lat="51.76157667" lon="-1.836036667"><ele>121.000000</ele><time>2010-01-27T12:30:27Z</time></trkpt>
	<trkpt lat="51.76156333" lon="-1.835993333"><ele>125.000000</ele><time>2010-01-27T12:30:32Z</time></trkpt>
	<trkpt lat="51.76154333" lon="-1.835971667"><ele>128.000000</ele><time>2010-01-27T12:30:37Z</time></trkpt>
	<trkpt lat="51.761525" lon="-1.835935"><ele>130.000000</ele><time>2010-01-27T12:30:42Z</time></trkpt>
	<trkpt lat="51.76151333" lon="-1.835868333"><ele>131.000000</ele><time>2010-01-27T12:30:47Z</time></trkpt>
	<trkpt lat="51.76149333" lon="-1.835756667"><ele>124.000000</ele><time>2010-01-27T12:30:52Z</time></trkpt>
	<trkpt lat="51.76145667" lon="-1.835646667"><ele>117.000000</ele><time>2010-01-27T12:30:57Z</time></trkpt>
	<trkpt lat="51.761415" lon="-1.83555"><ele>114.000000</ele><time>2010-01-27T12:31:02Z</time></trkpt>
	<trkpt lat="51.761385" lon="-1.835496667"><ele>113.000000</ele><time>2010-01-27T12:31:07Z</time></trkpt>
	<trkpt lat="51.76132833" lon="-1.835423333"><ele>111.000000</ele><time>2010-01-27T12:31:12Z</time></trkpt>
	<trkpt lat="51.76127833" lon="-1.835351667"><ele>108.000000</ele><time>2010-01-27T12:31:17Z</time></trkpt>
	<trkpt lat="51.76122833" lon="-1.835308333"><ele>108.000000</ele><time>2010-01-27T12:31:22Z</time></trkpt>
	<trkpt lat="51.76118833" lon="-1.835256667"><ele>108.000000</ele><time>2010-01-27T12:31:27Z</time></trkpt>
	<trkpt lat="51.76116" lon="-1.83522"><ele>111.000000</ele><time>2010-01-27T12:31:32Z</time></trkpt>
	<trkpt lat="51.761105" lon="-1.835175"><ele>109.000000</ele><time>2010-01-27T12:31:37Z</time></trkpt>
	<trkpt lat="51.76104167" lon="-1.835143333"><ele>107.000000</ele><time>2010-01-27T12:31:42Z</time></trkpt>
	<trkpt lat="51.76099667" lon="-1.835113333"><ele>107.000000</ele><time>2010-01-27T12:31:47Z</time></trkpt>
	<trkpt lat="51.76095833" lon="-1.835078333"><ele>106.000000</ele><time>2010-01-27T12:31:52Z</time></trkpt>
	<trkpt lat="51.76091333" lon="-1.83503"><ele>104.000000</ele><time>2010-01-27T12:31:57Z</time></trkpt>
	<trkpt lat="51.76086667" lon="-1.835001667"><ele>104.000000</ele><time>2010-01-27T12:32:02Z</time></trkpt>
	<trkpt lat="51.76082" lon="-1.834963333"><ele>102.000000</ele><time>2010-01-27T12:32:07Z</time></trkpt>
	<trkpt lat="51.76079" lon="-1.834903333"><ele>102.000000</ele><time>2010-01-27T12:32:12Z</time></trkpt>
	<trkpt lat="51.760705" lon="-1.834998333"><ele>104.000000</ele><time>2010-01-27T12:32:17Z</time></trkpt>
	<trkpt lat="51.760655" lon="-1.835055"><ele>106.000000</ele><time>2010-01-27T12:32:22Z</time></trkpt>
	<trkpt lat="51.7606" lon="-1.835115"><ele>108.000000</ele><time>2010-01-27T12:32:27Z</time></trkpt>
	<trkpt lat="51.76056167" lon="-1.835198333"><ele>110.000000</ele><time>2010-01-27T12:32:32Z</time></trkpt>
	<trkpt lat="51.76054" lon="-1.835276667"><ele>109.000000</ele><time>2010-01-27T12:32:37Z</time></trkpt>
	<trkpt lat="51.76052" lon="-1.835343333"><ele>114.000000</ele><time>2010-01-27T12:32:42Z</time></trkpt>
	<trkpt lat="51.76049667" lon="-1.835421667"><ele>116.000000</ele><time>2010-01-27T12:32:47Z</time></trkpt>
	<trkpt lat="51.76049833" lon="-1.835521667"><ele>117.000000</ele><time>2010-01-27T12:32:52Z</time></trkpt>
	<trkpt lat="51.76048" lon="-1.83552"><ele>127.000000</ele><time>2010-01-27T12:32:57Z</time></trkpt>
	<trkpt lat="51.76044167" lon="-1.83554"><ele>130.000000</ele><time>2010-01-27T12:33:02Z</time></trkpt>
	<trkpt lat="51.76042" lon="-1.835608333"><ele>131.000000</ele><time>2010-01-27T12:33:07Z</time></trkpt>
	<trkpt lat="51.76039667" lon="-1.835693333"><ele>130.000000</ele><time>2010-01-27T12:33:12Z</time></trkpt>
	<trkpt lat="51.76037167" lon="-1.835785"><ele>127.000000</ele><time>2010-01-27T12:33:17Z</time></trkpt>
	<trkpt lat="51.76034667" lon="-1.835853333"><ele>124.000000</ele><time>2010-01-27T12:33:22Z</time></trkpt>
	<trkpt lat="51.76032667" lon="-1.835918333"><ele>122.000000</ele><time>2010-01-27T12:33:27Z</time></trkpt>
	<trkpt lat="51.76032" lon="-1.836031667"><ele>120.000000</ele><time>2010-01-27T12:33:32Z</time></trkpt>
	<trkpt lat="51.76029667" lon="-1.8361"><ele>119.000000</ele><time>2010-01-27T12:33:37Z</time></trkpt>
	<trkpt lat="51.76027667" lon="-1.836176667"><ele>122.000000</ele><time>2010-01-27T12:33:42Z</time></trkpt>
	<trkpt lat="51.76025833" lon="-1.836255"><ele>120.000000</ele><time>2010-01-27T12:33:47Z</time></trkpt>
	<trkpt lat="51.760215" lon="-1.836281667"><ele>122.000000</ele><time>2010-01-27T12:33:52Z</time></trkpt>
	<trkpt lat="51.76016333" lon="-1.83629"><ele>121.000000</ele><time>2010-01-27T12:33:57Z</time></trkpt>
	<trkpt lat="51.76011167" lon="-1.836335"><ele>121.000000</ele><time>2010-01-27T12:34:02Z</time></trkpt>
	<trkpt lat="51.76008667" lon="-1.836411667"><ele>121.000000</ele><time>2010-01-27T12:34:07Z</time></trkpt>
	<trkpt lat="51.760055" lon="-1.836505"><ele>121.000000</ele><time>2010-01-27T12:34:12Z</time></trkpt>
	<trkpt lat="51.76003167" lon="-1.836621667"><ele>121.000000</ele><time>2010-01-27T12:34:17Z</time></trkpt>
	<trkpt lat="51.75999167" lon="-1.836688333"><ele>119.000000</ele><time>2010-01-27T12:34:22Z</time></trkpt>
	<trkpt lat="51.75991167" lon="-1.836701667"><ele>115.000000</ele><time>2010-01-27T12:34:27Z</time></trkpt>
	<trkpt lat="51.75983833" lon="-1.836725"><ele>110.000000</ele><time>2010-01-27T12:34:32Z</time></trkpt>
	<trkpt lat="51.75973333" lon="-1.836693333"><ele>106.000000</ele><time>2010-01-27T12:34:37Z</time></trkpt>
	<trkpt lat="51.75965167" lon="-1.836716667"><ele>99.000000</ele><time>2010-01-27T12:34:42Z</time></trkpt>
	<trkpt lat="51.75963667" lon="-1.836796667"><ele>97.000000</ele><time>2010-01-27T12:34:47Z</time></trkpt>
	<trkpt lat="51.75967" lon="-1.836926667"><ele>103.000000</ele><time>2010-01-27T12:34:52Z</time></trkpt>
	<trkpt lat="51.759715" lon="-1.837048333"><ele>114.000000</ele><time>2010-01-27T12:34:57Z</time></trkpt>
	<trkpt lat="51.75970667" lon="-1.837128333"><ele>118.000000</ele><time>2010-01-27T12:35:02Z</time></trkpt>
	<trkpt lat="51.75970667" lon="-1.83722"><ele>124.000000</ele><time>2010-01-27T12:35:07Z</time></trkpt>
	<trkpt lat="51.75969667" lon="-1.8373"><ele>127.000000</ele><time>2010-01-27T12:35:12Z</time></trkpt>
	<trkpt lat="51.75967333" lon="-1.837376667"><ele>127.000000</ele><time>2010-01-27T12:35:17Z</time></trkpt>
	<trkpt lat="51.75965" lon="-1.83746"><ele>125.000000</ele><time>2010-01-27T12:35:22Z</time></trkpt>
	<trkpt lat="51.75961333" lon="-1.837528333"><ele>121.000000</ele><time>2010-01-27T12:35:27Z</time></trkpt>
	<trkpt lat="51.75957667" lon="-1.837588333"><ele>120.000000</ele><time>2010-01-27T12:35:32Z</time></trkpt>
	<trkpt lat="51.75954667" lon="-1.837671667"><ele>119.000000</ele><time>2010-01-27T12:35:37Z</time></trkpt>
	<trkpt lat="51.759525" lon="-1.837763333"><ele>116.000000</ele><time>2010-01-27T12:35:42Z</time></trkpt>
	<trkpt lat="51.75949667" lon="-1.837838333"><ele>114.000000</ele><time>2010-01-27T12:35:47Z</time></trkpt>
	<trkpt lat="51.75947" lon="-1.8379"><ele>113.000000</ele><time>2010-01-27T12:35:52Z</time></trkpt>
	<trkpt lat="51.75944833" lon="-1.837981667"><ele>112.000000</ele><time>2010-01-27T12:35:57Z</time></trkpt>
	<trkpt lat="51.75942833" lon="-1.838066667"><ele>111.000000</ele><time>2010-01-27T12:36:02Z</time></trkpt>
	<trkpt lat="51.759405" lon="-1.838148333"><ele>111.000000</ele><time>2010-01-27T12:36:07Z</time></trkpt>
	<trkpt lat="51.75938333" lon="-1.838208333"><ele>113.000000</ele><time>2010-01-27T12:36:12Z</time></trkpt>
	<trkpt lat="51.75937833" lon="-1.838276667"><ele>116.000000</ele><time>2010-01-27T12:36:17Z</time></trkpt>
	<trkpt lat="51.75937" lon="-1.838333333"><ele>119.000000</ele><time>2010-01-27T12:36:22Z</time></trkpt>
	<trkpt lat="51.75933833" lon="-1.8383"><ele>123.000000</ele><time>2010-01-27T12:36:27Z</time></trkpt>
	<trkpt lat="51.75929167" lon="-1.838358333"><ele>120.000000</ele><time>2010-01-27T12:36:32Z</time></trkpt>
	<trkpt lat="51.759265" lon="-1.838438333"><ele>125.000000</ele><time>2010-01-27T12:36:37Z</time></trkpt>
	<trkpt lat="51.759225" lon="-1.838486667"><ele>127.000000</ele><time>2010-01-27T12:36:42Z</time></trkpt>
	<trkpt lat="51.75919833" lon="-1.838536667"><ele>128.000000</ele><time>2010-01-27T12:36:47Z</time></trkpt>
	<trkpt lat="51.75918" lon="-1.838611667"><ele>126.000000</ele><time>2010-01-27T12:36:52Z</time></trkpt>
	<trkpt lat="51.75916" lon="-1.838685"><ele>125.000000</ele><time>2010-01-27T12:36:57Z</time></trkpt>
	<trkpt lat="51.759135" lon="-1.838743333"><ele>125.000000</ele><time>2010-01-27T12:37:02Z</time></trkpt>
	<trkpt lat="51.759115" lon="-1.838788333"><ele>125.000000</ele><time>2010-01-27T12:37:07Z</time></trkpt>
	<trkpt lat="51.759095" lon="-1.838843333"><ele>125.000000</ele><time>2010-01-27T12:37:12Z</time></trkpt>
	<trkpt lat="51.75906833" lon="-1.8389"><ele>125.000000</ele><time>2010-01-27T12:37:17Z</time></trkpt>
	<trkpt lat="51.75904833" lon="-1.838978333"><ele>123.000000</ele><time>2010-01-27T12:37:22Z</time></trkpt>
	<trkpt lat="51.75903167" lon="-1.83903"><ele>122.000000</ele><time>2010-01-27T12:37:27Z</time></trkpt>
	<trkpt lat="51.75901" lon="-1.839061667"><ele>121.000000</ele><time>2010-01-27T12:37:32Z</time></trkpt>
	<trkpt lat="51.75901" lon="-1.839083333"><ele>122.000000</ele><time>2010-01-27T12:37:37Z</time></trkpt>
	<trkpt lat="51.759015" lon="-1.839096667"><ele>125.000000</ele><time>2010-01-27T12:37:42Z</time></trkpt>
	<trkpt lat="51.75898" lon="-1.839123333"><ele>127.000000</ele><time>2010-01-27T12:37:47Z</time></trkpt>
	<trkpt lat="51.75893833" lon="-1.839175"><ele>127.000000</ele><time>2010-01-27T12:37:52Z</time></trkpt>
	<trkpt lat="51.75890167" lon="-1.839218333"><ele>125.000000</ele><time>2010-01-27T12:37:57Z</time></trkpt>
	<trkpt lat="51.758875" lon="-1.83926"><ele>125.000000</ele><time>2010-01-27T12:38:02Z</time></trkpt>
	<trkpt lat="51.75884667" lon="-1.83929"><ele>125.000000</ele><time>2010-01-27T12:38:07Z</time></trkpt>
	<trkpt lat="51.75883167" lon="-1.839306667"><ele>127.000000</ele><time>2010-01-27T12:38:12Z</time></trkpt>
	<trkpt lat="51.758795" lon="-1.839295"><ele>126.000000</ele><time>2010-01-27T12:38:17Z</time></trkpt>
	<trkpt lat="51.75877" lon="-1.839273333"><ele>126.000000</ele><time>2010-01-27T12:38:22Z</time></trkpt>
	<trkpt lat="51.75874" lon="-1.839246667"><ele>124.000000</ele><time>2010-01-27T12:38:27Z</time></trkpt>
	<trkpt lat="51.75873" lon="-1.83924"><ele>122.000000</ele><time>2010-01-27T12:38:32Z</time></trkpt>
	<trkpt lat="51.75869167" lon="-1.839221667"><ele>120.000000</ele><time>2010-01-27T12:38:37Z</time></trkpt>
	<trkpt lat="51.75866167" lon="-1.839215"><ele>123.000000</ele><time>2010-01-27T12:38:42Z</time></trkpt>
	<trkpt lat="51.75865333" lon="-1.839216667"><ele>122.000000</ele><time>2010-01-27T12:38:47Z</time></trkpt>
	<trkpt lat="51.75865167" lon="-1.839211667"><ele>122.000000</ele><time>2010-01-27T12:38:52Z</time></trkpt>
	<trkpt lat="51.75864333" lon="-1.839218333"><ele>119.000000</ele><time>2010-01-27T12:38:57Z</time></trkpt>
	<trkpt lat="51.75863667" lon="-1.839213333"><ele>117.000000</ele><time>2010-01-27T12:39:02Z</time></trkpt>
	<trkpt lat="51.75862833" lon="-1.839228333"><ele>117.000000</ele><time>2010-01-27T12:39:07Z</time></trkpt>
	<trkpt lat="51.75863167" lon="-1.839233333"><ele>117.000000</ele><time>2010-01-27T12:39:12Z</time></trkpt>
	<trkpt lat="51.75862833" lon="-1.83924"><ele>116.000000</ele><time>2010-01-27T12:39:17Z</time></trkpt>
	<trkpt lat="51.75863333" lon="-1.839233333"><ele>119.000000</ele><time>2010-01-27T12:39:22Z</time></trkpt>
	<trkpt lat="51.75861667" lon="-1.839236667"><ele>119.000000</ele><time>2010-01-27T12:39:27Z</time></trkpt>
	<trkpt lat="51.75862833" lon="-1.839258333"><ele>120.000000</ele><time>2010-01-27T12:39:32Z</time></trkpt>
	<trkpt lat="51.75865333" lon="-1.83928"><ele>121.000000</ele><time>2010-01-27T12:39:37Z</time></trkpt>
	<trkpt lat="51.75866833" lon="-1.839303333"><ele>122.000000</ele><time>2010-01-27T12:39:42Z</time></trkpt>
	<trkpt lat="51.758675" lon="-1.839313333"><ele>123.000000</ele><time>2010-01-27T12:39:47Z</time></trkpt>
	<trkpt lat="51.75867333" lon="-1.83931"><ele>123.000000</ele><time>2010-01-27T12:39:52Z</time></trkpt>
	<trkpt lat="51.75867333" lon="-1.83931"><ele>123.000000</ele><time>2010-01-27T12:39:57Z</time></trkpt>
	<trkpt lat="51.75867667" lon="-1.839308333"><ele>123.000000</ele><time>2010-01-27T12:40:02Z</time></trkpt>
	<trkpt lat="51.75867667" lon="-1.839308333"><ele>122.000000</ele><time>2010-01-27T12:40:07Z</time></trkpt>
	<trkpt lat="51.75867833" lon="-1.839308333"><ele>122.000000</ele><time>2010-01-27T12:40:12Z</time></trkpt>
	<trkpt lat="51.75868" lon="-1.83931"><ele>122.000000</ele><time>2010-01-27T12:40:17Z</time></trkpt>
	<trkpt lat="51.75868333" lon="-1.83931"><ele>121.000000</ele><time>2010-01-27T12:40:22Z</time></trkpt>
	<trkpt lat="51.758685" lon="-1.83931"><ele>121.000000</ele><time>2010-01-27T12:40:27Z</time></trkpt>
	<trkpt lat="51.75868667" lon="-1.83931"><ele>121.000000</ele><time>2010-01-27T12:40:32Z</time></trkpt>
	<trkpt lat="51.75867833" lon="-1.839318333"><ele>123.000000</ele><time>2010-01-27T12:40:37Z</time></trkpt>
	<trkpt lat="51.75869167" lon="-1.839311667"><ele>123.000000</ele><time>2010-01-27T12:40:42Z</time></trkpt>
	<trkpt lat="51.758715" lon="-1.83934"><ele>122.000000</ele><time>2010-01-27T12:40:47Z</time></trkpt>
	<trkpt lat="51.75874333" lon="-1.839386667"><ele>122.000000</ele><time>2010-01-27T12:40:52Z</time></trkpt>
	<trkpt lat="51.75877167" lon="-1.839408333"><ele>121.000000</ele><time>2010-01-27T12:40:57Z</time></trkpt>
	<trkpt lat="51.75880833" lon="-1.839381667"><ele>120.000000</ele><time>2010-01-27T12:41:02Z</time></trkpt>
	<trkpt lat="51.75881167" lon="-1.839383333"><ele>119.000000</ele><time>2010-01-27T12:41:07Z</time></trkpt>
	<trkpt lat="51.75881833" lon="-1.839371667"><ele>119.000000</ele><time>2010-01-27T12:41:12Z</time></trkpt>
	<trkpt lat="51.75882167" lon="-1.839368333"><ele>119.000000</ele><time>2010-01-27T12:41:17Z</time></trkpt>
	<trkpt lat="51.75882833" lon="-1.839361667"><ele>118.000000</ele><time>2010-01-27T12:41:22Z</time></trkpt>
	<trkpt lat="51.75883333" lon="-1.839358333"><ele>118.000000</ele><time>2010-01-27T12:41:27Z</time></trkpt>
	<trkpt lat="51.75884" lon="-1.839358333"><ele>117.000000</ele><time>2010-01-27T12:41:32Z</time></trkpt>
	<trkpt lat="51.75884667" lon="-1.83936"><ele>117.000000</ele><time>2010-01-27T12:41:37Z</time></trkpt>
	<trkpt lat="51.758865" lon="-1.839383333"><ele>121.000000</ele><time>2010-01-27T12:41:42Z</time></trkpt>
	<trkpt lat="51.75882833" lon="-1.839378333"><ele>121.000000</ele><time>2010-01-27T12:41:47Z</time></trkpt>
	<trkpt lat="51.758775" lon="-1.83934"><ele>119.000000</ele><time>2010-01-27T12:41:52Z</time></trkpt>
	<trkpt lat="51.75871833" lon="-1.8393"><ele>118.000000</ele><time>2010-01-27T12:41:57Z</time></trkpt>
	<trkpt lat="51.75867167" lon="-1.839236667"><ele>117.000000</ele><time>2010-01-27T12:42:02Z</time></trkpt>
	<trkpt lat="51.75864667" lon="-1.839226667"><ele>115.000000</ele><time>2010-01-27T12:42:07Z</time></trkpt>
	<trkpt lat="51.75864333" lon="-1.83921"><ele>115.000000</ele><time>2010-01-27T12:42:12Z</time></trkpt>
	<trkpt lat="51.75864667" lon="-1.839205"><ele>116.000000</ele><time>2010-01-27T12:42:17Z</time></trkpt>
	<trkpt lat="51.75864333" lon="-1.839198333"><ele>116.000000</ele><time>2010-01-27T12:42:22Z</time></trkpt>
	<trkpt lat="51.75864" lon="-1.839188333"><ele>117.000000</ele><time>2010-01-27T12:42:27Z</time></trkpt>
	<trkpt lat="51.75863333" lon="-1.839183333"><ele>118.000000</ele><time>2010-01-27T12:42:32Z</time></trkpt>
	<trkpt lat="51.75862667" lon="-1.839183333"><ele>119.000000</ele><time>2010-01-27T12:42:37Z</time></trkpt>
	<trkpt lat="51.75862333" lon="-1.839185"><ele>119.000000</ele><time>2010-01-27T12:42:42Z</time></trkpt>
	<trkpt lat="51.75862" lon="-1.839186667"><ele>119.000000</ele><time>2010-01-27T12:42:47Z</time></trkpt>
	<trkpt lat="51.75862167" lon="-1.839188333"><ele>119.000000</ele><time>2010-01-27T12:42:52Z</time></trkpt>
	<trkpt lat="51.75862333" lon="-1.83919"><ele>119.000000</ele><time>2010-01-27T12:42:57Z</time></trkpt>
	<trkpt lat="51.75862833" lon="-1.839193333"><ele>119.000000</ele><time>2010-01-27T12:43:02Z</time></trkpt>
	<trkpt lat="51.75862833" lon="-1.839193333"><ele>118.000000</ele><time>2010-01-27T12:43:07Z</time></trkpt>
	<trkpt lat="51.75862667" lon="-1.83919"><ele>118.000000</ele><time>2010-01-27T12:43:12Z</time></trkpt>
	<trkpt lat="51.758625" lon="-1.83919"><ele>118.000000</ele><time>2010-01-27T12:43:17Z</time></trkpt>
	<trkpt lat="51.75862333" lon="-1.83919"><ele>118.000000</ele><time>2010-01-27T12:43:22Z</time></trkpt>
	<trkpt lat="51.75862833" lon="-1.839195"><ele>118.000000</ele><time>2010-01-27T12:43:27Z</time></trkpt>
	<trkpt lat="51.75863667" lon="-1.839195"><ele>117.000000</ele><time>2010-01-27T12:43:32Z</time></trkpt>
	<trkpt lat="51.75863833" lon="-1.839196667"><ele>117.000000</ele><time>2010-01-27T12:43:37Z</time></trkpt>
	<trkpt lat="51.75863167" lon="-1.839203333"><ele>117.000000</ele><time>2010-01-27T12:43:42Z</time></trkpt>
	<trkpt lat="51.75862833" lon="-1.8392"><ele>117.000000</ele><time>2010-01-27T12:43:47Z</time></trkpt>
	<trkpt lat="51.75863167" lon="-1.8392"><ele>117.000000</ele><time>2010-01-27T12:43:52Z</time></trkpt>
	<trkpt lat="51.75863333" lon="-1.839198333"><ele>117.000000</ele><time>2010-01-27T12:43:57Z</time></trkpt>
	<trkpt lat="51.75863667" lon="-1.839196667"><ele>116.000000</ele><time>2010-01-27T12:44:02Z</time></trkpt>
	<trkpt lat="51.75864333" lon="-1.839195"><ele>116.000000</ele><time>2010-01-27T12:44:07Z</time></trkpt>
	<trkpt lat="51.75864333" lon="-1.83919"><ele>115.000000</ele><time>2010-01-27T12:44:12Z</time></trkpt>
	<trkpt lat="51.75864333" lon="-1.839186667"><ele>115.000000</ele><time>2010-01-27T12:44:18Z</time></trkpt>
	<trkpt lat="51.75864167" lon="-1.839186667"><ele>116.000000</ele><time>2010-01-27T12:44:23Z</time></trkpt>
	<trkpt lat="51.75864" lon="-1.839185"><ele>116.000000</ele><time>2010-01-27T12:44:28Z</time></trkpt>
	<trkpt lat="51.75863833" lon="-1.839183333"><ele>116.000000</ele><time>2010-01-27T12:44:33Z</time></trkpt>
	<trkpt lat="51.75863833" lon="-1.839183333"><ele>116.000000</ele><time>2010-01-27T12:44:38Z</time></trkpt>
	<trkpt lat="51.75863667" lon="-1.839181667"><ele>115.000000</ele><time>2010-01-27T12:44:43Z</time></trkpt>
	<trkpt lat="51.75863833" lon="-1.839181667"><ele>115.000000</ele><time>2010-01-27T12:44:48Z</time></trkpt>
	<trkpt lat="51.75863667" lon="-1.839181667"><ele>115.000000</ele><time>2010-01-27T12:44:53Z</time></trkpt>
	<trkpt lat="51.75863667" lon="-1.83918"><ele>115.000000</ele><time>2010-01-27T12:44:58Z</time></trkpt>
	<trkpt lat="51.75863667" lon="-1.839178333"><ele>115.000000</ele><time>2010-01-27T12:45:03Z</time></trkpt>
	<trkpt lat="51.75863667" lon="-1.839175"><ele>115.000000</ele><time>2010-01-27T12:45:08Z</time></trkpt>
	<trkpt lat="51.75863667" lon="-1.839173333"><ele>115.000000</ele><time>2010-01-27T12:45:13Z</time></trkpt>
	<trkpt lat="51.75862833" lon="-1.839186667"><ele>116.000000</ele><time>2010-01-27T12:45:18Z</time></trkpt>
	<trkpt lat="51.75863333" lon="-1.839183333"><ele>116.000000</ele><time>2010-01-27T12:45:23Z</time></trkpt>
	<trkpt lat="51.75862833" lon="-1.839183333"><ele>116.000000</ele><time>2010-01-27T12:45:28Z</time></trkpt>
	<trkpt lat="51.75862833" lon="-1.83918"><ele>115.000000</ele><time>2010-01-27T12:45:33Z</time></trkpt>
	<trkpt lat="51.75863167" lon="-1.839178333"><ele>115.000000</ele><time>2010-01-27T12:45:38Z</time></trkpt>
	<trkpt lat="51.75863167" lon="-1.839175"><ele>115.000000</ele><time>2010-01-27T12:45:43Z</time></trkpt>
	<trkpt lat="51.75863167" lon="-1.839175"><ele>115.000000</ele><time>2010-01-27T12:45:48Z</time></trkpt>
	<trkpt lat="51.758625" lon="-1.839186667"><ele>116.000000</ele><time>2010-01-27T12:45:53Z</time></trkpt>
	<trkpt lat="51.758625" lon="-1.839186667"><ele>116.000000</ele><time>2010-01-27T12:45:58Z</time></trkpt>
	<trkpt lat="51.75862167" lon="-1.839195"><ele>116.000000</ele><time>2010-01-27T12:46:03Z</time></trkpt>
	<trkpt lat="51.75861333" lon="-1.839215"><ele>117.000000</ele><time>2010-01-27T12:46:08Z</time></trkpt>
	<trkpt lat="51.75861333" lon="-1.839206667"><ele>118.000000</ele><time>2010-01-27T12:46:13Z</time></trkpt>
	<trkpt lat="51.75861667" lon="-1.839218333"><ele>119.000000</ele><time>2010-01-27T12:46:18Z</time></trkpt>
</trkseg>
</trk>
</gpx>
